<?xml version="1.0" encoding="UTF-8" standalone="no" ?><gpx xmlns="http://www.topografix.com/GPX/1/1" xmlns:gpxx="http://www.garmin.com/xmlschemas/GpxExtensions/v3" xmlns:wptx1="http://www.garmin.com/xmlschemas/WaypointExtension/v1" xmlns:gpxtpx="http://www.garmin.com/xmlschemas/TrackPointExtension/v1" creator="eTrex 30" version="1.1" xmlns:xsi="http://www.w3.org/2001/XMLSchema-instance" xsi:schemaLocation="http://www.topografix.com/GPX/1/1 http://www.topografix.com/GPX/1/1/gpx.xsd http://www.garmin.com/xmlschemas/GpxExtensions/v3 http://www8.garmin.com/xmlschemas/GpxExtensionsv3.xsd http://www.garmin.com/xmlschemas/WaypointExtension/v1 http://www8.garmin.com/xmlschemas/WaypointExtensionv1.xsd http://www.garmin.com/xmlschemas/TrackPointExtension/v1 http://www.garmin.com/xmlschemas/TrackPointExtensionv1.xsd"><metadata><link href="http://www.garmin.com"><text>Garmin International</text></link><time>2015-11-26T15:37:19Z</time></metadata><trk><name>26-NOV-15 17:37:16</name><extensions><gpxx:TrackExtension><gpxx:DisplayColor>Cyan</gpxx:DisplayColor></gpxx:TrackExtension></extensions><trkseg><trkpt lat="30.1771773957" lon="35.4274870455"><ele>1574.30</ele><time>2015-11-26T07:09:23Z</time></trkpt><trkpt lat="30.1771735400" lon="35.4274930805"><ele>1573.82</ele><time>2015-11-26T07:09:39Z</time></trkpt><trkpt lat="30.1771697681" lon="35.4274936672"><ele>1573.82</ele><time>2015-11-26T07:10:12Z</time></trkpt><trkpt lat="30.1771623921" lon="35.4275297094"><ele>1573.82</ele><time>2015-11-26T07:10:27Z</time></trkpt><trkpt lat="30.1771361567" lon="35.4275813419"><ele>1573.33</ele><time>2015-11-26T07:10:56Z</time></trkpt><trkpt lat="30.1771279424" lon="35.4275948368"><ele>1573.82</ele><time>2015-11-26T07:10:58Z</time></trkpt><trkpt lat="30.1770587079" lon="35.4276817571"><ele>1573.82</ele><time>2015-11-26T07:11:07Z</time></trkpt><trkpt lat="30.1767959353" lon="35.4276428651"><ele>1574.78</ele><time>2015-11-26T07:11:23Z</time></trkpt><trkpt lat="30.1764429733" lon="35.4276282806"><ele>1575.26</ele><time>2015-11-26T07:11:39Z</time></trkpt><trkpt lat="30.1759874169" lon="35.4276208207"><ele>1574.78</ele><time>2015-11-26T07:11:55Z</time></trkpt><trkpt lat="30.1755959820" lon="35.4276274424"><ele>1573.82</ele><time>2015-11-26T07:12:06Z</time></trkpt><trkpt lat="30.1747443806" lon="35.4276738781"><ele>1572.37</ele><time>2015-11-26T07:12:23Z</time></trkpt><trkpt lat="30.1736367121" lon="35.4277380835"><ele>1569.97</ele><time>2015-11-26T07:12:41Z</time></trkpt><trkpt lat="30.1725487411" lon="35.4278111737"><ele>1568.53</ele><time>2015-11-26T07:12:59Z</time></trkpt><trkpt lat="30.1720033307" lon="35.4278337210"><ele>1568.05</ele><time>2015-11-26T07:13:09Z</time></trkpt><trkpt lat="30.1719418913" lon="35.4278198071"><ele>1567.57</ele><time>2015-11-26T07:13:10Z</time></trkpt><trkpt lat="30.1718831342" lon="35.4278013669"><ele>1568.05</ele><time>2015-11-26T07:13:11Z</time></trkpt><trkpt lat="30.1718283165" lon="35.4277762212"><ele>1568.05</ele><time>2015-11-26T07:13:12Z</time></trkpt><trkpt lat="30.1717745047" lon="35.4277504887"><ele>1567.57</ele><time>2015-11-26T07:13:13Z</time></trkpt><trkpt lat="30.1716721617" lon="35.4276913963"><ele>1567.09</ele><time>2015-11-26T07:13:15Z</time></trkpt><trkpt lat="30.1715756860" lon="35.4276198149"><ele>1566.61</ele><time>2015-11-26T07:13:17Z</time></trkpt><trkpt lat="30.1709947363" lon="35.4272381868"><ele>1564.20</ele><time>2015-11-26T07:13:28Z</time></trkpt><trkpt lat="30.1709376555" lon="35.4272059165"><ele>1564.20</ele><time>2015-11-26T07:13:29Z</time></trkpt><trkpt lat="30.1708842628" lon="35.4271702096"><ele>1563.72</ele><time>2015-11-26T07:13:30Z</time></trkpt><trkpt lat="30.1699799392" lon="35.4265351966"><ele>1560.84</ele><time>2015-11-26T07:13:45Z</time></trkpt><trkpt lat="30.1688994281" lon="35.4257722758"><ele>1558.92</ele><time>2015-11-26T07:14:03Z</time></trkpt><trkpt lat="30.1680796780" lon="35.4254248459"><ele>1556.03</ele><time>2015-11-26T07:14:16Z</time></trkpt><trkpt lat="30.1672469359" lon="35.4251593072"><ele>1552.67</ele><time>2015-11-26T07:14:27Z</time></trkpt><trkpt lat="30.1664432790" lon="35.4249116220"><ele>1549.30</ele><time>2015-11-26T07:14:37Z</time></trkpt><trkpt lat="30.1654087845" lon="35.4245893378"><ele>1548.34</ele><time>2015-11-26T07:14:52Z</time></trkpt><trkpt lat="30.1646632142" lon="35.4243301693"><ele>1548.82</ele><time>2015-11-26T07:15:09Z</time></trkpt><trkpt lat="30.1638551988" lon="35.4240735155"><ele>1546.42</ele><time>2015-11-26T07:15:25Z</time></trkpt><trkpt lat="30.1629499532" lon="35.4237648100"><ele>1543.05</ele><time>2015-11-26T07:15:39Z</time></trkpt><trkpt lat="30.1621612161" lon="35.4235061444"><ele>1540.17</ele><time>2015-11-26T07:15:50Z</time></trkpt><trkpt lat="30.1617664285" lon="35.4233135283"><ele>1539.69</ele><time>2015-11-26T07:15:56Z</time></trkpt><trkpt lat="30.1617080905" lon="35.4232780728"><ele>1540.17</ele><time>2015-11-26T07:15:57Z</time></trkpt><trkpt lat="30.1616498362" lon="35.4232433718"><ele>1540.17</ele><time>2015-11-26T07:15:58Z</time></trkpt><trkpt lat="30.1608157530" lon="35.4228697065"><ele>1540.65</ele><time>2015-11-26T07:16:14Z</time></trkpt><trkpt lat="30.1600428578" lon="35.4225926008"><ele>1537.29</ele><time>2015-11-26T07:16:28Z</time></trkpt><trkpt lat="30.1590972114" lon="35.4220405687"><ele>1534.88</ele><time>2015-11-26T07:16:44Z</time></trkpt><trkpt lat="30.1585691515" lon="35.4217532370"><ele>1533.92</ele><time>2015-11-26T07:16:54Z</time></trkpt><trkpt lat="30.1585207041" lon="35.4217358027"><ele>1533.92</ele><time>2015-11-26T07:16:55Z</time></trkpt><trkpt lat="30.1584746875" lon="35.4217083100"><ele>1533.92</ele><time>2015-11-26T07:16:56Z</time></trkpt><trkpt lat="30.1582921296" lon="35.4215835035"><ele>1532.96</ele><time>2015-11-26T07:17:00Z</time></trkpt><trkpt lat="30.1576939132" lon="35.4212581180"><ele>1530.08</ele><time>2015-11-26T07:17:10Z</time></trkpt><trkpt lat="30.1570293121" lon="35.4208873864"><ele>1526.23</ele><time>2015-11-26T07:17:19Z</time></trkpt><trkpt lat="30.1565465983" lon="35.4206149746"><ele>1523.83</ele><time>2015-11-26T07:17:25Z</time></trkpt><trkpt lat="30.1555946656" lon="35.4203505255"><ele>1521.90</ele><time>2015-11-26T07:17:37Z</time></trkpt><trkpt lat="30.1547968760" lon="35.4202275630"><ele>1519.98</ele><time>2015-11-26T07:17:49Z</time></trkpt><trkpt lat="30.1547333412" lon="35.4202127270"><ele>1519.98</ele><time>2015-11-26T07:17:50Z</time></trkpt><trkpt lat="30.1542302594" lon="35.4201123957"><ele>1516.62</ele><time>2015-11-26T07:17:57Z</time></trkpt><trkpt lat="30.1538123377" lon="35.4200280737"><ele>1513.25</ele><time>2015-11-26T07:18:02Z</time></trkpt><trkpt lat="30.1537324581" lon="35.4200201947"><ele>1513.25</ele><time>2015-11-26T07:18:03Z</time></trkpt><trkpt lat="30.1535718609" lon="35.4200175963"><ele>1512.29</ele><time>2015-11-26T07:18:05Z</time></trkpt><trkpt lat="30.1534893829" lon="35.4200284928"><ele>1511.33</ele><time>2015-11-26T07:18:06Z</time></trkpt><trkpt lat="30.1534057315" lon="35.4200450052"><ele>1510.85</ele><time>2015-11-26T07:18:07Z</time></trkpt><trkpt lat="30.1533199009" lon="35.4200626072"><ele>1510.37</ele><time>2015-11-26T07:18:08Z</time></trkpt><trkpt lat="30.1532316394" lon="35.4200733360"><ele>1509.89</ele><time>2015-11-26T07:18:09Z</time></trkpt><trkpt lat="30.1531416178" lon="35.4200719949"><ele>1509.41</ele><time>2015-11-26T07:18:10Z</time></trkpt><trkpt lat="30.1530530211" lon="35.4200563207"><ele>1508.93</ele><time>2015-11-26T07:18:11Z</time></trkpt><trkpt lat="30.1529677771" lon="35.4200244695"><ele>1508.93</ele><time>2015-11-26T07:18:12Z</time></trkpt><trkpt lat="30.1528859697" lon="35.4199845716"><ele>1508.45</ele><time>2015-11-26T07:18:13Z</time></trkpt><trkpt lat="30.1527251210" lon="35.4198953882"><ele>1507.48</ele><time>2015-11-26T07:18:15Z</time></trkpt><trkpt lat="30.1521725021" lon="35.4195206333"><ele>1504.60</ele><time>2015-11-26T07:18:22Z</time></trkpt><trkpt lat="30.1518070512" lon="35.4191089142"><ele>1501.24</ele><time>2015-11-26T07:18:27Z</time></trkpt><trkpt lat="30.1517332904" lon="35.4190291185"><ele>1500.76</ele><time>2015-11-26T07:18:28Z</time></trkpt><trkpt lat="30.1516586076" lon="35.4189602192"><ele>1500.27</ele><time>2015-11-26T07:18:29Z</time></trkpt><trkpt lat="30.1515827514" lon="35.4189039767"><ele>1499.79</ele><time>2015-11-26T07:18:30Z</time></trkpt><trkpt lat="30.1515094936" lon="35.4188594688"><ele>1499.31</ele><time>2015-11-26T07:18:31Z</time></trkpt><trkpt lat="30.1514397562" lon="35.4188265279"><ele>1498.83</ele><time>2015-11-26T07:18:32Z</time></trkpt><trkpt lat="30.1513741259" lon="35.4188029747"><ele>1498.35</ele><time>2015-11-26T07:18:33Z</time></trkpt><trkpt lat="30.1513097528" lon="35.4187868815"><ele>1498.35</ele><time>2015-11-26T07:18:34Z</time></trkpt><trkpt lat="30.1512473077" lon="35.4187765718"><ele>1497.87</ele><time>2015-11-26T07:18:35Z</time></trkpt><trkpt lat="30.1511870418" lon="35.4187734704"><ele>1497.39</ele><time>2015-11-26T07:18:36Z</time></trkpt><trkpt lat="30.1511269435" lon="35.4187755659"><ele>1497.39</ele><time>2015-11-26T07:18:37Z</time></trkpt><trkpt lat="30.1510670129" lon="35.4187817685"><ele>1496.91</ele><time>2015-11-26T07:18:38Z</time></trkpt><trkpt lat="30.1507057529" lon="35.4188364185"><ele>1496.43</ele><time>2015-11-26T07:18:44Z</time></trkpt><trkpt lat="30.1498554088" lon="35.4191659950"><ele>1493.06</ele><time>2015-11-26T07:18:58Z</time></trkpt><trkpt lat="30.1497198734" lon="35.4192320444"><ele>1492.10</ele><time>2015-11-26T07:19:00Z</time></trkpt><trkpt lat="30.1496482920" lon="35.4192521609"><ele>1491.62</ele><time>2015-11-26T07:19:01Z</time></trkpt><trkpt lat="30.1488676853" lon="35.4193693399"><ele>1488.26</ele><time>2015-11-26T07:19:11Z</time></trkpt><trkpt lat="30.1485827006" lon="35.4193961620"><ele>1485.85</ele><time>2015-11-26T07:19:14Z</time></trkpt><trkpt lat="30.1484810282" lon="35.4193861037"><ele>1485.37</ele><time>2015-11-26T07:19:15Z</time></trkpt><trkpt lat="30.1483799424" lon="35.4193632212"><ele>1484.41</ele><time>2015-11-26T07:19:16Z</time></trkpt><trkpt lat="30.1482844725" lon="35.4193255864"><ele>1484.41</ele><time>2015-11-26T07:19:17Z</time></trkpt><trkpt lat="30.1481964625" lon="35.4192720260"><ele>1483.93</ele><time>2015-11-26T07:19:18Z</time></trkpt><trkpt lat="30.1481216121" lon="35.4192061443"><ele>1483.45</ele><time>2015-11-26T07:19:19Z</time></trkpt><trkpt lat="30.1480577420" lon="35.4191318806"><ele>1482.97</ele><time>2015-11-26T07:19:20Z</time></trkpt><trkpt lat="30.1480018348" lon="35.4190552700"><ele>1482.49</ele><time>2015-11-26T07:19:21Z</time></trkpt><trkpt lat="30.1474753674" lon="35.4184724763"><ele>1480.09</ele><time>2015-11-26T07:19:30Z</time></trkpt><trkpt lat="30.1474069711" lon="35.4184284713"><ele>1480.09</ele><time>2015-11-26T07:19:31Z</time></trkpt><trkpt lat="30.1467157993" lon="35.4180655349"><ele>1476.72</ele><time>2015-11-26T07:19:40Z</time></trkpt><trkpt lat="30.1465680264" lon="35.4179621860"><ele>1476.24</ele><time>2015-11-26T07:19:42Z</time></trkpt><trkpt lat="30.1457975619" lon="35.4172280151"><ele>1474.32</ele><time>2015-11-26T07:19:55Z</time></trkpt><trkpt lat="30.1457316801" lon="35.4171959125"><ele>1474.32</ele><time>2015-11-26T07:19:56Z</time></trkpt><trkpt lat="30.1456652954" lon="35.4171731975"><ele>1473.84</ele><time>2015-11-26T07:19:57Z</time></trkpt><trkpt lat="30.1455983240" lon="35.4171563499"><ele>1473.84</ele><time>2015-11-26T07:19:58Z</time></trkpt><trkpt lat="30.1455313526" lon="35.4171445314"><ele>1473.84</ele><time>2015-11-26T07:19:59Z</time></trkpt><trkpt lat="30.1450426038" lon="35.4171036277"><ele>1473.84</ele><time>2015-11-26T07:20:07Z</time></trkpt><trkpt lat="30.1447154582" lon="35.4171554279"><ele>1472.40</ele><time>2015-11-26T07:20:12Z</time></trkpt><trkpt lat="30.1444987021" lon="35.4172290210"><ele>1470.95</ele><time>2015-11-26T07:20:15Z</time></trkpt><trkpt lat="30.1444259472" lon="35.4172711819"><ele>1470.47</ele><time>2015-11-26T07:20:16Z</time></trkpt><trkpt lat="30.1443533599" lon="35.4173208866"><ele>1469.99</ele><time>2015-11-26T07:20:17Z</time></trkpt><trkpt lat="30.1439446583" lon="35.4176068772"><ele>1466.63</ele><time>2015-11-26T07:20:22Z</time></trkpt><trkpt lat="30.1437588315" lon="35.4176998325"><ele>1466.15</ele><time>2015-11-26T07:20:24Z</time></trkpt><trkpt lat="30.1436611824" lon="35.4177286662"><ele>1465.67</ele><time>2015-11-26T07:20:25Z</time></trkpt><trkpt lat="30.1435627788" lon="35.4177371319"><ele>1465.67</ele><time>2015-11-26T07:20:26Z</time></trkpt><trkpt lat="30.1434680633" lon="35.4177269898"><ele>1465.67</ele><time>2015-11-26T07:20:27Z</time></trkpt><trkpt lat="30.1433769520" lon="35.4177103098"><ele>1465.67</ele><time>2015-11-26T07:20:28Z</time></trkpt><trkpt lat="30.1426509116" lon="35.4174974095"><ele>1466.63</ele><time>2015-11-26T07:20:37Z</time></trkpt><trkpt lat="30.1425873768" lon="35.4174579307"><ele>1467.11</ele><time>2015-11-26T07:20:38Z</time></trkpt><trkpt lat="30.1425282843" lon="35.4174163565"><ele>1467.11</ele><time>2015-11-26T07:20:39Z</time></trkpt><trkpt lat="30.1422241889" lon="35.4171338864"><ele>1470.95</ele><time>2015-11-26T07:20:47Z</time></trkpt><trkpt lat="30.1418969594" lon="35.4169323854"><ele>1473.84</ele><time>2015-11-26T07:21:00Z</time></trkpt><trkpt lat="30.1415461767" lon="35.4168282822"><ele>1476.24</ele><time>2015-11-26T07:21:14Z</time></trkpt><trkpt lat="30.1410456933" lon="35.4166626558"><ele>1475.76</ele><time>2015-11-26T07:21:29Z</time></trkpt><trkpt lat="30.1410039514" lon="35.4166412819"><ele>1475.76</ele><time>2015-11-26T07:21:30Z</time></trkpt><trkpt lat="30.1407410111" lon="35.4164440557"><ele>1475.76</ele><time>2015-11-26T07:21:37Z</time></trkpt><trkpt lat="30.1407059748" lon="35.4164172336"><ele>1475.76</ele><time>2015-11-26T07:21:38Z</time></trkpt><trkpt lat="30.1406741235" lon="35.4163861368"><ele>1475.76</ele><time>2015-11-26T07:21:39Z</time></trkpt><trkpt lat="30.1406097505" lon="35.4163176566"><ele>1475.28</ele><time>2015-11-26T07:21:41Z</time></trkpt><trkpt lat="30.1405706909" lon="35.4162897449"><ele>1475.28</ele><time>2015-11-26T07:21:42Z</time></trkpt><trkpt lat="30.1405291166" lon="35.4162629228"><ele>1475.28</ele><time>2015-11-26T07:21:43Z</time></trkpt><trkpt lat="30.1399172377" lon="35.4160706419"><ele>1471.92</ele><time>2015-11-26T07:21:53Z</time></trkpt><trkpt lat="30.1398440637" lon="35.4160388745"><ele>1471.92</ele><time>2015-11-26T07:21:54Z</time></trkpt><trkpt lat="30.1397731528" lon="35.4159935284"><ele>1471.44</ele><time>2015-11-26T07:21:55Z</time></trkpt><trkpt lat="30.1397091150" lon="35.4159310833"><ele>1470.95</ele><time>2015-11-26T07:21:56Z</time></trkpt><trkpt lat="30.1396541297" lon="35.4158545565"><ele>1470.47</ele><time>2015-11-26T07:21:57Z</time></trkpt><trkpt lat="30.1396067720" lon="35.4157697316"><ele>1469.99</ele><time>2015-11-26T07:21:58Z</time></trkpt><trkpt lat="30.1395678800" lon="35.4156792909"><ele>1469.99</ele><time>2015-11-26T07:21:59Z</time></trkpt><trkpt lat="30.1395362802" lon="35.4155850783"><ele>1469.51</ele><time>2015-11-26T07:22:00Z</time></trkpt><trkpt lat="30.1392570790" lon="35.4143427126"><ele>1468.55</ele><time>2015-11-26T07:22:14Z</time></trkpt><trkpt lat="30.1392211206" lon="35.4141266271"><ele>1468.55</ele><time>2015-11-26T07:22:17Z</time></trkpt><trkpt lat="30.1391780376" lon="35.4139284790"><ele>1468.55</ele><time>2015-11-26T07:22:20Z</time></trkpt><trkpt lat="30.1391286682" lon="35.4136765189"><ele>1468.07</ele><time>2015-11-26T07:22:24Z</time></trkpt><trkpt lat="30.1391049474" lon="35.4136157501"><ele>1467.59</ele><time>2015-11-26T07:22:25Z</time></trkpt><trkpt lat="30.1390777063" lon="35.4135583341"><ele>1467.59</ele><time>2015-11-26T07:22:26Z</time></trkpt><trkpt lat="30.1390470285" lon="35.4135093000"><ele>1467.11</ele><time>2015-11-26T07:22:27Z</time></trkpt><trkpt lat="30.1390124951" lon="35.4134680610"><ele>1466.63</ele><time>2015-11-26T07:22:28Z</time></trkpt><trkpt lat="30.1389744412" lon="35.4134342819"><ele>1466.15</ele><time>2015-11-26T07:22:29Z</time></trkpt><trkpt lat="30.1389340404" lon="35.4134110641"><ele>1465.67</ele><time>2015-11-26T07:22:30Z</time></trkpt><trkpt lat="30.1388914604" lon="35.4133968148"><ele>1465.67</ele><time>2015-11-26T07:22:31Z</time></trkpt><trkpt lat="30.1388441026" lon="35.4133921210"><ele>1465.19</ele><time>2015-11-26T07:22:32Z</time></trkpt><trkpt lat="30.1387897879" lon="35.4133978207"><ele>1464.71</ele><time>2015-11-26T07:22:33Z</time></trkpt><trkpt lat="30.1387295220" lon="35.4134142492"><ele>1464.23</ele><time>2015-11-26T07:22:34Z</time></trkpt><trkpt lat="30.1386652328" lon="35.4134357069"><ele>1463.74</ele><time>2015-11-26T07:22:35Z</time></trkpt><trkpt lat="30.1383187249" lon="35.4135844857"><ele>1460.38</ele><time>2015-11-26T07:22:40Z</time></trkpt><trkpt lat="30.1382503286" lon="35.4135893472"><ele>1459.42</ele><time>2015-11-26T07:22:41Z</time></trkpt><trkpt lat="30.1381830219" lon="35.4135745112"><ele>1458.46</ele><time>2015-11-26T07:22:42Z</time></trkpt><trkpt lat="30.1381304674" lon="35.4135379661"><ele>1457.98</ele><time>2015-11-26T07:22:43Z</time></trkpt><trkpt lat="30.1380976941" lon="35.4134746827"><ele>1457.50</ele><time>2015-11-26T07:22:44Z</time></trkpt><trkpt lat="30.1380878873" lon="35.4133987427"><ele>1457.02</ele><time>2015-11-26T07:22:45Z</time></trkpt><trkpt lat="30.1380962692" lon="35.4133161809"><ele>1456.05</ele><time>2015-11-26T07:22:46Z</time></trkpt><trkpt lat="30.1381085906" lon="35.4132322781"><ele>1456.05</ele><time>2015-11-26T07:22:47Z</time></trkpt><trkpt lat="30.1381242648" lon="35.4129522387"><ele>1454.13</ele><time>2015-11-26T07:22:50Z</time></trkpt><trkpt lat="30.1381128654" lon="35.4128487222"><ele>1453.65</ele><time>2015-11-26T07:22:51Z</time></trkpt><trkpt lat="30.1380903181" lon="35.4127430264"><ele>1452.69</ele><time>2015-11-26T07:22:52Z</time></trkpt><trkpt lat="30.1380586345" lon="35.4126345646"><ele>1451.73</ele><time>2015-11-26T07:22:53Z</time></trkpt><trkpt lat="30.1380204130" lon="35.4125255160"><ele>1450.29</ele><time>2015-11-26T07:22:54Z</time></trkpt><trkpt lat="30.1379784197" lon="35.4124166351"><ele>1449.81</ele><time>2015-11-26T07:22:55Z</time></trkpt><trkpt lat="30.1379097719" lon="35.4121941794"><ele>1447.88</ele><time>2015-11-26T07:22:57Z</time></trkpt><trkpt lat="30.1378914993" lon="35.4120780062"><ele>1446.44</ele><time>2015-11-26T07:22:58Z</time></trkpt><trkpt lat="30.1378701255" lon="35.4117516149"><ele>1443.08</ele><time>2015-11-26T07:23:01Z</time></trkpt><trkpt lat="30.1378474943" lon="35.4115861561"><ele>1439.71</ele><time>2015-11-26T07:23:03Z</time></trkpt><trkpt lat="30.1378205046" lon="35.4114990681"><ele>1438.75</ele><time>2015-11-26T07:23:04Z</time></trkpt><trkpt lat="30.1377770025" lon="35.4114074539"><ele>1437.79</ele><time>2015-11-26T07:23:05Z</time></trkpt><trkpt lat="30.1377172396" lon="35.4113151692"><ele>1436.35</ele><time>2015-11-26T07:23:06Z</time></trkpt><trkpt lat="30.1376444846" lon="35.4112181067"><ele>1434.42</ele><time>2015-11-26T07:23:07Z</time></trkpt><trkpt lat="30.1375612523" lon="35.4111219663"><ele>1433.46</ele><time>2015-11-26T07:23:08Z</time></trkpt><trkpt lat="30.1374667883" lon="35.4110320285"><ele>1432.02</ele><time>2015-11-26T07:23:09Z</time></trkpt><trkpt lat="30.1371457614" lon="35.4107703455"><ele>1427.21</ele><time>2015-11-26T07:23:12Z</time></trkpt><trkpt lat="30.1368269138" lon="35.4104883783"><ele>1423.85</ele><time>2015-11-26T07:23:15Z</time></trkpt><trkpt lat="30.1365118381" lon="35.4102347419"><ele>1419.52</ele><time>2015-11-26T07:23:18Z</time></trkpt><trkpt lat="30.1362969261" lon="35.4100842029"><ele>1416.16</ele><time>2015-11-26T07:23:20Z</time></trkpt><trkpt lat="30.1361005381" lon="35.4099464044"><ele>1412.79</ele><time>2015-11-26T07:23:22Z</time></trkpt><trkpt lat="30.1359317265" lon="35.4098276328"><ele>1409.43</ele><time>2015-11-26T07:23:24Z</time></trkpt><trkpt lat="30.1357820258" lon="35.4097265471"><ele>1406.07</ele><time>2015-11-26T07:23:26Z</time></trkpt><trkpt lat="30.1355797704" lon="35.4096207675"><ele>1402.22</ele><time>2015-11-26T07:23:29Z</time></trkpt><trkpt lat="30.1355086081" lon="35.4096022435"><ele>1400.78</ele><time>2015-11-26T07:23:30Z</time></trkpt><trkpt lat="30.1354322489" lon="35.4095905088"><ele>1399.82</ele><time>2015-11-26T07:23:31Z</time></trkpt><trkpt lat="30.1353490166" lon="35.4095864855"><ele>1398.37</ele><time>2015-11-26T07:23:32Z</time></trkpt><trkpt lat="30.1352589112" lon="35.4095846415"><ele>1396.93</ele><time>2015-11-26T07:23:33Z</time></trkpt><trkpt lat="30.1349843200" lon="35.4095848091"><ele>1393.09</ele><time>2015-11-26T07:23:36Z</time></trkpt><trkpt lat="30.1346275024" lon="35.4095926043"><ele>1389.24</ele><time>2015-11-26T07:23:40Z</time></trkpt><trkpt lat="30.1343490556" lon="35.4096299876"><ele>1385.88</ele><time>2015-11-26T07:23:44Z</time></trkpt><trkpt lat="30.1341681741" lon="35.4096482601"><ele>1382.51</ele><time>2015-11-26T07:23:48Z</time></trkpt><trkpt lat="30.1339216623" lon="35.4096839670"><ele>1379.15</ele><time>2015-11-26T07:23:53Z</time></trkpt><trkpt lat="30.1337075885" lon="35.4097335041"><ele>1377.23</ele><time>2015-11-26T07:23:56Z</time></trkpt><trkpt lat="30.1332945284" lon="35.4098229390"><ele>1373.86</ele><time>2015-11-26T07:24:01Z</time></trkpt><trkpt lat="30.1328159217" lon="35.4099439736"><ele>1370.98</ele><time>2015-11-26T07:24:06Z</time></trkpt><trkpt lat="30.1327238046" lon="35.4099806864"><ele>1370.50</ele><time>2015-11-26T07:24:07Z</time></trkpt><trkpt lat="30.1325932983" lon="35.4100259487"><ele>1370.02</ele><time>2015-11-26T07:24:09Z</time></trkpt><trkpt lat="30.1325606089" lon="35.4100320674"><ele>1369.54</ele><time>2015-11-26T07:24:10Z</time></trkpt><trkpt lat="30.1325396542" lon="35.4100454785"><ele>1369.05</ele><time>2015-11-26T07:24:11Z</time></trkpt><trkpt lat="30.1325315237" lon="35.4100729711"><ele>1369.05</ele><time>2015-11-26T07:24:12Z</time></trkpt><trkpt lat="30.1325655542" lon="35.4100902379"><ele>1369.05</ele><time>2015-11-26T07:24:14Z</time></trkpt><trkpt lat="30.1325827371" lon="35.4100780841"><ele>1369.54</ele><time>2015-11-26T07:24:15Z</time></trkpt><trkpt lat="30.1326004229" lon="35.4100604821"><ele>1369.05</ele><time>2015-11-26T07:24:16Z</time></trkpt><trkpt lat="30.1328294165" lon="35.4099340830"><ele>1370.02</ele><time>2015-11-26T07:24:23Z</time></trkpt><trkpt lat="30.1333280560" lon="35.4098264594"><ele>1372.90</ele><time>2015-11-26T07:24:38Z</time></trkpt><trkpt lat="30.1335588098" lon="35.4097595718"><ele>1374.82</ele><time>2015-11-26T07:24:51Z</time></trkpt><trkpt lat="30.1337581314" lon="35.4096651915"><ele>1376.26</ele><time>2015-11-26T07:25:03Z</time></trkpt><trkpt lat="30.1337758172" lon="35.4096587375"><ele>1376.26</ele><time>2015-11-26T07:25:04Z</time></trkpt><trkpt lat="30.1337883063" lon="35.4096459132"><ele>1376.26</ele><time>2015-11-26T07:25:05Z</time></trkpt><trkpt lat="30.1337982807" lon="35.4096255451"><ele>1376.26</ele><time>2015-11-26T07:25:06Z</time></trkpt><trkpt lat="30.1338129491" lon="35.4096015729"><ele>1376.26</ele><time>2015-11-26T07:25:07Z</time></trkpt><trkpt lat="30.1340087503" lon="35.4091253132"><ele>1374.82</ele><time>2015-11-26T07:25:18Z</time></trkpt><trkpt lat="30.1341422740" lon="35.4086571001"><ele>1374.82</ele><time>2015-11-26T07:25:30Z</time></trkpt><trkpt lat="30.1340707764" lon="35.4084871151"><ele>1374.34</ele><time>2015-11-26T07:25:34Z</time></trkpt><trkpt lat="30.1340421103" lon="35.4084478877"><ele>1374.34</ele><time>2015-11-26T07:25:35Z</time></trkpt><trkpt lat="30.1340095885" lon="35.4084112588"><ele>1373.86</ele><time>2015-11-26T07:25:36Z</time></trkpt><trkpt lat="30.1339737140" lon="35.4083792400"><ele>1373.38</ele><time>2015-11-26T07:25:37Z</time></trkpt><trkpt lat="30.1339333970" lon="35.4083561059"><ele>1372.42</ele><time>2015-11-26T07:25:38Z</time></trkpt><trkpt lat="30.1338900626" lon="35.4083455447"><ele>1372.42</ele><time>2015-11-26T07:25:39Z</time></trkpt><trkpt lat="30.1338402741" lon="35.4083442036"><ele>1371.94</ele><time>2015-11-26T07:25:40Z</time></trkpt><trkpt lat="30.1337842830" lon="35.4083560221"><ele>1371.46</ele><time>2015-11-26T07:25:41Z</time></trkpt><trkpt lat="30.1337225921" lon="35.4083785694"><ele>1370.50</ele><time>2015-11-26T07:25:42Z</time></trkpt><trkpt lat="30.1336553693" lon="35.4084092472"><ele>1370.02</ele><time>2015-11-26T07:25:43Z</time></trkpt><trkpt lat="30.1334107853" lon="35.4085078184"><ele>1367.13</ele><time>2015-11-26T07:25:46Z</time></trkpt><trkpt lat="30.1333156507" lon="35.4085245822"><ele>1366.17</ele><time>2015-11-26T07:25:47Z</time></trkpt><trkpt lat="30.1332150679" lon="35.4085294437"><ele>1365.21</ele><time>2015-11-26T07:25:48Z</time></trkpt><trkpt lat="30.1328000799" lon="35.4084861930"><ele>1361.84</ele><time>2015-11-26T07:25:52Z</time></trkpt><trkpt lat="30.1324562542" lon="35.4084773920"><ele>1358.48</ele><time>2015-11-26T07:25:55Z</time></trkpt><trkpt lat="30.1320990175" lon="35.4084897973"><ele>1354.15</ele><time>2015-11-26T07:25:58Z</time></trkpt><trkpt lat="30.1318436209" lon="35.4084746260"><ele>1351.27</ele><time>2015-11-26T07:26:00Z</time></trkpt><trkpt lat="30.1316080056" lon="35.4084342252"><ele>1347.43</ele><time>2015-11-26T07:26:02Z</time></trkpt><trkpt lat="30.1314173173" lon="35.4084209818"><ele>1345.02</ele><time>2015-11-26T07:26:04Z</time></trkpt><trkpt lat="30.1313234400" lon="35.4084202275"><ele>1344.06</ele><time>2015-11-26T07:26:05Z</time></trkpt><trkpt lat="30.1312241144" lon="35.4084050562"><ele>1343.10</ele><time>2015-11-26T07:26:06Z</time></trkpt><trkpt lat="30.1311224420" lon="35.4083682597"><ele>1341.66</ele><time>2015-11-26T07:26:07Z</time></trkpt><trkpt lat="30.1310278103" lon="35.4083043057"><ele>1340.70</ele><time>2015-11-26T07:26:08Z</time></trkpt><trkpt lat="30.1309438236" lon="35.4082175530"><ele>1339.73</ele><time>2015-11-26T07:26:09Z</time></trkpt><trkpt lat="30.1308673806" lon="35.4081196524"><ele>1339.25</ele><time>2015-11-26T07:26:10Z</time></trkpt><trkpt lat="30.1307945419" lon="35.4080193210"><ele>1338.77</ele><time>2015-11-26T07:26:11Z</time></trkpt><trkpt lat="30.1303480379" lon="35.4074781854"><ele>1336.37</ele><time>2015-11-26T07:26:17Z</time></trkpt><trkpt lat="30.1296193153" lon="35.4068058729"><ele>1335.89</ele><time>2015-11-26T07:26:28Z</time></trkpt><trkpt lat="30.1292881463" lon="35.4063427728"><ele>1333.49</ele><time>2015-11-26T07:26:35Z</time></trkpt><trkpt lat="30.1292510144" lon="35.4062577803"><ele>1333.01</ele><time>2015-11-26T07:26:36Z</time></trkpt><trkpt lat="30.1291474141" lon="35.4059974384"><ele>1331.08</ele><time>2015-11-26T07:26:40Z</time></trkpt><trkpt lat="30.1290576439" lon="35.4057735577"><ele>1328.68</ele><time>2015-11-26T07:26:49Z</time></trkpt><trkpt lat="30.1290459931" lon="35.4057723843"><ele>1328.20</ele><time>2015-11-26T07:26:50Z</time></trkpt><trkpt lat="30.1290265471" lon="35.4057794251"><ele>1328.68</ele><time>2015-11-26T07:26:53Z</time></trkpt><trkpt lat="30.1290133875" lon="35.4057764914"><ele>1328.68</ele><time>2015-11-26T07:26:54Z</time></trkpt><trkpt lat="30.1290029101" lon="35.4057683609"><ele>1328.68</ele><time>2015-11-26T07:27:05Z</time></trkpt><trkpt lat="30.1290026587" lon="35.4057605658"><ele>1328.68</ele><time>2015-11-26T07:27:28Z</time></trkpt><trkpt lat="30.1290039159" lon="35.4057341628"><ele>1328.68</ele><time>2015-11-26T07:27:32Z</time></trkpt><trkpt lat="30.1290019881" lon="35.4057178181"><ele>1328.20</ele><time>2015-11-26T07:27:33Z</time></trkpt><trkpt lat="30.1289296523" lon="35.4055007268"><ele>1327.24</ele><time>2015-11-26T07:27:39Z</time></trkpt><trkpt lat="30.1285937056" lon="35.4049351998"><ele>1323.87</ele><time>2015-11-26T07:27:48Z</time></trkpt><trkpt lat="30.1285105571" lon="35.4047825653"><ele>1322.91</ele><time>2015-11-26T07:27:50Z</time></trkpt><trkpt lat="30.1282661408" lon="35.4042917211"><ele>1320.51</ele><time>2015-11-26T07:27:56Z</time></trkpt><trkpt lat="30.1278032083" lon="35.4034887347"><ele>1317.14</ele><time>2015-11-26T07:28:06Z</time></trkpt><trkpt lat="30.1276417729" lon="35.4031995591"><ele>1314.74</ele><time>2015-11-26T07:28:09Z</time></trkpt><trkpt lat="30.1275724545" lon="35.4031112138"><ele>1313.78</ele><time>2015-11-26T07:28:10Z</time></trkpt><trkpt lat="30.1274897251" lon="35.4030358605"><ele>1313.30</ele><time>2015-11-26T07:28:11Z</time></trkpt><trkpt lat="30.1273959316" lon="35.4029781092"><ele>1312.34</ele><time>2015-11-26T07:28:12Z</time></trkpt><trkpt lat="30.1272921637" lon="35.4029382952"><ele>1311.38</ele><time>2015-11-26T07:28:13Z</time></trkpt><trkpt lat="30.1271821093" lon="35.4029061925"><ele>1310.41</ele><time>2015-11-26T07:28:14Z</time></trkpt><trkpt lat="30.1269552950" lon="35.4028292466"><ele>1308.49</ele><time>2015-11-26T07:28:16Z</time></trkpt><trkpt lat="30.1268441509" lon="35.4027735069"><ele>1307.53</ele><time>2015-11-26T07:28:17Z</time></trkpt><trkpt lat="30.1265537180" lon="35.4026123229"><ele>1304.65</ele><time>2015-11-26T07:28:20Z</time></trkpt><trkpt lat="30.1264689770" lon="35.4025969841"><ele>1304.17</ele><time>2015-11-26T07:28:21Z</time></trkpt><trkpt lat="30.1263846550" lon="35.4026066232"><ele>1304.17</ele><time>2015-11-26T07:28:22Z</time></trkpt><trkpt lat="30.1259710919" lon="35.4026758578"><ele>1302.72</ele><time>2015-11-26T07:28:27Z</time></trkpt><trkpt lat="30.1258851774" lon="35.4026699066"><ele>1302.24</ele><time>2015-11-26T07:28:28Z</time></trkpt><trkpt lat="30.1258001011" lon="35.4026507121"><ele>1302.24</ele><time>2015-11-26T07:28:29Z</time></trkpt><trkpt lat="30.1257172041" lon="35.4026153404"><ele>1301.76</ele><time>2015-11-26T07:28:30Z</time></trkpt><trkpt lat="30.1256384142" lon="35.4025685694"><ele>1300.80</ele><time>2015-11-26T07:28:31Z</time></trkpt><trkpt lat="30.1255624741" lon="35.4025136679"><ele>1300.32</ele><time>2015-11-26T07:28:32Z</time></trkpt><trkpt lat="30.1252568699" lon="35.4022631329"><ele>1297.92</ele><time>2015-11-26T07:28:36Z</time></trkpt><trkpt lat="30.1251795050" lon="35.4021831695"><ele>1296.96</ele><time>2015-11-26T07:28:37Z</time></trkpt><trkpt lat="30.1251051575" lon="35.4020927288"><ele>1295.99</ele><time>2015-11-26T07:28:38Z</time></trkpt><trkpt lat="30.1250382699" lon="35.4019881226"><ele>1294.55</ele><time>2015-11-26T07:28:39Z</time></trkpt><trkpt lat="30.1249812730" lon="35.4018726200"><ele>1293.11</ele><time>2015-11-26T07:28:40Z</time></trkpt><trkpt lat="30.1249246951" lon="35.4017566983"><ele>1291.67</ele><time>2015-11-26T07:28:41Z</time></trkpt><trkpt lat="30.1248557959" lon="35.4016446322"><ele>1290.23</ele><time>2015-11-26T07:28:42Z</time></trkpt><trkpt lat="30.1247755811" lon="35.4015443847"><ele>1289.27</ele><time>2015-11-26T07:28:43Z</time></trkpt><trkpt lat="30.1246884093" lon="35.4014659300"><ele>1287.34</ele><time>2015-11-26T07:28:44Z</time></trkpt><trkpt lat="30.1245942805" lon="35.4014111962"><ele>1286.38</ele><time>2015-11-26T07:28:45Z</time></trkpt><trkpt lat="30.1244928595" lon="35.4013821948"><ele>1284.94</ele><time>2015-11-26T07:28:46Z</time></trkpt><trkpt lat="30.1243870798" lon="35.4013687838"><ele>1284.94</ele><time>2015-11-26T07:28:47Z</time></trkpt><trkpt lat="30.1242763549" lon="35.4013464879"><ele>1283.50</ele><time>2015-11-26T07:28:48Z</time></trkpt><trkpt lat="30.1241624448" lon="35.4013082664"><ele>1281.57</ele><time>2015-11-26T07:28:49Z</time></trkpt><trkpt lat="30.1240427513" lon="35.4012591485"><ele>1280.61</ele><time>2015-11-26T07:28:50Z</time></trkpt><trkpt lat="30.1236670744" lon="35.4010941926"><ele>1277.25</ele><time>2015-11-26T07:28:53Z</time></trkpt><trkpt lat="30.1232908946" lon="35.4008810408"><ele>1274.36</ele><time>2015-11-26T07:28:56Z</time></trkpt><trkpt lat="30.1230155490" lon="35.4007382132"><ele>1270.52</ele><time>2015-11-26T07:28:58Z</time></trkpt><trkpt lat="30.1224396285" lon="35.4004999157"><ele>1267.16</ele><time>2015-11-26T07:29:02Z</time></trkpt><trkpt lat="30.1220154203" lon="35.4003358819"><ele>1263.79</ele><time>2015-11-26T07:29:05Z</time></trkpt><trkpt lat="30.1214757934" lon="35.4001975805"><ele>1260.43</ele><time>2015-11-26T07:29:09Z</time></trkpt><trkpt lat="30.1213516574" lon="35.4001938924"><ele>1259.94</ele><time>2015-11-26T07:29:10Z</time></trkpt><trkpt lat="30.1212361548" lon="35.4002036154"><ele>1259.94</ele><time>2015-11-26T07:29:11Z</time></trkpt><trkpt lat="30.1202890836" lon="35.4003014322"><ele>1258.50</ele><time>2015-11-26T07:29:21Z</time></trkpt><trkpt lat="30.1202035043" lon="35.4002850037"><ele>1258.50</ele><time>2015-11-26T07:29:22Z</time></trkpt><trkpt lat="30.1201151591" lon="35.4002602771"><ele>1257.54</ele><time>2015-11-26T07:29:23Z</time></trkpt><trkpt lat="30.1197345369" lon="35.4000946507"><ele>1254.18</ele><time>2015-11-26T07:29:27Z</time></trkpt><trkpt lat="30.1193066407" lon="35.3999398369"><ele>1251.77</ele><time>2015-11-26T07:29:31Z</time></trkpt><trkpt lat="30.1190177165" lon="35.3998215683"><ele>1250.81</ele><time>2015-11-26T07:29:34Z</time></trkpt><trkpt lat="30.1184129622" lon="35.3994006291"><ele>1247.45</ele><time>2015-11-26T07:29:41Z</time></trkpt><trkpt lat="30.1180026680" lon="35.3990506008"><ele>1244.08</ele><time>2015-11-26T07:29:46Z</time></trkpt><trkpt lat="30.1176658832" lon="35.3987470921"><ele>1240.72</ele><time>2015-11-26T07:29:50Z</time></trkpt><trkpt lat="30.1175751071" lon="35.3986767679"><ele>1239.76</ele><time>2015-11-26T07:29:51Z</time></trkpt><trkpt lat="30.1172007713" lon="35.3984179348"><ele>1236.39</ele><time>2015-11-26T07:29:55Z</time></trkpt><trkpt lat="30.1168917306" lon="35.3982202057"><ele>1233.51</ele><time>2015-11-26T07:29:58Z</time></trkpt><trkpt lat="30.1164791733" lon="35.3979645576"><ele>1230.14</ele><time>2015-11-26T07:30:02Z</time></trkpt><trkpt lat="30.1154673100" lon="35.3973652516"><ele>1228.22</ele><time>2015-11-26T07:30:14Z</time></trkpt><trkpt lat="30.1148628071" lon="35.3968675341"><ele>1224.86</ele><time>2015-11-26T07:30:23Z</time></trkpt><trkpt lat="30.1147225779" lon="35.3967475053"><ele>1223.90</ele><time>2015-11-26T07:30:25Z</time></trkpt><trkpt lat="30.1141243614" lon="35.3963516280"><ele>1224.86</ele><time>2015-11-26T07:30:35Z</time></trkpt><trkpt lat="30.1140856370" lon="35.3963353671"><ele>1225.34</ele><time>2015-11-26T07:30:36Z</time></trkpt><trkpt lat="30.1135709882" lon="35.3962208703"><ele>1223.42</ele><time>2015-11-26T07:30:48Z</time></trkpt><trkpt lat="30.1134410687" lon="35.3962096386"><ele>1222.93</ele><time>2015-11-26T07:30:50Z</time></trkpt><trkpt lat="30.1129321195" lon="35.3960652184"><ele>1219.57</ele><time>2015-11-26T07:30:57Z</time></trkpt><trkpt lat="30.1128517371" lon="35.3960415814"><ele>1219.57</ele><time>2015-11-26T07:30:58Z</time></trkpt><trkpt lat="30.1125157066" lon="35.3959244024"><ele>1216.21</ele><time>2015-11-26T07:31:02Z</time></trkpt><trkpt lat="30.1120594796" lon="35.3957065567"><ele>1213.32</ele><time>2015-11-26T07:31:07Z</time></trkpt><trkpt lat="30.1115580741" lon="35.3954365756"><ele>1209.96</ele><time>2015-11-26T07:31:13Z</time></trkpt><trkpt lat="30.1106597856" lon="35.3949283808"><ele>1207.07</ele><time>2015-11-26T07:31:25Z</time></trkpt><trkpt lat="30.1104917284" lon="35.3947592340"><ele>1206.11</ele><time>2015-11-26T07:31:28Z</time></trkpt><trkpt lat="30.1104470529" lon="35.3946920112"><ele>1206.11</ele><time>2015-11-26T07:31:29Z</time></trkpt><trkpt lat="30.1104058977" lon="35.3946207650"><ele>1205.63</ele><time>2015-11-26T07:31:30Z</time></trkpt><trkpt lat="30.1103688497" lon="35.3945456631"><ele>1205.15</ele><time>2015-11-26T07:31:31Z</time></trkpt><trkpt lat="30.1103368308" lon="35.3944658674"><ele>1204.67</ele><time>2015-11-26T07:31:32Z</time></trkpt><trkpt lat="30.1103080809" lon="35.3943822999"><ele>1204.19</ele><time>2015-11-26T07:31:33Z</time></trkpt><trkpt lat="30.1101448014" lon="35.3935691714"><ele>1201.30</ele><time>2015-11-26T07:31:42Z</time></trkpt><trkpt lat="30.1100786682" lon="35.3923747502"><ele>1199.38</ele><time>2015-11-26T07:31:55Z</time></trkpt><trkpt lat="30.1100631617" lon="35.3919849079"><ele>1200.82</ele><time>2015-11-26T07:32:01Z</time></trkpt><trkpt lat="30.1100509241" lon="35.3919308446"><ele>1200.82</ele><time>2015-11-26T07:32:02Z</time></trkpt><trkpt lat="30.1099207532" lon="35.3916112427"><ele>1200.34</ele><time>2015-11-26T07:32:08Z</time></trkpt><trkpt lat="30.1096055098" lon="35.3912204783"><ele>1197.46</ele><time>2015-11-26T07:32:14Z</time></trkpt><trkpt lat="30.1087334566" lon="35.3903752472"><ele>1195.54</ele><time>2015-11-26T07:32:27Z</time></trkpt><trkpt lat="30.1084658224" lon="35.3900994826"><ele>1198.90</ele><time>2015-11-26T07:32:37Z</time></trkpt><trkpt lat="30.1082681771" lon="35.3898669686"><ele>1200.34</ele><time>2015-11-26T07:32:51Z</time></trkpt><trkpt lat="30.1080865413" lon="35.3895658068"><ele>1198.90</ele><time>2015-11-26T07:33:04Z</time></trkpt><trkpt lat="30.1078743953" lon="35.3891182970"><ele>1196.98</ele><time>2015-11-26T07:33:14Z</time></trkpt><trkpt lat="30.1078660972" lon="35.3891111724"><ele>1196.50</ele><time>2015-11-26T07:33:21Z</time></trkpt><trkpt lat="30.1078554522" lon="35.3891016170"><ele>1196.98</ele><time>2015-11-26T07:33:22Z</time></trkpt><trkpt lat="30.1078295521" lon="35.3890812490"><ele>1196.98</ele><time>2015-11-26T07:33:25Z</time></trkpt><trkpt lat="30.1078199968" lon="35.3890765551"><ele>1196.98</ele><time>2015-11-26T07:33:26Z</time></trkpt><trkpt lat="30.1078103576" lon="35.3890691791"><ele>1196.98</ele><time>2015-11-26T07:33:27Z</time></trkpt><trkpt lat="30.1077995449" lon="35.3890631441"><ele>1196.98</ele><time>2015-11-26T07:33:28Z</time></trkpt><trkpt lat="30.1077986229" lon="35.3890544269"><ele>1196.98</ele><time>2015-11-26T07:33:39Z</time></trkpt><trkpt lat="30.1077981200" lon="35.3890618868"><ele>1196.98</ele><time>2015-11-26T07:34:03Z</time></trkpt><trkpt lat="30.1077908278" lon="35.3890332207"><ele>1196.50</ele><time>2015-11-26T07:34:36Z</time></trkpt><trkpt lat="30.1077852119" lon="35.3890191391"><ele>1196.98</ele><time>2015-11-26T07:34:37Z</time></trkpt><trkpt lat="30.1076784264" lon="35.3887484036"><ele>1196.98</ele><time>2015-11-26T07:34:50Z</time></trkpt><trkpt lat="30.1075115427" lon="35.3883266263"><ele>1196.98</ele><time>2015-11-26T07:35:05Z</time></trkpt><trkpt lat="30.1073004026" lon="35.3877310921"><ele>1193.13</ele><time>2015-11-26T07:35:18Z</time></trkpt><trkpt lat="30.1071025059" lon="35.3872494679"><ele>1189.77</ele><time>2015-11-26T07:35:24Z</time></trkpt><trkpt lat="30.1070273202" lon="35.3870680835"><ele>1189.29</ele><time>2015-11-26T07:35:26Z</time></trkpt><trkpt lat="30.1068677288" lon="35.3866692726"><ele>1185.92</ele><time>2015-11-26T07:35:30Z</time></trkpt><trkpt lat="30.1066904515" lon="35.3862219304"><ele>1182.56</ele><time>2015-11-26T07:35:34Z</time></trkpt><trkpt lat="30.1062374096" lon="35.3850856796"><ele>1183.04</ele><time>2015-11-26T07:35:46Z</time></trkpt><trkpt lat="30.1061347313" lon="35.3848451190"><ele>1183.52</ele><time>2015-11-26T07:35:50Z</time></trkpt><trkpt lat="30.1060110144" lon="35.3845292050"><ele>1183.52</ele><time>2015-11-26T07:35:56Z</time></trkpt><trkpt lat="30.1059956755" lon="35.3844753932"><ele>1183.52</ele><time>2015-11-26T07:35:57Z</time></trkpt><trkpt lat="30.1058807597" lon="35.3840857185"><ele>1181.12</ele><time>2015-11-26T07:36:03Z</time></trkpt><trkpt lat="30.1058491599" lon="35.3840134665"><ele>1180.64</ele><time>2015-11-26T07:36:04Z</time></trkpt><trkpt lat="30.1058119442" lon="35.3839464951"><ele>1180.64</ele><time>2015-11-26T07:36:05Z</time></trkpt><trkpt lat="30.1055673603" lon="35.3835483547"><ele>1178.71</ele><time>2015-11-26T07:36:11Z</time></trkpt><trkpt lat="30.1054517739" lon="35.3833303414"><ele>1178.23</ele><time>2015-11-26T07:36:14Z</time></trkpt><trkpt lat="30.1054097805" lon="35.3832719196"><ele>1178.23</ele><time>2015-11-26T07:36:15Z</time></trkpt><trkpt lat="30.1053651050" lon="35.3832222149"><ele>1177.75</ele><time>2015-11-26T07:36:16Z</time></trkpt><trkpt lat="30.1053182501" lon="35.3831787966"><ele>1178.23</ele><time>2015-11-26T07:36:17Z</time></trkpt><trkpt lat="30.1052694675" lon="35.3831417486"><ele>1178.23</ele><time>2015-11-26T07:36:18Z</time></trkpt><trkpt lat="30.1052194275" lon="35.3831072152"><ele>1177.75</ele><time>2015-11-26T07:36:19Z</time></trkpt><trkpt lat="30.1046670601" lon="35.3827877808"><ele>1174.39</ele><time>2015-11-26T07:36:29Z</time></trkpt><trkpt lat="30.1043397468" lon="35.3826190531"><ele>1171.02</ele><time>2015-11-26T07:36:33Z</time></trkpt><trkpt lat="30.1042526588" lon="35.3825717792"><ele>1171.02</ele><time>2015-11-26T07:36:34Z</time></trkpt><trkpt lat="30.1036117785" lon="35.3820641711"><ele>1168.62</ele><time>2015-11-26T07:36:44Z</time></trkpt><trkpt lat="30.1035624929" lon="35.3819934279"><ele>1168.62</ele><time>2015-11-26T07:36:45Z</time></trkpt><trkpt lat="30.1035178173" lon="35.3819154762"><ele>1167.66</ele><time>2015-11-26T07:36:46Z</time></trkpt><trkpt lat="30.1034766622" lon="35.3818319086"><ele>1167.18</ele><time>2015-11-26T07:36:47Z</time></trkpt><trkpt lat="30.1034423802" lon="35.3817428928"><ele>1166.22</ele><time>2015-11-26T07:36:48Z</time></trkpt><trkpt lat="30.1034107804" lon="35.3816526197"><ele>1165.26</ele><time>2015-11-26T07:36:49Z</time></trkpt><trkpt lat="30.1033814438" lon="35.3815686330"><ele>1165.26</ele><time>2015-11-26T07:36:50Z</time></trkpt><trkpt lat="30.1031703874" lon="35.3809985798"><ele>1162.85</ele><time>2015-11-26T07:37:00Z</time></trkpt><trkpt lat="30.1031049248" lon="35.3808410838"><ele>1162.85</ele><time>2015-11-26T07:37:04Z</time></trkpt><trkpt lat="30.1030918490" lon="35.3807959892"><ele>1162.37</ele><time>2015-11-26T07:37:05Z</time></trkpt><trkpt lat="30.1030676253" lon="35.3806974180"><ele>1161.89</ele><time>2015-11-26T07:37:07Z</time></trkpt><trkpt lat="30.1028092951" lon="35.3799504228"><ele>1158.53</ele><time>2015-11-26T07:37:19Z</time></trkpt><trkpt lat="30.1027124841" lon="35.3796624206"><ele>1155.64</ele><time>2015-11-26T07:37:22Z</time></trkpt><trkpt lat="30.1026393939" lon="35.3794476762"><ele>1154.68</ele><time>2015-11-26T07:37:24Z</time></trkpt><trkpt lat="30.1022651419" lon="35.3784007765"><ele>1153.24</ele><time>2015-11-26T07:37:35Z</time></trkpt><trkpt lat="30.1021313667" lon="35.3780772351"><ele>1154.20</ele><time>2015-11-26T07:37:40Z</time></trkpt><trkpt lat="30.1016919035" lon="35.3775811102"><ele>1155.64</ele><time>2015-11-26T07:37:54Z</time></trkpt><trkpt lat="30.1009980496" lon="35.3771404736"><ele>1156.12</ele><time>2015-11-26T07:38:15Z</time></trkpt><trkpt lat="30.1008054335" lon="35.3769625258"><ele>1155.64</ele><time>2015-11-26T07:38:22Z</time></trkpt><trkpt lat="30.1007843111" lon="35.3769187722"><ele>1154.68</ele><time>2015-11-26T07:38:23Z</time></trkpt><trkpt lat="30.1006916910" lon="35.3766798042"><ele>1152.76</ele><time>2015-11-26T07:38:27Z</time></trkpt><trkpt lat="30.1006087940" lon="35.3763211425"><ele>1149.39</ele><time>2015-11-26T07:38:31Z</time></trkpt><trkpt lat="30.1004778687" lon="35.3757189866"><ele>1146.51</ele><time>2015-11-26T07:38:37Z</time></trkpt><trkpt lat="30.1004387252" lon="35.3755137976"><ele>1146.03</ele><time>2015-11-26T07:38:39Z</time></trkpt><trkpt lat="30.1004136633" lon="35.3754174057"><ele>1146.03</ele><time>2015-11-26T07:38:40Z</time></trkpt><trkpt lat="30.1003995817" lon="35.3753197566"><ele>1145.07</ele><time>2015-11-26T07:38:41Z</time></trkpt><trkpt lat="30.1003784593" lon="35.3752184194"><ele>1145.07</ele><time>2015-11-26T07:38:42Z</time></trkpt><trkpt lat="30.1003555767" lon="35.3751120530"><ele>1143.63</ele><time>2015-11-26T07:38:43Z</time></trkpt><trkpt lat="30.1003368851" lon="35.3750002384"><ele>1142.66</ele><time>2015-11-26T07:38:44Z</time></trkpt><trkpt lat="30.1003198698" lon="35.3748853225"><ele>1142.18</ele><time>2015-11-26T07:38:45Z</time></trkpt><trkpt lat="30.0999883655" lon="35.3739934880"><ele>1139.78</ele><time>2015-11-26T07:38:54Z</time></trkpt><trkpt lat="30.0998643972" lon="35.3738488164"><ele>1139.30</ele><time>2015-11-26T07:38:56Z</time></trkpt><trkpt lat="30.0997974258" lon="35.3737867065"><ele>1139.30</ele><time>2015-11-26T07:38:57Z</time></trkpt><trkpt lat="30.0997297000" lon="35.3737379238"><ele>1139.30</ele><time>2015-11-26T07:38:58Z</time></trkpt><trkpt lat="30.0996644050" lon="35.3737025522"><ele>1139.30</ele><time>2015-11-26T07:38:59Z</time></trkpt><trkpt lat="30.0996010378" lon="35.3736747243"><ele>1140.26</ele><time>2015-11-26T07:39:00Z</time></trkpt><trkpt lat="30.0995422807" lon="35.3736571223"><ele>1141.22</ele><time>2015-11-26T07:39:01Z</time></trkpt><trkpt lat="30.0994873792" lon="35.3736426216"><ele>1141.22</ele><time>2015-11-26T07:39:02Z</time></trkpt><trkpt lat="30.0993868802" lon="35.3736141231"><ele>1141.70</ele><time>2015-11-26T07:39:04Z</time></trkpt><trkpt lat="30.0992961880" lon="35.3735733032"><ele>1141.70</ele><time>2015-11-26T07:39:06Z</time></trkpt><trkpt lat="30.0992557034" lon="35.3735452238"><ele>1141.70</ele><time>2015-11-26T07:39:07Z</time></trkpt><trkpt lat="30.0992189907" lon="35.3735097684"><ele>1141.70</ele><time>2015-11-26T07:39:08Z</time></trkpt><trkpt lat="30.0991817750" lon="35.3734679427"><ele>1141.22</ele><time>2015-11-26T07:39:09Z</time></trkpt><trkpt lat="30.0991508458" lon="35.3734238539"><ele>1141.22</ele><time>2015-11-26T07:39:10Z</time></trkpt><trkpt lat="30.0991208386" lon="35.3733769991"><ele>1141.22</ele><time>2015-11-26T07:39:11Z</time></trkpt><trkpt lat="30.0990946032" lon="35.3733265400"><ele>1141.22</ele><time>2015-11-26T07:39:12Z</time></trkpt><trkpt lat="30.0990742352" lon="35.3732722253"><ele>1140.74</ele><time>2015-11-26T07:39:13Z</time></trkpt><trkpt lat="30.0989875663" lon="35.3730037529"><ele>1140.74</ele><time>2015-11-26T07:39:18Z</time></trkpt><trkpt lat="30.0989788491" lon="35.3729552217"><ele>1140.26</ele><time>2015-11-26T07:39:19Z</time></trkpt><trkpt lat="30.0989741553" lon="35.3722757008"><ele>1138.34</ele><time>2015-11-26T07:39:33Z</time></trkpt><trkpt lat="30.0989830401" lon="35.3722209670"><ele>1138.34</ele><time>2015-11-26T07:39:34Z</time></trkpt><trkpt lat="30.0991179049" lon="35.3713117819"><ele>1134.97</ele><time>2015-11-26T07:39:47Z</time></trkpt><trkpt lat="30.0991760753" lon="35.3708991408"><ele>1130.65</ele><time>2015-11-26T07:39:51Z</time></trkpt><trkpt lat="30.0991638377" lon="35.3704547323"><ele>1129.69</ele><time>2015-11-26T07:39:55Z</time></trkpt><trkpt lat="30.0991392788" lon="35.3703495394"><ele>1129.21</ele><time>2015-11-26T07:39:56Z</time></trkpt><trkpt lat="30.0991023146" lon="35.3702512197"><ele>1128.73</ele><time>2015-11-26T07:39:57Z</time></trkpt><trkpt lat="30.0990542863" lon="35.3701591864"><ele>1128.73</ele><time>2015-11-26T07:39:58Z</time></trkpt><trkpt lat="30.0989958644" lon="35.3700790554"><ele>1128.24</ele><time>2015-11-26T07:39:59Z</time></trkpt><trkpt lat="30.0989290606" lon="35.3700101562"><ele>1128.24</ele><time>2015-11-26T07:40:00Z</time></trkpt><trkpt lat="30.0988609996" lon="35.3699495550"><ele>1128.24</ele><time>2015-11-26T07:40:01Z</time></trkpt><trkpt lat="30.0982200354" lon="35.3693956789"><ele>1129.69</ele><time>2015-11-26T07:40:13Z</time></trkpt><trkpt lat="30.0979460310" lon="35.3691313136"><ele>1131.61</ele><time>2015-11-26T07:40:24Z</time></trkpt><trkpt lat="30.0977167860" lon="35.3688335884"><ele>1133.05</ele><time>2015-11-26T07:40:35Z</time></trkpt><trkpt lat="30.0974667538" lon="35.3683022596"><ele>1134.49</ele><time>2015-11-26T07:40:53Z</time></trkpt><trkpt lat="30.0973365828" lon="35.3678756207"><ele>1133.53</ele><time>2015-11-26T07:41:03Z</time></trkpt><trkpt lat="30.0972886384" lon="35.3676286899"><ele>1132.09</ele><time>2015-11-26T07:41:07Z</time></trkpt><trkpt lat="30.0972486567" lon="35.3672540188"><ele>1128.24</ele><time>2015-11-26T07:41:11Z</time></trkpt><trkpt lat="30.0972128659" lon="35.3668838739"><ele>1124.88</ele><time>2015-11-26T07:41:14Z</time></trkpt><trkpt lat="30.0972188171" lon="35.3663151618"><ele>1121.52</ele><time>2015-11-26T07:41:18Z</time></trkpt><trkpt lat="30.0972394366" lon="35.3661759384"><ele>1121.52</ele><time>2015-11-26T07:41:19Z</time></trkpt><trkpt lat="30.0975336414" lon="35.3652216587"><ele>1124.40</ele><time>2015-11-26T07:41:28Z</time></trkpt><trkpt lat="30.0976499822" lon="35.3649853729"><ele>1126.80</ele><time>2015-11-26T07:41:32Z</time></trkpt><trkpt lat="30.0977121759" lon="35.3648882266"><ele>1127.28</ele><time>2015-11-26T07:41:34Z</time></trkpt><trkpt lat="30.0977762137" lon="35.3648137115"><ele>1127.76</ele><time>2015-11-26T07:41:36Z</time></trkpt><trkpt lat="30.0978099089" lon="35.3647839557"><ele>1128.24</ele><time>2015-11-26T07:41:37Z</time></trkpt><trkpt lat="30.0978763774" lon="35.3647324909"><ele>1128.73</ele><time>2015-11-26T07:41:39Z</time></trkpt><trkpt lat="30.0984681398" lon="35.3646166530"><ele>1129.21</ele><time>2015-11-26T07:41:54Z</time></trkpt><trkpt lat="30.0985941198" lon="35.3645999730"><ele>1129.21</ele><time>2015-11-26T07:41:58Z</time></trkpt><trkpt lat="30.0986120570" lon="35.3645835444"><ele>1129.21</ele><time>2015-11-26T07:41:59Z</time></trkpt><trkpt lat="30.0985367876" lon="35.3645636793"><ele>1129.21</ele><time>2015-11-26T07:42:07Z</time></trkpt><trkpt lat="30.0984512921" lon="35.3645718098"><ele>1129.69</ele><time>2015-11-26T07:42:12Z</time></trkpt><trkpt lat="30.0984308403" lon="35.3645731509"><ele>1129.21</ele><time>2015-11-26T07:42:13Z</time></trkpt><trkpt lat="30.0984095503" lon="35.3645776771"><ele>1129.69</ele><time>2015-11-26T07:42:14Z</time></trkpt><trkpt lat="30.0983872544" lon="35.3645796049"><ele>1129.69</ele><time>2015-11-26T07:42:15Z</time></trkpt><trkpt lat="30.0983635336" lon="35.3645761684"><ele>1129.69</ele><time>2015-11-26T07:42:16Z</time></trkpt><trkpt lat="30.0983412378" lon="35.3645743243"><ele>1129.69</ele><time>2015-11-26T07:42:17Z</time></trkpt><trkpt lat="30.0983205345" lon="35.3645798564"><ele>1129.69</ele><time>2015-11-26T07:42:18Z</time></trkpt><trkpt lat="30.0983002502" lon="35.3645858914"><ele>1129.69</ele><time>2015-11-26T07:42:19Z</time></trkpt><trkpt lat="30.0979938917" lon="35.3646454029"><ele>1129.21</ele><time>2015-11-26T07:42:31Z</time></trkpt><trkpt lat="30.0976296142" lon="35.3649014700"><ele>1128.24</ele><time>2015-11-26T07:42:44Z</time></trkpt><trkpt lat="30.0975797419" lon="35.3649769910"><ele>1127.76</ele><time>2015-11-26T07:42:46Z</time></trkpt><trkpt lat="30.0975159556" lon="35.3651157115"><ele>1126.32</ele><time>2015-11-26T07:42:49Z</time></trkpt><trkpt lat="30.0973655842" lon="35.3655047994"><ele>1122.96</ele><time>2015-11-26T07:42:57Z</time></trkpt><trkpt lat="30.0973447971" lon="35.3655512352"><ele>1122.48</ele><time>2015-11-26T07:42:59Z</time></trkpt><trkpt lat="30.0973327272" lon="35.3655577730"><ele>1122.48</ele><time>2015-11-26T07:43:00Z</time></trkpt><trkpt lat="30.0972108543" lon="35.3654286917"><ele>1120.55</ele><time>2015-11-26T07:43:09Z</time></trkpt><trkpt lat="30.0971241854" lon="35.3655272629"><ele>1119.11</ele><time>2015-11-26T07:43:15Z</time></trkpt><trkpt lat="30.0971392728" lon="35.3657260817"><ele>1116.71</ele><time>2015-11-26T07:43:20Z</time></trkpt><trkpt lat="30.0971360877" lon="35.3657895327"><ele>1115.27</ele><time>2015-11-26T07:43:21Z</time></trkpt><trkpt lat="30.0971191563" lon="35.3658594377"><ele>1114.79</ele><time>2015-11-26T07:43:22Z</time></trkpt><trkpt lat="30.0970965251" lon="35.3659313545"><ele>1114.79</ele><time>2015-11-26T07:43:23Z</time></trkpt><trkpt lat="30.0969278812" lon="35.3663189337"><ele>1114.31</ele><time>2015-11-26T07:43:30Z</time></trkpt><trkpt lat="30.0967391208" lon="35.3662673850"><ele>1114.79</ele><time>2015-11-26T07:43:37Z</time></trkpt><trkpt lat="30.0966503564" lon="35.3661048599"><ele>1116.23</ele><time>2015-11-26T07:43:46Z</time></trkpt><trkpt lat="30.0963275693" lon="35.3660244774"><ele>1118.15</ele><time>2015-11-26T07:44:02Z</time></trkpt><trkpt lat="30.0960322749" lon="35.3657596931"><ele>1119.59</ele><time>2015-11-26T07:44:16Z</time></trkpt><trkpt lat="30.0959155988" lon="35.3655058891"><ele>1121.52</ele><time>2015-11-26T07:44:29Z</time></trkpt><trkpt lat="30.0957632158" lon="35.3652716987"><ele>1121.52</ele><time>2015-11-26T07:44:43Z</time></trkpt><trkpt lat="30.0957389921" lon="35.3652488161"><ele>1121.52</ele><time>2015-11-26T07:44:44Z</time></trkpt><trkpt lat="30.0954928994" lon="35.3651509993"><ele>1119.11</ele><time>2015-11-26T07:44:49Z</time></trkpt><trkpt lat="30.0953178015" lon="35.3650581278"><ele>1117.19</ele><time>2015-11-26T07:44:52Z</time></trkpt><trkpt lat="30.0952833518" lon="35.3650038131"><ele>1116.71</ele><time>2015-11-26T07:44:53Z</time></trkpt><trkpt lat="30.0950391032" lon="35.3647392802"><ele>1119.11</ele><time>2015-11-26T07:45:04Z</time></trkpt><trkpt lat="30.0946044177" lon="35.3644814529"><ele>1118.15</ele><time>2015-11-26T07:45:20Z</time></trkpt><trkpt lat="30.0941197760" lon="35.3642524593"><ele>1117.67</ele><time>2015-11-26T07:45:34Z</time></trkpt><trkpt lat="30.0935721025" lon="35.3641905170"><ele>1117.67</ele><time>2015-11-26T07:45:50Z</time></trkpt><trkpt lat="30.0930932444" lon="35.3641240485"><ele>1116.71</ele><time>2015-11-26T07:46:02Z</time></trkpt><trkpt lat="30.0926909130" lon="35.3640910238"><ele>1115.75</ele><time>2015-11-26T07:46:12Z</time></trkpt><trkpt lat="30.0923410524" lon="35.3640544787"><ele>1117.19</ele><time>2015-11-26T07:46:25Z</time></trkpt><trkpt lat="30.0923251268" lon="35.3640521318"><ele>1117.19</ele><time>2015-11-26T07:46:26Z</time></trkpt><trkpt lat="30.0922553055" lon="35.3640797082"><ele>1117.67</ele><time>2015-11-26T07:46:31Z</time></trkpt><trkpt lat="30.0919710752" lon="35.3641466796"><ele>1119.11</ele><time>2015-11-26T07:46:47Z</time></trkpt><trkpt lat="30.0916890241" lon="35.3641843982"><ele>1120.07</ele><time>2015-11-26T07:47:01Z</time></trkpt><trkpt lat="30.0913608726" lon="35.3642204404"><ele>1120.55</ele><time>2015-11-26T07:47:15Z</time></trkpt><trkpt lat="30.0909990259" lon="35.3642439935"><ele>1122.00</ele><time>2015-11-26T07:47:31Z</time></trkpt><trkpt lat="30.0907007139" lon="35.3642957099"><ele>1121.52</ele><time>2015-11-26T07:47:43Z</time></trkpt><trkpt lat="30.0904010609" lon="35.3643399663"><ele>1119.59</ele><time>2015-11-26T07:47:54Z</time></trkpt><trkpt lat="30.0902259629" lon="35.3644562233"><ele>1120.55</ele><time>2015-11-26T07:48:05Z</time></trkpt><trkpt lat="30.0902000628" lon="35.3644678742"><ele>1120.55</ele><time>2015-11-26T07:48:07Z</time></trkpt><trkpt lat="30.0901326723" lon="35.3644639347"><ele>1121.03</ele><time>2015-11-26T07:48:11Z</time></trkpt><trkpt lat="30.0899097137" lon="35.3643770143"><ele>1122.48</ele><time>2015-11-26T07:48:27Z</time></trkpt><trkpt lat="30.0896442588" lon="35.3642223682"><ele>1122.96</ele><time>2015-11-26T07:48:41Z</time></trkpt><trkpt lat="30.0893113296" lon="35.3641534690"><ele>1125.36</ele><time>2015-11-26T07:48:56Z</time></trkpt><trkpt lat="30.0889422745" lon="35.3640459292"><ele>1126.32</ele><time>2015-11-26T07:49:12Z</time></trkpt><trkpt lat="30.0886564516" lon="35.3642705642"><ele>1126.80</ele><time>2015-11-26T07:49:26Z</time></trkpt><trkpt lat="30.0885658432" lon="35.3646679502"><ele>1125.36</ele><time>2015-11-26T07:49:39Z</time></trkpt><trkpt lat="30.0884441379" lon="35.3648804314"><ele>1126.32</ele><time>2015-11-26T07:49:49Z</time></trkpt><trkpt lat="30.0882704649" lon="35.3651507478"><ele>1127.76</ele><time>2015-11-26T07:50:05Z</time></trkpt><trkpt lat="30.0882357638" lon="35.3651968483"><ele>1127.76</ele><time>2015-11-26T07:50:08Z</time></trkpt><trkpt lat="30.0881475024" lon="35.3653139435"><ele>1128.24</ele><time>2015-11-26T07:50:17Z</time></trkpt><trkpt lat="30.0881008152" lon="35.3653704375"><ele>1128.24</ele><time>2015-11-26T07:50:21Z</time></trkpt><trkpt lat="30.0879580714" lon="35.3655553423"><ele>1129.21</ele><time>2015-11-26T07:50:32Z</time></trkpt><trkpt lat="30.0878839754" lon="35.3656109981"><ele>1129.69</ele><time>2015-11-26T07:50:37Z</time></trkpt><trkpt lat="30.0876779482" lon="35.3658258263"><ele>1130.65</ele><time>2015-11-26T07:50:52Z</time></trkpt><trkpt lat="30.0874815602" lon="35.3661381360"><ele>1130.65</ele><time>2015-11-26T07:51:07Z</time></trkpt><trkpt lat="30.0873610284" lon="35.3662887588"><ele>1132.09</ele><time>2015-11-26T07:51:19Z</time></trkpt><trkpt lat="30.0872132555" lon="35.3665767610"><ele>1133.05</ele><time>2015-11-26T07:51:35Z</time></trkpt><trkpt lat="30.0870971661" lon="35.3668991290"><ele>1133.05</ele><time>2015-11-26T07:51:48Z</time></trkpt><trkpt lat="30.0869889557" lon="35.3670505062"><ele>1133.53</ele><time>2015-11-26T07:51:57Z</time></trkpt><trkpt lat="30.0867960043" lon="35.3672722913"><ele>1135.45</ele><time>2015-11-26T07:52:13Z</time></trkpt><trkpt lat="30.0866395142" lon="35.3675620537"><ele>1136.42</ele><time>2015-11-26T07:52:29Z</time></trkpt><trkpt lat="30.0865648314" lon="35.3678186238"><ele>1136.42</ele><time>2015-11-26T07:52:43Z</time></trkpt><trkpt lat="30.0864235125" lon="35.3680708352"><ele>1136.42</ele><time>2015-11-26T07:52:55Z</time></trkpt><trkpt lat="30.0861513522" lon="35.3682133276"><ele>1136.42</ele><time>2015-11-26T07:53:10Z</time></trkpt><trkpt lat="30.0858623441" lon="35.3683366254"><ele>1138.34</ele><time>2015-11-26T07:53:26Z</time></trkpt><trkpt lat="30.0856909342" lon="35.3685154114"><ele>1139.30</ele><time>2015-11-26T07:53:39Z</time></trkpt><trkpt lat="30.0854735076" lon="35.3686762601"><ele>1139.30</ele><time>2015-11-26T07:53:55Z</time></trkpt><trkpt lat="30.0853006728" lon="35.3688159864"><ele>1139.30</ele><time>2015-11-26T07:54:07Z</time></trkpt><trkpt lat="30.0852099806" lon="35.3689257056"><ele>1139.78</ele><time>2015-11-26T07:54:15Z</time></trkpt><trkpt lat="30.0851672329" lon="35.3689894918"><ele>1140.26</ele><time>2015-11-26T07:54:19Z</time></trkpt><trkpt lat="30.0850488804" lon="35.3692087624"><ele>1141.22</ele><time>2015-11-26T07:54:32Z</time></trkpt><trkpt lat="30.0849263370" lon="35.3694397677"><ele>1143.63</ele><time>2015-11-26T07:54:48Z</time></trkpt><trkpt lat="30.0847747922" lon="35.3696067352"><ele>1145.07</ele><time>2015-11-26T07:55:02Z</time></trkpt><trkpt lat="30.0845273584" lon="35.3696739580"><ele>1145.07</ele><time>2015-11-26T07:55:14Z</time></trkpt><trkpt lat="30.0841525197" lon="35.3696472198"><ele>1145.07</ele><time>2015-11-26T07:55:29Z</time></trkpt><trkpt lat="30.0838205963" lon="35.3695443738"><ele>1145.07</ele><time>2015-11-26T07:55:42Z</time></trkpt><trkpt lat="30.0835416466" lon="35.3695219103"><ele>1146.03</ele><time>2015-11-26T07:55:55Z</time></trkpt><trkpt lat="30.0833263993" lon="35.3695024643"><ele>1147.47</ele><time>2015-11-26T07:56:06Z</time></trkpt><trkpt lat="30.0831023511" lon="35.3695087507"><ele>1148.91</ele><time>2015-11-26T07:56:21Z</time></trkpt><trkpt lat="30.0828535762" lon="35.3697291948"><ele>1148.43</ele><time>2015-11-26T07:56:36Z</time></trkpt><trkpt lat="30.0826875307" lon="35.3698755428"><ele>1148.91</ele><time>2015-11-26T07:56:49Z</time></trkpt><trkpt lat="30.0826503150" lon="35.3699011914"><ele>1148.91</ele><time>2015-11-26T07:56:52Z</time></trkpt><trkpt lat="30.0825783145" lon="35.3699341323"><ele>1149.39</ele><time>2015-11-26T07:56:57Z</time></trkpt><trkpt lat="30.0823007058" lon="35.3699114174"><ele>1150.35</ele><time>2015-11-26T07:57:13Z</time></trkpt><trkpt lat="30.0822827686" lon="35.3698999342"><ele>1150.35</ele><time>2015-11-26T07:57:14Z</time></trkpt><trkpt lat="30.0820588879" lon="35.3698173724"><ele>1152.28</ele><time>2015-11-26T07:57:28Z</time></trkpt><trkpt lat="30.0819938444" lon="35.3697885387"><ele>1152.28</ele><time>2015-11-26T07:57:32Z</time></trkpt><trkpt lat="30.0818942674" lon="35.3697489761"><ele>1152.76</ele><time>2015-11-26T07:57:38Z</time></trkpt><trkpt lat="30.0818056706" lon="35.3697121795"><ele>1152.76</ele><time>2015-11-26T07:57:44Z</time></trkpt><trkpt lat="30.0814783573" lon="35.3696125187"><ele>1153.24</ele><time>2015-11-26T07:57:59Z</time></trkpt><trkpt lat="30.0811878406" lon="35.3694496583"><ele>1154.68</ele><time>2015-11-26T07:58:13Z</time></trkpt><trkpt lat="30.0809310190" lon="35.3692406137"><ele>1155.64</ele><time>2015-11-26T07:58:29Z</time></trkpt><trkpt lat="30.0808440149" lon="35.3691324033"><ele>1156.12</ele><time>2015-11-26T07:58:38Z</time></trkpt><trkpt lat="30.0807130057" lon="35.3690279648"><ele>1156.12</ele><time>2015-11-26T07:58:47Z</time></trkpt><trkpt lat="30.0805809908" lon="35.3690033220"><ele>1157.08</ele><time>2015-11-26T07:58:55Z</time></trkpt><trkpt lat="30.0802367460" lon="35.3688205127"><ele>1159.49</ele><time>2015-11-26T07:59:14Z</time></trkpt><trkpt lat="30.0799846184" lon="35.3687096201"><ele>1161.89</ele><time>2015-11-26T07:59:29Z</time></trkpt><trkpt lat="30.0797531940" lon="35.3686056007"><ele>1163.33</ele><time>2015-11-26T07:59:44Z</time></trkpt><trkpt lat="30.0794905052" lon="35.3684864100"><ele>1164.77</ele><time>2015-11-26T08:00:00Z</time></trkpt><trkpt lat="30.0793843903" lon="35.3684301674"><ele>1165.26</ele><time>2015-11-26T08:00:07Z</time></trkpt><trkpt lat="30.0792198535" lon="35.3683305066"><ele>1166.22</ele><time>2015-11-26T08:00:18Z</time></trkpt><trkpt lat="30.0789710786" lon="35.3681408241"><ele>1168.14</ele><time>2015-11-26T08:00:33Z</time></trkpt><trkpt lat="30.0787681527" lon="35.3679681569"><ele>1170.06</ele><time>2015-11-26T08:00:48Z</time></trkpt><trkpt lat="30.0785385724" lon="35.3677519038"><ele>1172.47</ele><time>2015-11-26T08:01:06Z</time></trkpt><trkpt lat="30.0783120096" lon="35.3675104212"><ele>1174.39</ele><time>2015-11-26T08:01:25Z</time></trkpt><trkpt lat="30.0780421123" lon="35.3673163801"><ele>1174.87</ele><time>2015-11-26T08:01:41Z</time></trkpt><trkpt lat="30.0777866319" lon="35.3670179006"><ele>1177.27</ele><time>2015-11-26T08:01:58Z</time></trkpt><trkpt lat="30.0776316505" lon="35.3667556308"><ele>1179.19</ele><time>2015-11-26T08:02:14Z</time></trkpt><trkpt lat="30.0774718914" lon="35.3665237036"><ele>1181.12</ele><time>2015-11-26T08:02:29Z</time></trkpt><trkpt lat="30.0773256272" lon="35.3663356137"><ele>1182.56</ele><time>2015-11-26T08:02:42Z</time></trkpt><trkpt lat="30.0771071110" lon="35.3661055304"><ele>1184.00</ele><time>2015-11-26T08:02:58Z</time></trkpt><trkpt lat="30.0768622756" lon="35.3658994194"><ele>1184.00</ele><time>2015-11-26T08:03:11Z</time></trkpt><trkpt lat="30.0765796378" lon="35.3656326234"><ele>1184.48</ele><time>2015-11-26T08:03:25Z</time></trkpt><trkpt lat="30.0763047952" lon="35.3652745485"><ele>1185.44</ele><time>2015-11-26T08:03:41Z</time></trkpt><trkpt lat="30.0761054736" lon="35.3649660107"><ele>1186.88</ele><time>2015-11-26T08:03:53Z</time></trkpt><trkpt lat="30.0758848619" lon="35.3647670243"><ele>1188.33</ele><time>2015-11-26T08:04:07Z</time></trkpt><trkpt lat="30.0756173115" lon="35.3646258730"><ele>1189.29</ele><time>2015-11-26T08:04:20Z</time></trkpt><trkpt lat="30.0752603263" lon="35.3644377831"><ele>1191.69</ele><time>2015-11-26T08:04:39Z</time></trkpt><trkpt lat="30.0751055125" lon="35.3643949516"><ele>1192.65</ele><time>2015-11-26T08:04:48Z</time></trkpt><trkpt lat="30.0748343579" lon="35.3643295728"><ele>1193.61</ele><time>2015-11-26T08:05:03Z</time></trkpt><trkpt lat="30.0745328609" lon="35.3642627690"><ele>1194.58</ele><time>2015-11-26T08:05:17Z</time></trkpt><trkpt lat="30.0742472894" lon="35.3642656188"><ele>1196.02</ele><time>2015-11-26T08:05:31Z</time></trkpt><trkpt lat="30.0740082376" lon="35.3642627690"><ele>1197.46</ele><time>2015-11-26T08:05:46Z</time></trkpt><trkpt lat="30.0737442076" lon="35.3641543072"><ele>1198.42</ele><time>2015-11-26T08:06:02Z</time></trkpt><trkpt lat="30.0734102726" lon="35.3640098870"><ele>1200.34</ele><time>2015-11-26T08:06:20Z</time></trkpt><trkpt lat="30.0733918324" lon="35.3640031815"><ele>1200.82</ele><time>2015-11-26T08:06:21Z</time></trkpt><trkpt lat="30.0731630065" lon="35.3639436699"><ele>1202.27</ele><time>2015-11-26T08:06:35Z</time></trkpt><trkpt lat="30.0729287323" lon="35.3638301790"><ele>1203.23</ele><time>2015-11-26T08:06:49Z</time></trkpt><trkpt lat="30.0726786163" lon="35.3636912908"><ele>1205.15</ele><time>2015-11-26T08:07:04Z</time></trkpt><trkpt lat="30.0724647939" lon="35.3635795601"><ele>1207.55</ele><time>2015-11-26T08:07:19Z</time></trkpt><trkpt lat="30.0723244809" lon="35.3634883650"><ele>1209.00</ele><time>2015-11-26T08:07:30Z</time></trkpt><trkpt lat="30.0722487923" lon="35.3634162806"><ele>1209.48</ele><time>2015-11-26T08:07:37Z</time></trkpt><trkpt lat="30.0721948966" lon="35.3633793164"><ele>1209.96</ele><time>2015-11-26T08:07:46Z</time></trkpt><trkpt lat="30.0721818209" lon="35.3633694258"><ele>1209.96</ele><time>2015-11-26T08:07:48Z</time></trkpt><trkpt lat="30.0720676593" lon="35.3632728662"><ele>1211.40</ele><time>2015-11-26T08:07:59Z</time></trkpt><trkpt lat="30.0718805753" lon="35.3631049767"><ele>1213.32</ele><time>2015-11-26T08:08:15Z</time></trkpt><trkpt lat="30.0716811698" lon="35.3629864566"><ele>1215.72</ele><time>2015-11-26T08:08:31Z</time></trkpt><trkpt lat="30.0716094207" lon="35.3629423678"><ele>1217.17</ele><time>2015-11-26T08:08:37Z</time></trkpt><trkpt lat="30.0715510827" lon="35.3629192337"><ele>1217.17</ele><time>2015-11-26T08:08:42Z</time></trkpt><trkpt lat="30.0715025514" lon="35.3629038110"><ele>1217.17</ele><time>2015-11-26T08:08:46Z</time></trkpt><trkpt lat="30.0714624021" lon="35.3628962673"><ele>1217.17</ele><time>2015-11-26T08:08:50Z</time></trkpt><trkpt lat="30.0714072492" lon="35.3628733009"><ele>1217.17</ele><time>2015-11-26T08:08:55Z</time></trkpt><trkpt lat="30.0713264477" lon="35.3627590556"><ele>1217.17</ele><time>2015-11-26T08:09:03Z</time></trkpt><trkpt lat="30.0712018926" lon="35.3626651783"><ele>1220.05</ele><time>2015-11-26T08:09:12Z</time></trkpt><trkpt lat="30.0711173192" lon="35.3626623284"><ele>1221.49</ele><time>2015-11-26T08:09:18Z</time></trkpt><trkpt lat="30.0709063467" lon="35.3626316506"><ele>1223.90</ele><time>2015-11-26T08:09:33Z</time></trkpt><trkpt lat="30.0707871560" lon="35.3625651821"><ele>1225.34</ele><time>2015-11-26T08:09:43Z</time></trkpt><trkpt lat="30.0707057677" lon="35.3624218516"><ele>1226.78</ele><time>2015-11-26T08:09:54Z</time></trkpt><trkpt lat="30.0706885010" lon="35.3624024894"><ele>1226.78</ele><time>2015-11-26T08:09:56Z</time></trkpt><trkpt lat="30.0704779476" lon="35.3624434769"><ele>1226.30</ele><time>2015-11-26T08:10:08Z</time></trkpt><trkpt lat="30.0704618543" lon="35.3624471650"><ele>1226.78</ele><time>2015-11-26T08:10:09Z</time></trkpt><trkpt lat="30.0701307692" lon="35.3624392021"><ele>1228.22</ele><time>2015-11-26T08:10:26Z</time></trkpt><trkpt lat="30.0699592754" lon="35.3624504339"><ele>1229.18</ele><time>2015-11-26T08:10:35Z</time></trkpt><trkpt lat="30.0697085727" lon="35.3624291439"><ele>1231.11</ele><time>2015-11-26T08:10:51Z</time></trkpt><trkpt lat="30.0695024617" lon="35.3624120448"><ele>1232.55</ele><time>2015-11-26T08:11:04Z</time></trkpt><trkpt lat="30.0694884639" lon="35.3624105360"><ele>1233.03</ele><time>2015-11-26T08:11:05Z</time></trkpt><trkpt lat="30.0694314670" lon="35.3624135535"><ele>1233.03</ele><time>2015-11-26T08:11:09Z</time></trkpt><trkpt lat="30.0693383440" lon="35.3623963706"><ele>1233.51</ele><time>2015-11-26T08:11:15Z</time></trkpt><trkpt lat="30.0691137090" lon="35.3623868991"><ele>1234.47</ele><time>2015-11-26T08:11:29Z</time></trkpt><trkpt lat="30.0689696241" lon="35.3623763379"><ele>1235.91</ele><time>2015-11-26T08:11:39Z</time></trkpt><trkpt lat="30.0688288081" lon="35.3623989690"><ele>1236.87</ele><time>2015-11-26T08:11:50Z</time></trkpt><trkpt lat="30.0687230285" lon="35.3624102846"><ele>1237.35</ele><time>2015-11-26T08:11:58Z</time></trkpt><trkpt lat="30.0685524568" lon="35.3624257073"><ele>1239.28</ele><time>2015-11-26T08:12:12Z</time></trkpt><trkpt lat="30.0683603436" lon="35.3624428902"><ele>1240.72</ele><time>2015-11-26T08:12:28Z</time></trkpt><trkpt lat="30.0681972317" lon="35.3624523617"><ele>1242.64</ele><time>2015-11-26T08:12:43Z</time></trkpt><trkpt lat="30.0681271590" lon="35.3624493442"><ele>1243.12</ele><time>2015-11-26T08:12:49Z</time></trkpt><trkpt lat="30.0680453517" lon="35.3624557983"><ele>1243.60</ele><time>2015-11-26T08:12:56Z</time></trkpt><trkpt lat="30.0679633766" lon="35.3624291439"><ele>1244.56</ele><time>2015-11-26T08:13:04Z</time></trkpt><trkpt lat="30.0677926373" lon="35.3624417167"><ele>1246.49</ele><time>2015-11-26T08:13:20Z</time></trkpt><trkpt lat="30.0677854288" lon="35.3624406271"><ele>1246.97</ele><time>2015-11-26T08:13:21Z</time></trkpt><trkpt lat="30.0677684974" lon="35.3624477517"><ele>1246.97</ele><time>2015-11-26T08:13:23Z</time></trkpt><trkpt lat="30.0677403342" lon="35.3624515235"><ele>1247.45</ele><time>2015-11-26T08:13:26Z</time></trkpt><trkpt lat="30.0676809903" lon="35.3624529485"><ele>1247.93</ele><time>2015-11-26T08:13:31Z</time></trkpt><trkpt lat="30.0675490592" lon="35.3624901641"><ele>1249.37</ele><time>2015-11-26T08:13:43Z</time></trkpt><trkpt lat="30.0675084908" lon="35.3625121247"><ele>1249.85</ele><time>2015-11-26T08:13:47Z</time></trkpt><trkpt lat="30.0674091652" lon="35.3625908308"><ele>1251.29</ele><time>2015-11-26T08:13:58Z</time></trkpt><trkpt lat="30.0673589576" lon="35.3626494203"><ele>1250.81</ele><time>2015-11-26T08:14:11Z</time></trkpt><trkpt lat="30.0673749670" lon="35.3626601491"><ele>1250.33</ele><time>2015-11-26T08:14:24Z</time></trkpt><trkpt lat="30.0673918985" lon="35.3626345005"><ele>1249.85</ele><time>2015-11-26T08:15:07Z</time></trkpt><trkpt lat="30.0673697703" lon="35.3626439720"><ele>1250.33</ele><time>2015-11-26T08:15:42Z</time></trkpt><trkpt lat="30.0673601311" lon="35.3626589756"><ele>1249.37</ele><time>2015-11-26T08:16:07Z</time></trkpt><trkpt lat="30.0673406851" lon="35.3626937605"><ele>1249.37</ele><time>2015-11-26T08:16:48Z</time></trkpt><trkpt lat="30.0673356559" lon="35.3627059143"><ele>1249.37</ele><time>2015-11-26T08:17:35Z</time></trkpt><trkpt lat="30.0673434511" lon="35.3626998793"><ele>1249.85</ele><time>2015-11-26T08:18:14Z</time></trkpt><trkpt lat="30.0673329737" lon="35.3627049923"><ele>1249.85</ele><time>2015-11-26T08:18:48Z</time></trkpt><trkpt lat="30.0673421938" lon="35.3627074230"><ele>1249.85</ele><time>2015-11-26T08:19:28Z</time></trkpt><trkpt lat="30.0673344824" lon="35.3626998793"><ele>1249.85</ele><time>2015-11-26T08:20:09Z</time></trkpt><trkpt lat="30.0673403498" lon="35.3627106082"><ele>1250.33</ele><time>2015-11-26T08:20:47Z</time></trkpt><trkpt lat="30.0673486479" lon="35.3627152182"><ele>1250.33</ele><time>2015-11-26T08:21:24Z</time></trkpt><trkpt lat="30.0673540961" lon="35.3626931738"><ele>1250.33</ele><time>2015-11-26T08:22:05Z</time></trkpt><trkpt lat="30.0673521683" lon="35.3627149668"><ele>1250.33</ele><time>2015-11-26T08:22:43Z</time></trkpt><trkpt lat="30.0673413556" lon="35.3627194930"><ele>1250.33</ele><time>2015-11-26T08:23:21Z</time></trkpt><trkpt lat="30.0673517492" lon="35.3627016395"><ele>1250.33</ele><time>2015-11-26T08:24:01Z</time></trkpt><trkpt lat="30.0673457142" lon="35.3627168108"><ele>1249.85</ele><time>2015-11-26T08:24:48Z</time></trkpt><trkpt lat="30.0673511624" lon="35.3627013043"><ele>1249.85</ele><time>2015-11-26T08:25:36Z</time></trkpt><trkpt lat="30.0673466362" lon="35.3627054952"><ele>1249.85</ele><time>2015-11-26T08:26:13Z</time></trkpt><trkpt lat="30.0673457142" lon="35.3627129551"><ele>1249.37</ele><time>2015-11-26T08:26:49Z</time></trkpt><trkpt lat="30.0673409365" lon="35.3627129551"><ele>1248.89</ele><time>2015-11-26T08:27:24Z</time></trkpt><trkpt lat="30.0673515815" lon="35.3627187386"><ele>1248.41</ele><time>2015-11-26T08:28:08Z</time></trkpt><trkpt lat="30.0673472229" lon="35.3627101053"><ele>1248.41</ele><time>2015-11-26T08:28:40Z</time></trkpt><trkpt lat="30.0673495699" lon="35.3627029806"><ele>1247.93</ele><time>2015-11-26T08:29:11Z</time></trkpt><trkpt lat="30.0673306268" lon="35.3627033159"><ele>1247.45</ele><time>2015-11-26T08:29:51Z</time></trkpt><trkpt lat="30.0673317164" lon="35.3626918327"><ele>1247.45</ele><time>2015-11-26T08:30:26Z</time></trkpt><trkpt lat="30.0673286151" lon="35.3626950178"><ele>1247.45</ele><time>2015-11-26T08:31:05Z</time></trkpt><trkpt lat="30.0673266873" lon="35.3626935929"><ele>1247.45</ele><time>2015-11-26T08:31:43Z</time></trkpt><trkpt lat="30.0673255976" lon="35.3626946826"><ele>1246.97</ele><time>2015-11-26T08:32:23Z</time></trkpt><trkpt lat="30.0673267711" lon="35.3626867197"><ele>1247.45</ele><time>2015-11-26T08:33:07Z</time></trkpt><trkpt lat="30.0673090853" lon="35.3626948502"><ele>1247.45</ele><time>2015-11-26T08:33:40Z</time></trkpt><trkpt lat="30.0673182216" lon="35.3626860492"><ele>1247.45</ele><time>2015-11-26T08:34:11Z</time></trkpt><trkpt lat="30.0673193112" lon="35.3627156373"><ele>1247.45</ele><time>2015-11-26T08:34:45Z</time></trkpt><trkpt lat="30.0673237536" lon="35.3626919165"><ele>1247.93</ele><time>2015-11-26T08:35:15Z</time></trkpt><trkpt lat="30.0673222449" lon="35.3626886476"><ele>1247.93</ele><time>2015-11-26T08:35:56Z</time></trkpt><trkpt lat="30.0673212390" lon="35.3626929224"><ele>1247.93</ele><time>2015-11-26T08:36:32Z</time></trkpt><trkpt lat="30.0673344824" lon="35.3626910783"><ele>1247.93</ele><time>2015-11-26T08:37:12Z</time></trkpt><trkpt lat="30.0673228316" lon="35.3626981191"><ele>1248.41</ele><time>2015-11-26T08:37:52Z</time></trkpt><trkpt lat="30.0673200656" lon="35.3626984544"><ele>1248.41</ele><time>2015-11-26T08:38:31Z</time></trkpt><trkpt lat="30.0673147850" lon="35.3627036512"><ele>1248.41</ele><time>2015-11-26T08:39:05Z</time></trkpt><trkpt lat="30.0673114322" lon="35.3626782540"><ele>1248.41</ele><time>2015-11-26T08:39:54Z</time></trkpt><trkpt lat="30.0673061516" lon="35.3626773320"><ele>1247.93</ele><time>2015-11-26T08:40:36Z</time></trkpt><trkpt lat="30.0673006196" lon="35.3626729734"><ele>1247.93</ele><time>2015-11-26T08:41:18Z</time></trkpt><trkpt lat="30.0673082471" lon="35.3626760747"><ele>1247.93</ele><time>2015-11-26T08:42:01Z</time></trkpt><trkpt lat="30.0673087500" lon="35.3626655135"><ele>1247.93</ele><time>2015-11-26T08:42:44Z</time></trkpt><trkpt lat="30.0673076604" lon="35.3626781702"><ele>1247.45</ele><time>2015-11-26T08:43:19Z</time></trkpt><trkpt lat="30.0672929082" lon="35.3626769967"><ele>1247.45</ele><time>2015-11-26T08:43:47Z</time></trkpt><trkpt lat="30.0673064031" lon="35.3626639210"><ele>1248.41</ele><time>2015-11-26T08:44:24Z</time></trkpt><trkpt lat="30.0673140306" lon="35.3626634181"><ele>1247.93</ele><time>2015-11-26T08:44:42Z</time></trkpt><trkpt lat="30.0673192274" lon="35.3626666870"><ele>1247.93</ele><time>2015-11-26T08:45:04Z</time></trkpt><trkpt lat="30.0673200656" lon="35.3626593109"><ele>1247.93</ele><time>2015-11-26T08:45:24Z</time></trkpt><trkpt lat="30.0673240889" lon="35.3626789246"><ele>1248.41</ele><time>2015-11-26T08:45:54Z</time></trkpt><trkpt lat="30.0673114322" lon="35.3626893181"><ele>1248.41</ele><time>2015-11-26T08:46:01Z</time></trkpt><trkpt lat="30.0670217536" lon="35.3627213370"><ele>1244.56</ele><time>2015-11-26T08:46:13Z</time></trkpt><trkpt lat="30.0667257048" lon="35.3627407830"><ele>1241.20</ele><time>2015-11-26T08:46:22Z</time></trkpt><trkpt lat="30.0665588211" lon="35.3627444711"><ele>1239.28</ele><time>2015-11-26T08:46:27Z</time></trkpt><trkpt lat="30.0662424043" lon="35.3627572954"><ele>1236.39</ele><time>2015-11-26T08:46:34Z</time></trkpt><trkpt lat="30.0660792086" lon="35.3627803456"><ele>1234.95</ele><time>2015-11-26T08:46:37Z</time></trkpt><trkpt lat="30.0657354668" lon="35.3629102651"><ele>1232.55</ele><time>2015-11-26T08:46:48Z</time></trkpt><trkpt lat="30.0654448662" lon="35.3630286176"><ele>1229.66</ele><time>2015-11-26T08:47:00Z</time></trkpt><trkpt lat="30.0653623883" lon="35.3630710300"><ele>1229.18</ele><time>2015-11-26T08:47:03Z</time></trkpt><trkpt lat="30.0652505737" lon="35.3631342296"><ele>1228.70</ele><time>2015-11-26T08:47:06Z</time></trkpt><trkpt lat="30.0648709573" lon="35.3633559309"><ele>1226.30</ele><time>2015-11-26T08:47:15Z</time></trkpt><trkpt lat="30.0646951888" lon="35.3634496406"><ele>1225.82</ele><time>2015-11-26T08:47:19Z</time></trkpt><trkpt lat="30.0642345194" lon="35.3637535684"><ele>1222.93</ele><time>2015-11-26T08:47:31Z</time></trkpt><trkpt lat="30.0637841597" lon="35.3641555645"><ele>1219.57</ele><time>2015-11-26T08:47:39Z</time></trkpt><trkpt lat="30.0631913077" lon="35.3646193352"><ele>1216.69</ele><time>2015-11-26T08:47:49Z</time></trkpt><trkpt lat="30.0628426205" lon="35.3648565430"><ele>1215.24</ele><time>2015-11-26T08:47:55Z</time></trkpt><trkpt lat="30.0623963680" lon="35.3651979379"><ele>1212.84</ele><time>2015-11-26T08:48:03Z</time></trkpt><trkpt lat="30.0622098707" lon="35.3652895521"><ele>1211.40</ele><time>2015-11-26T08:48:06Z</time></trkpt><trkpt lat="30.0618809648" lon="35.3656346351"><ele>1212.36</ele><time>2015-11-26T08:48:17Z</time></trkpt><trkpt lat="30.0617885124" lon="35.3657281771"><ele>1213.32</ele><time>2015-11-26T08:48:23Z</time></trkpt><trkpt lat="30.0616088044" lon="35.3659607749"><ele>1211.88</ele><time>2015-11-26T08:48:35Z</time></trkpt><trkpt lat="30.0615837425" lon="35.3659917880"><ele>1211.88</ele><time>2015-11-26T08:48:36Z</time></trkpt><trkpt lat="30.0613752846" lon="35.3659612779"><ele>1212.36</ele><time>2015-11-26T08:48:43Z</time></trkpt><trkpt lat="30.0611340534" lon="35.3659259900"><ele>1213.80</ele><time>2015-11-26T08:48:55Z</time></trkpt><trkpt lat="30.0609297026" lon="35.3659259900"><ele>1212.36</ele><time>2015-11-26T08:49:01Z</time></trkpt><trkpt lat="30.0605571270" lon="35.3660108987"><ele>1209.96</ele><time>2015-11-26T08:49:08Z</time></trkpt><trkpt lat="30.0604006369" lon="35.3660174366"><ele>1209.96</ele><time>2015-11-26T08:49:11Z</time></trkpt><trkpt lat="30.0601983815" lon="35.3659923747"><ele>1208.03</ele><time>2015-11-26T08:49:15Z</time></trkpt><trkpt lat="30.0598673802" lon="35.3658979107"><ele>1202.75</ele><time>2015-11-26T08:49:20Z</time></trkpt><trkpt lat="30.0597287435" lon="35.3658583481"><ele>1200.82</ele><time>2015-11-26T08:49:22Z</time></trkpt><trkpt lat="30.0593303517" lon="35.3659217153"><ele>1198.90</ele><time>2015-11-26T08:49:30Z</time></trkpt><trkpt lat="30.0590608735" lon="35.3659756947"><ele>1196.98</ele><time>2015-11-26T08:49:35Z</time></trkpt><trkpt lat="30.0589527469" lon="35.3659847472"><ele>1196.98</ele><time>2015-11-26T08:49:37Z</time></trkpt><trkpt lat="30.0585174747" lon="35.3660541493"><ele>1196.02</ele><time>2015-11-26T08:49:49Z</time></trkpt><trkpt lat="30.0583501719" lon="35.3660622798"><ele>1195.54</ele><time>2015-11-26T08:49:53Z</time></trkpt><trkpt lat="30.0581434742" lon="35.3660090547"><ele>1195.06</ele><time>2015-11-26T08:49:58Z</time></trkpt><trkpt lat="30.0577895064" lon="35.3660277463"><ele>1193.13</ele><time>2015-11-26T08:50:06Z</time></trkpt><trkpt lat="30.0574688148" lon="35.3661058657"><ele>1191.69</ele><time>2015-11-26T08:50:12Z</time></trkpt><trkpt lat="30.0573222991" lon="35.3661574982"><ele>1191.69</ele><time>2015-11-26T08:50:15Z</time></trkpt><trkpt lat="30.0571670663" lon="35.3662610147"><ele>1190.25</ele><time>2015-11-26T08:50:18Z</time></trkpt><trkpt lat="30.0570499711" lon="35.3663312551"><ele>1190.25</ele><time>2015-11-26T08:50:20Z</time></trkpt><trkpt lat="30.0568466261" lon="35.3664227854"><ele>1191.21</ele><time>2015-11-26T08:50:24Z</time></trkpt><trkpt lat="30.0566055626" lon="35.3665108792"><ele>1193.61</ele><time>2015-11-26T08:50:34Z</time></trkpt><trkpt lat="30.0563685223" lon="35.3665455803"><ele>1195.06</ele><time>2015-11-26T08:50:48Z</time></trkpt><trkpt lat="30.0562764890" lon="35.3665597457"><ele>1194.09</ele><time>2015-11-26T08:50:51Z</time></trkpt><trkpt lat="30.0559133850" lon="35.3666146472"><ele>1196.02</ele><time>2015-11-26T08:51:04Z</time></trkpt><trkpt lat="30.0557167456" lon="35.3666743264"><ele>1195.54</ele><time>2015-11-26T08:51:14Z</time></trkpt><trkpt lat="30.0554176793" lon="35.3665076941"><ele>1196.50</ele><time>2015-11-26T08:51:23Z</time></trkpt><trkpt lat="30.0553953834" lon="35.3661880922"><ele>1198.42</ele><time>2015-11-26T08:51:35Z</time></trkpt><trkpt lat="30.0552470237" lon="35.3661425784"><ele>1200.34</ele><time>2015-11-26T08:51:46Z</time></trkpt><trkpt lat="30.0551795494" lon="35.3661578335"><ele>1201.30</ele><time>2015-11-26T08:51:51Z</time></trkpt><trkpt lat="30.0551487040" lon="35.3661703225"><ele>1201.30</ele><time>2015-11-26T08:51:54Z</time></trkpt><trkpt lat="30.0551134162" lon="35.3661845718"><ele>1201.30</ele><time>2015-11-26T08:51:58Z</time></trkpt><trkpt lat="30.0550198741" lon="35.3662605118"><ele>1201.79</ele><time>2015-11-26T08:52:06Z</time></trkpt><trkpt lat="30.0547213107" lon="35.3664178401"><ele>1202.27</ele><time>2015-11-26T08:52:21Z</time></trkpt><trkpt lat="30.0545055605" lon="35.3665426467"><ele>1199.86</ele><time>2015-11-26T08:52:35Z</time></trkpt><trkpt lat="30.0543257687" lon="35.3665822092"><ele>1196.98</ele><time>2015-11-26T08:52:42Z</time></trkpt><trkpt lat="30.0540190749" lon="35.3666387871"><ele>1193.61</ele><time>2015-11-26T08:52:51Z</time></trkpt><trkpt lat="30.0538037438" lon="35.3667360172"><ele>1190.25</ele><time>2015-11-26T08:52:57Z</time></trkpt><trkpt lat="30.0535901729" lon="35.3668295592"><ele>1187.37</ele><time>2015-11-26T08:53:04Z</time></trkpt><trkpt lat="30.0532546453" lon="35.3669982031"><ele>1183.52</ele><time>2015-11-26T08:53:14Z</time></trkpt><trkpt lat="30.0531129912" lon="35.3670741431"><ele>1181.12</ele><time>2015-11-26T08:53:19Z</time></trkpt><trkpt lat="30.0530069601" lon="35.3672182281"><ele>1180.16</ele><time>2015-11-26T08:53:23Z</time></trkpt><trkpt lat="30.0529402401" lon="35.3673775680"><ele>1178.23</ele><time>2015-11-26T08:53:28Z</time></trkpt><trkpt lat="30.0527336262" lon="35.3673493210"><ele>1177.75</ele><time>2015-11-26T08:53:34Z</time></trkpt><trkpt lat="30.0525271799" lon="35.3672376741"><ele>1176.79</ele><time>2015-11-26T08:53:40Z</time></trkpt><trkpt lat="30.0522427820" lon="35.3671633266"><ele>1172.95</ele><time>2015-11-26T08:53:46Z</time></trkpt><trkpt lat="30.0520693604" lon="35.3670938406"><ele>1170.06</ele><time>2015-11-26T08:53:50Z</time></trkpt><trkpt lat="30.0518219266" lon="35.3669730574"><ele>1166.70</ele><time>2015-11-26T08:53:56Z</time></trkpt><trkpt lat="30.0515589025" lon="35.3668670263"><ele>1162.37</ele><time>2015-11-26T08:54:05Z</time></trkpt><trkpt lat="30.0514622591" lon="35.3668524418"><ele>1161.41</ele><time>2015-11-26T08:54:08Z</time></trkpt><trkpt lat="30.0513076968" lon="35.3669003025"><ele>1160.45</ele><time>2015-11-26T08:54:12Z</time></trkpt><trkpt lat="30.0512760971" lon="35.3669274598"><ele>1160.93</ele><time>2015-11-26T08:54:13Z</time></trkpt><trkpt lat="30.0511243008" lon="35.3669983707"><ele>1159.97</ele><time>2015-11-26T08:54:22Z</time></trkpt><trkpt lat="30.0511247199" lon="35.3669959400"><ele>1160.45</ele><time>2015-11-26T08:54:27Z</time></trkpt><trkpt lat="30.0510818884" lon="35.3670054954"><ele>1159.49</ele><time>2015-11-26T08:54:32Z</time></trkpt><trkpt lat="30.0510565750" lon="35.3669928387"><ele>1159.49</ele><time>2015-11-26T08:54:34Z</time></trkpt><trkpt lat="30.0510196108" lon="35.3669890668"><ele>1159.49</ele><time>2015-11-26T08:54:36Z</time></trkpt><trkpt lat="30.0509958062" lon="35.3669935092"><ele>1159.01</ele><time>2015-11-26T08:54:37Z</time></trkpt><trkpt lat="30.0509678107" lon="35.3670006339"><ele>1159.01</ele><time>2015-11-26T08:54:38Z</time></trkpt><trkpt lat="30.0509325229" lon="35.3670085967"><ele>1159.01</ele><time>2015-11-26T08:54:39Z</time></trkpt><trkpt lat="30.0508922897" lon="35.3670226783"><ele>1158.53</ele><time>2015-11-26T08:54:40Z</time></trkpt><trkpt lat="30.0508486200" lon="35.3670423757"><ele>1158.05</ele><time>2015-11-26T08:54:41Z</time></trkpt><trkpt lat="30.0504867733" lon="35.3671719600"><ele>1156.60</ele><time>2015-11-26T08:54:48Z</time></trkpt><trkpt lat="30.0504317880" lon="35.3671790008"><ele>1156.60</ele><time>2015-11-26T08:54:49Z</time></trkpt><trkpt lat="30.0503764674" lon="35.3671803419"><ele>1156.12</ele><time>2015-11-26T08:54:50Z</time></trkpt><trkpt lat="30.0503221527" lon="35.3671737202"><ele>1156.12</ele><time>2015-11-26T08:54:51Z</time></trkpt><trkpt lat="30.0502712745" lon="35.3671525978"><ele>1156.60</ele><time>2015-11-26T08:54:52Z</time></trkpt><trkpt lat="30.0502217375" lon="35.3671201598"><ele>1155.64</ele><time>2015-11-26T08:54:53Z</time></trkpt><trkpt lat="30.0501727872" lon="35.3670803457"><ele>1155.64</ele><time>2015-11-26T08:54:54Z</time></trkpt><trkpt lat="30.0501240883" lon="35.3670381848"><ele>1155.16</ele><time>2015-11-26T08:54:55Z</time></trkpt><trkpt lat="30.0496743992" lon="35.3667142242"><ele>1154.68</ele><time>2015-11-26T08:55:04Z</time></trkpt><trkpt lat="30.0496132951" lon="35.3666972928"><ele>1154.20</ele><time>2015-11-26T08:55:05Z</time></trkpt><trkpt lat="30.0495469104" lon="35.3666936886"><ele>1153.72</ele><time>2015-11-26T08:55:06Z</time></trkpt><trkpt lat="30.0494759995" lon="35.3667020705"><ele>1152.76</ele><time>2015-11-26T08:55:07Z</time></trkpt><trkpt lat="30.0494013168" lon="35.3667133860"><ele>1152.76</ele><time>2015-11-26T08:55:08Z</time></trkpt><trkpt lat="30.0491802022" lon="35.3667409625"><ele>1152.28</ele><time>2015-11-26T08:55:11Z</time></trkpt><trkpt lat="30.0491017476" lon="35.3667359333"><ele>1151.32</ele><time>2015-11-26T08:55:12Z</time></trkpt><trkpt lat="30.0487414934" lon="35.3666729853"><ele>1148.43</ele><time>2015-11-26T08:55:16Z</time></trkpt><trkpt lat="30.0482685864" lon="35.3665579855"><ele>1146.03</ele><time>2015-11-26T08:55:21Z</time></trkpt><trkpt lat="30.0479157083" lon="35.3664348554"><ele>1143.63</ele><time>2015-11-26T08:55:25Z</time></trkpt><trkpt lat="30.0478276145" lon="35.3664211929"><ele>1143.63</ele><time>2015-11-26T08:55:26Z</time></trkpt><trkpt lat="30.0477414485" lon="35.3664149903"><ele>1143.63</ele><time>2015-11-26T08:55:27Z</time></trkpt><trkpt lat="30.0476568751" lon="35.3664170858"><ele>1143.63</ele><time>2015-11-26T08:55:28Z</time></trkpt><trkpt lat="30.0475738104" lon="35.3664266411"><ele>1143.14</ele><time>2015-11-26T08:55:29Z</time></trkpt><trkpt lat="30.0469643623" lon="35.3665112983"><ele>1140.26</ele><time>2015-11-26T08:55:36Z</time></trkpt><trkpt lat="30.0468751788" lon="35.3665334266"><ele>1139.78</ele><time>2015-11-26T08:55:37Z</time></trkpt><trkpt lat="30.0464003440" lon="35.3666404635"><ele>1137.38</ele><time>2015-11-26T08:55:42Z</time></trkpt><trkpt lat="30.0459587853" lon="35.3667203430"><ele>1136.90</ele><time>2015-11-26T08:55:47Z</time></trkpt><trkpt lat="30.0453526899" lon="35.3667252045"><ele>1138.82</ele><time>2015-11-26T08:55:56Z</time></trkpt><trkpt lat="30.0452134665" lon="35.3666967060"><ele>1139.30</ele><time>2015-11-26T08:55:59Z</time></trkpt><trkpt lat="30.0451749936" lon="35.3666910063"><ele>1139.30</ele><time>2015-11-26T08:56:00Z</time></trkpt><trkpt lat="30.0451412145" lon="35.3666830435"><ele>1139.78</ele><time>2015-11-26T08:56:01Z</time></trkpt><trkpt lat="30.0447782781" lon="35.3667145595"><ele>1141.70</ele><time>2015-11-26T08:56:14Z</time></trkpt><trkpt lat="30.0446813833" lon="35.3667732328"><ele>1142.18</ele><time>2015-11-26T08:56:21Z</time></trkpt><trkpt lat="30.0446681399" lon="35.3667779267"><ele>1142.18</ele><time>2015-11-26T08:56:22Z</time></trkpt><trkpt lat="30.0446519628" lon="35.3667811956"><ele>1142.18</ele><time>2015-11-26T08:56:23Z</time></trkpt><trkpt lat="30.0443690736" lon="35.3667535353"><ele>1140.74</ele><time>2015-11-26T08:56:33Z</time></trkpt><trkpt lat="30.0443249010" lon="35.3667465784"><ele>1140.26</ele><time>2015-11-26T08:56:34Z</time></trkpt><trkpt lat="30.0441417564" lon="35.3667055070"><ele>1140.26</ele><time>2015-11-26T08:56:38Z</time></trkpt><trkpt lat="30.0440961588" lon="35.3666957840"><ele>1140.26</ele><time>2015-11-26T08:56:39Z</time></trkpt><trkpt lat="30.0440513995" lon="35.3666837141"><ele>1139.78</ele><time>2015-11-26T08:56:40Z</time></trkpt><trkpt lat="30.0439690892" lon="35.3666587360"><ele>1140.26</ele><time>2015-11-26T08:56:42Z</time></trkpt><trkpt lat="30.0434574578" lon="35.3664027527"><ele>1138.34</ele><time>2015-11-26T08:56:56Z</time></trkpt><trkpt lat="30.0429463293" lon="35.3661211208"><ele>1135.94</ele><time>2015-11-26T08:57:04Z</time></trkpt><trkpt lat="30.0428788550" lon="35.3661092184"><ele>1136.42</ele><time>2015-11-26T08:57:05Z</time></trkpt><trkpt lat="30.0426480174" lon="35.3660977352"><ele>1136.90</ele><time>2015-11-26T08:57:09Z</time></trkpt><trkpt lat="30.0425925292" lon="35.3660872579"><ele>1136.90</ele><time>2015-11-26T08:57:10Z</time></trkpt><trkpt lat="30.0425380468" lon="35.3660770319"><ele>1136.90</ele><time>2015-11-26T08:57:11Z</time></trkpt><trkpt lat="30.0420880225" lon="35.3659875132"><ele>1134.49</ele><time>2015-11-26T08:57:18Z</time></trkpt><trkpt lat="30.0420177821" lon="35.3659503814"><ele>1133.53</ele><time>2015-11-26T08:57:19Z</time></trkpt><trkpt lat="30.0419508107" lon="35.3659083880"><ele>1133.05</ele><time>2015-11-26T08:57:20Z</time></trkpt><trkpt lat="30.0417836756" lon="35.3658040334"><ele>1129.69</ele><time>2015-11-26T08:57:23Z</time></trkpt><trkpt lat="30.0417270139" lon="35.3657830786"><ele>1128.73</ele><time>2015-11-26T08:57:24Z</time></trkpt><trkpt lat="30.0416639820" lon="35.3657725174"><ele>1127.76</ele><time>2015-11-26T08:57:25Z</time></trkpt><trkpt lat="30.0415910594" lon="35.3657829110"><ele>1126.80</ele><time>2015-11-26T08:57:26Z</time></trkpt><trkpt lat="30.0415117666" lon="35.3658166900"><ele>1125.36</ele><time>2015-11-26T08:57:27Z</time></trkpt><trkpt lat="30.0414292049" lon="35.3658688255"><ele>1123.92</ele><time>2015-11-26T08:57:28Z</time></trkpt><trkpt lat="30.0413422007" lon="35.3659359645"><ele>1122.48</ele><time>2015-11-26T08:57:29Z</time></trkpt><trkpt lat="30.0412520114" lon="35.3660124075"><ele>1121.03</ele><time>2015-11-26T08:57:30Z</time></trkpt><trkpt lat="30.0409687869" lon="35.3662764374"><ele>1117.67</ele><time>2015-11-26T08:57:33Z</time></trkpt><trkpt lat="30.0408669468" lon="35.3663549758"><ele>1117.19</ele><time>2015-11-26T08:57:34Z</time></trkpt><trkpt lat="30.0405455846" lon="35.3665291518"><ele>1116.71</ele><time>2015-11-26T08:57:37Z</time></trkpt><trkpt lat="30.0404407270" lon="35.3665589076"><ele>1116.71</ele><time>2015-11-26T08:57:38Z</time></trkpt><trkpt lat="30.0402528886" lon="35.3666136414"><ele>1117.67</ele><time>2015-11-26T08:57:40Z</time></trkpt><trkpt lat="30.0401765294" lon="35.3666527011"><ele>1118.63</ele><time>2015-11-26T08:57:41Z</time></trkpt><trkpt lat="30.0401134137" lon="35.3666965384"><ele>1119.11</ele><time>2015-11-26T08:57:42Z</time></trkpt><trkpt lat="30.0400159322" lon="35.3667818662"><ele>1120.55</ele><time>2015-11-26T08:57:44Z</time></trkpt><trkpt lat="30.0399787165" lon="35.3668244462"><ele>1121.03</ele><time>2015-11-26T08:57:45Z</time></trkpt><trkpt lat="30.0399463624" lon="35.3668626677"><ele>1121.52</ele><time>2015-11-26T08:57:46Z</time></trkpt><trkpt lat="30.0399138406" lon="35.3668935131"><ele>1122.00</ele><time>2015-11-26T08:57:47Z</time></trkpt><trkpt lat="30.0398857612" lon="35.3669189941"><ele>1122.48</ele><time>2015-11-26T08:57:48Z</time></trkpt><trkpt lat="30.0396737829" lon="35.3670790885"><ele>1125.84</ele><time>2015-11-26T08:57:59Z</time></trkpt><trkpt lat="30.0393779017" lon="35.3672592994"><ele>1127.76</ele><time>2015-11-26T08:58:15Z</time></trkpt><trkpt lat="30.0389915798" lon="35.3674763907"><ele>1125.84</ele><time>2015-11-26T08:58:27Z</time></trkpt><trkpt lat="30.0389427133" lon="35.3675052244"><ele>1125.36</ele><time>2015-11-26T08:58:28Z</time></trkpt><trkpt lat="30.0388925057" lon="35.3675366566"><ele>1125.36</ele><time>2015-11-26T08:58:29Z</time></trkpt><trkpt lat="30.0383384619" lon="35.3678465355"><ele>1122.48</ele><time>2015-11-26T08:58:38Z</time></trkpt><trkpt lat="30.0377513096" lon="35.3681563307"><ele>1118.63</ele><time>2015-11-26T08:58:46Z</time></trkpt><trkpt lat="30.0371040590" lon="35.3685189318"><ele>1119.11</ele><time>2015-11-26T08:58:58Z</time></trkpt><trkpt lat="30.0369567890" lon="35.3686028346"><ele>1118.15</ele><time>2015-11-26T08:59:01Z</time></trkpt><trkpt lat="30.0362802856" lon="35.3688277211"><ele>1114.79</ele><time>2015-11-26T08:59:12Z</time></trkpt><trkpt lat="30.0356114935" lon="35.3690168168"><ele>1111.42</ele><time>2015-11-26T08:59:21Z</time></trkpt><trkpt lat="30.0347450562" lon="35.3692714591"><ele>1108.54</ele><time>2015-11-26T08:59:32Z</time></trkpt><trkpt lat="30.0341625139" lon="35.3694341518"><ele>1106.13</ele><time>2015-11-26T08:59:40Z</time></trkpt><trkpt lat="30.0339792855" lon="35.3694399353"><ele>1105.17</ele><time>2015-11-26T08:59:44Z</time></trkpt><trkpt lat="30.0338875875" lon="35.3694418631"><ele>1104.69</ele><time>2015-11-26T08:59:46Z</time></trkpt><trkpt lat="30.0330627244" lon="35.3694425337"><ele>1102.29</ele><time>2015-11-26T09:00:01Z</time></trkpt><trkpt lat="30.0319383759" lon="35.3694337327"><ele>1099.40</ele><time>2015-11-26T09:00:19Z</time></trkpt><trkpt lat="30.0311490521" lon="35.3694802523"><ele>1096.52</ele><time>2015-11-26T09:00:33Z</time></trkpt><trkpt lat="30.0307881273" lon="35.3694892209"><ele>1095.08</ele><time>2015-11-26T09:00:39Z</time></trkpt><trkpt lat="30.0302288868" lon="35.3694048990"><ele>1093.16</ele><time>2015-11-26T09:00:48Z</time></trkpt><trkpt lat="30.0295823067" lon="35.3693732992"><ele>1089.31</ele><time>2015-11-26T09:00:57Z</time></trkpt><trkpt lat="30.0291489623" lon="35.3693594690"><ele>1086.43</ele><time>2015-11-26T09:01:02Z</time></trkpt><trkpt lat="30.0284119416" lon="35.3691239376"><ele>1083.54</ele><time>2015-11-26T09:01:12Z</time></trkpt><trkpt lat="30.0279670302" lon="35.3689987957"><ele>1081.14</ele><time>2015-11-26T09:01:20Z</time></trkpt><trkpt lat="30.0276502781" lon="35.3689186648"><ele>1077.78</ele><time>2015-11-26T09:01:25Z</time></trkpt><trkpt lat="30.0274372939" lon="35.3688594885"><ele>1073.93</ele><time>2015-11-26T09:01:30Z</time></trkpt><trkpt lat="30.0272050314" lon="35.3688073531"><ele>1070.57</ele><time>2015-11-26T09:01:36Z</time></trkpt><trkpt lat="30.0270297658" lon="35.3687476739"><ele>1067.20</ele><time>2015-11-26T09:01:41Z</time></trkpt><trkpt lat="30.0268849265" lon="35.3686951194"><ele>1063.84</ele><time>2015-11-26T09:01:46Z</time></trkpt><trkpt lat="30.0267758779" lon="35.3686703090"><ele>1061.43</ele><time>2015-11-26T09:01:50Z</time></trkpt><trkpt lat="30.0265167933" lon="35.3687331732"><ele>1057.11</ele><time>2015-11-26T09:01:54Z</time></trkpt><trkpt lat="30.0262974389" lon="35.3688137233"><ele>1057.59</ele><time>2015-11-26T09:01:57Z</time></trkpt><trkpt lat="30.0261810143" lon="35.3688402940"><ele>1057.59</ele><time>2015-11-26T09:01:59Z</time></trkpt><trkpt lat="30.0256414711" lon="35.3688712232"><ele>1060.95</ele><time>2015-11-26T09:02:13Z</time></trkpt><trkpt lat="30.0254300795" lon="35.3688551299"><ele>1063.36</ele><time>2015-11-26T09:02:27Z</time></trkpt><trkpt lat="30.0252265669" lon="35.3688676190"><ele>1065.28</ele><time>2015-11-26T09:02:42Z</time></trkpt><trkpt lat="30.0250767823" lon="35.3688874003"><ele>1066.24</ele><time>2015-11-26T09:02:53Z</time></trkpt><trkpt lat="30.0249261595" lon="35.3689269628"><ele>1065.76</ele><time>2015-11-26T09:03:05Z</time></trkpt><trkpt lat="30.0249193702" lon="35.3689109534"><ele>1065.76</ele><time>2015-11-26T09:03:26Z</time></trkpt><trkpt lat="30.0249140058" lon="35.3689190000"><ele>1065.76</ele><time>2015-11-26T09:03:48Z</time></trkpt><trkpt lat="30.0249176938" lon="35.3689304832"><ele>1065.76</ele><time>2015-11-26T09:04:20Z</time></trkpt><trkpt lat="30.0249264948" lon="35.3689251188"><ele>1065.76</ele><time>2015-11-26T09:04:45Z</time></trkpt><trkpt lat="30.0249378942" lon="35.3689266276"><ele>1063.84</ele><time>2015-11-26T09:05:11Z</time></trkpt><trkpt lat="30.0249370560" lon="35.3689267952"><ele>1067.20</ele><time>2015-11-26T09:05:13Z</time></trkpt><trkpt lat="30.0249310210" lon="35.3689357638"><ele>1065.76</ele><time>2015-11-26T09:05:33Z</time></trkpt><trkpt lat="30.0249310210" lon="35.3689290583"><ele>1065.76</ele><time>2015-11-26T09:05:59Z</time></trkpt><trkpt lat="30.0249352958" lon="35.3689253703"><ele>1065.76</ele><time>2015-11-26T09:06:24Z</time></trkpt><trkpt lat="30.0249575078" lon="35.3689268790"><ele>1065.76</ele><time>2015-11-26T09:06:53Z</time></trkpt><trkpt lat="30.0249523949" lon="35.3689395357"><ele>1065.76</ele><time>2015-11-26T09:07:16Z</time></trkpt><trkpt lat="30.0249355473" lon="35.3689475823"><ele>1065.76</ele><time>2015-11-26T09:07:31Z</time></trkpt><trkpt lat="30.0247978326" lon="35.3690624144"><ele>1064.80</ele><time>2015-11-26T09:07:38Z</time></trkpt><trkpt lat="30.0247294363" lon="35.3691339120"><ele>1063.84</ele><time>2015-11-26T09:07:40Z</time></trkpt><trkpt lat="30.0245160330" lon="35.3694639076"><ele>1059.99</ele><time>2015-11-26T09:07:45Z</time></trkpt><trkpt lat="30.0242387597" lon="35.3696932364"><ele>1062.39</ele><time>2015-11-26T09:07:50Z</time></trkpt><trkpt lat="30.0239178166" lon="35.3698326275"><ele>1064.80</ele><time>2015-11-26T09:08:04Z</time></trkpt><trkpt lat="30.0235231966" lon="35.3699090704"><ele>1065.76</ele><time>2015-11-26T09:08:20Z</time></trkpt><trkpt lat="30.0232337695" lon="35.3698901273"><ele>1067.68</ele><time>2015-11-26T09:08:34Z</time></trkpt><trkpt lat="30.0228199549" lon="35.3700028639"><ele>1066.24</ele><time>2015-11-26T09:08:47Z</time></trkpt><trkpt lat="30.0225036219" lon="35.3700534906"><ele>1064.80</ele><time>2015-11-26T09:08:52Z</time></trkpt><trkpt lat="30.0222908892" lon="35.3700472880"><ele>1066.24</ele><time>2015-11-26T09:08:56Z</time></trkpt><trkpt lat="30.0218011346" lon="35.3702011798"><ele>1066.24</ele><time>2015-11-26T09:09:09Z</time></trkpt><trkpt lat="30.0212333445" lon="35.3703511320"><ele>1067.68</ele><time>2015-11-26T09:09:27Z</time></trkpt><trkpt lat="30.0209704041" lon="35.3702941351"><ele>1067.68</ele><time>2015-11-26T09:09:38Z</time></trkpt><trkpt lat="30.0204642210" lon="35.3702531476"><ele>1066.24</ele><time>2015-11-26T09:09:50Z</time></trkpt><trkpt lat="30.0202317070" lon="35.3702596016"><ele>1065.76</ele><time>2015-11-26T09:09:55Z</time></trkpt><trkpt lat="30.0197018031" lon="35.3703362122"><ele>1064.80</ele><time>2015-11-26T09:10:07Z</time></trkpt><trkpt lat="30.0193255395" lon="35.3706636094"><ele>1064.32</ele><time>2015-11-26T09:10:20Z</time></trkpt><trkpt lat="30.0193360168" lon="35.3706574906"><ele>1065.28</ele><time>2015-11-26T09:10:37Z</time></trkpt><trkpt lat="30.0193434767" lon="35.3706642799"><ele>1064.32</ele><time>2015-11-26T09:11:03Z</time></trkpt><trkpt lat="30.0193349272" lon="35.3706695605"><ele>1064.32</ele><time>2015-11-26T09:11:13Z</time></trkpt><trkpt lat="30.0190875772" lon="35.3707045969"><ele>1063.84</ele><time>2015-11-26T09:11:25Z</time></trkpt><trkpt lat="30.0189172570" lon="35.3707512002"><ele>1061.43</ele><time>2015-11-26T09:11:31Z</time></trkpt><trkpt lat="30.0186116528" lon="35.3708376177"><ele>1058.07</ele><time>2015-11-26T09:11:38Z</time></trkpt><trkpt lat="30.0184675679" lon="35.3708256315"><ele>1055.67</ele><time>2015-11-26T09:11:42Z</time></trkpt><trkpt lat="30.0182066392" lon="35.3705952968"><ele>1051.82</ele><time>2015-11-26T09:11:48Z</time></trkpt><trkpt lat="30.0180023722" lon="35.3704926185"><ele>1049.90</ele><time>2015-11-26T09:11:54Z</time></trkpt><trkpt lat="30.0178432837" lon="35.3705597576"><ele>1047.97</ele><time>2015-11-26T09:11:59Z</time></trkpt><trkpt lat="30.0176921580" lon="35.3706795350"><ele>1044.13</ele><time>2015-11-26T09:12:08Z</time></trkpt><trkpt lat="30.0176183973" lon="35.3707871586"><ele>1042.21</ele><time>2015-11-26T09:12:12Z</time></trkpt><trkpt lat="30.0175421219" lon="35.3710958641"><ele>1040.76</ele><time>2015-11-26T09:12:21Z</time></trkpt><trkpt lat="30.0175424572" lon="35.3711493406"><ele>1041.25</ele><time>2015-11-26T09:12:31Z</time></trkpt><trkpt lat="30.0175608974" lon="35.3713465668"><ele>1042.69</ele><time>2015-11-26T09:12:50Z</time></trkpt><trkpt lat="30.0175647531" lon="35.3714205790"><ele>1043.17</ele><time>2015-11-26T09:13:05Z</time></trkpt><trkpt lat="30.0175869651" lon="35.3715538513"><ele>1045.09</ele><time>2015-11-26T09:13:21Z</time></trkpt><trkpt lat="30.0176025555" lon="35.3716629837"><ele>1047.01</ele><time>2015-11-26T09:13:38Z</time></trkpt><trkpt lat="30.0176326465" lon="35.3718124330"><ele>1049.42</ele><time>2015-11-26T09:13:55Z</time></trkpt><trkpt lat="30.0176238455" lon="35.3719518241"><ele>1051.34</ele><time>2015-11-26T09:14:11Z</time></trkpt><trkpt lat="30.0176081713" lon="35.3720532451"><ele>1052.78</ele><time>2015-11-26T09:14:26Z</time></trkpt><trkpt lat="30.0175939221" lon="35.3720973339"><ele>1053.26</ele><time>2015-11-26T09:14:33Z</time></trkpt><trkpt lat="30.0175982807" lon="35.3721759561"><ele>1053.74</ele><time>2015-11-26T09:14:38Z</time></trkpt><trkpt lat="30.0174692832" lon="35.3723699972"><ele>1056.63</ele><time>2015-11-26T09:14:51Z</time></trkpt><trkpt lat="30.0173053332" lon="35.3725761082"><ele>1059.51</ele><time>2015-11-26T09:15:09Z</time></trkpt><trkpt lat="30.0171258766" lon="35.3727584984"><ele>1062.39</ele><time>2015-11-26T09:15:25Z</time></trkpt><trkpt lat="30.0169993937" lon="35.3729284834"><ele>1064.32</ele><time>2015-11-26T09:15:41Z</time></trkpt><trkpt lat="30.0169752538" lon="35.3729584068"><ele>1064.80</ele><time>2015-11-26T09:15:44Z</time></trkpt><trkpt lat="30.0169114675" lon="35.3732029907"><ele>1064.80</ele><time>2015-11-26T09:15:56Z</time></trkpt><trkpt lat="30.0167875830" lon="35.3735085949"><ele>1066.24</ele><time>2015-11-26T09:16:08Z</time></trkpt><trkpt lat="30.0166397262" lon="35.3738806676"><ele>1067.20</ele><time>2015-11-26T09:16:24Z</time></trkpt><trkpt lat="30.0163837429" lon="35.3742623795"><ele>1069.60</ele><time>2015-11-26T09:16:39Z</time></trkpt><trkpt lat="30.0160959084" lon="35.3744051233"><ele>1071.53</ele><time>2015-11-26T09:16:52Z</time></trkpt><trkpt lat="30.0157805812" lon="35.3744855896"><ele>1072.97</ele><time>2015-11-26T09:17:05Z</time></trkpt><trkpt lat="30.0155636575" lon="35.3744991682"><ele>1074.89</ele><time>2015-11-26T09:17:15Z</time></trkpt><trkpt lat="30.0152875576" lon="35.3745595179"><ele>1077.78</ele><time>2015-11-26T09:17:32Z</time></trkpt><trkpt lat="30.0151835382" lon="35.3746033553"><ele>1078.74</ele><time>2015-11-26T09:17:40Z</time></trkpt><trkpt lat="30.0149185862" lon="35.3746761940"><ele>1080.18</ele><time>2015-11-26T09:17:57Z</time></trkpt><trkpt lat="30.0146550592" lon="35.3747924510"><ele>1080.66</ele><time>2015-11-26T09:18:11Z</time></trkpt><trkpt lat="30.0143332779" lon="35.3750559781"><ele>1082.10</ele><time>2015-11-26T09:18:27Z</time></trkpt><trkpt lat="30.0141203776" lon="35.3752299026"><ele>1084.50</ele><time>2015-11-26T09:18:43Z</time></trkpt><trkpt lat="30.0140275899" lon="35.3753174935"><ele>1084.02</ele><time>2015-11-26T09:18:59Z</time></trkpt><trkpt lat="30.0140269194" lon="35.3753204271"><ele>1084.99</ele><time>2015-11-26T09:19:03Z</time></trkpt><trkpt lat="30.0140364747" lon="35.3753305692"><ele>1084.50</ele><time>2015-11-26T09:19:45Z</time></trkpt><trkpt lat="30.0140334573" lon="35.3753340896"><ele>1084.50</ele><time>2015-11-26T09:19:53Z</time></trkpt><trkpt lat="30.0140310265" lon="35.3753787652"><ele>1084.02</ele><time>2015-11-26T09:19:56Z</time></trkpt><trkpt lat="30.0139746163" lon="35.3755023982"><ele>1083.54</ele><time>2015-11-26T09:20:04Z</time></trkpt><trkpt lat="30.0139699224" lon="35.3756049089"><ele>1083.06</ele><time>2015-11-26T09:20:09Z</time></trkpt><trkpt lat="30.0139766280" lon="35.3758314718"><ele>1082.10</ele><time>2015-11-26T09:20:16Z</time></trkpt><trkpt lat="30.0139252469" lon="35.3760384209"><ele>1081.62</ele><time>2015-11-26T09:20:20Z</time></trkpt><trkpt lat="30.0137521606" lon="35.3766209632"><ele>1082.10</ele><time>2015-11-26T09:20:33Z</time></trkpt><trkpt lat="30.0137737021" lon="35.3770845663"><ele>1083.54</ele><time>2015-11-26T09:20:46Z</time></trkpt><trkpt lat="30.0139137637" lon="35.3774734866"><ele>1085.95</ele><time>2015-11-26T09:21:00Z</time></trkpt><trkpt lat="30.0140417553" lon="35.3777868021"><ele>1085.95</ele><time>2015-11-26T09:21:14Z</time></trkpt><trkpt lat="30.0141029432" lon="35.3779284563"><ele>1084.99</ele><time>2015-11-26T09:21:17Z</time></trkpt><trkpt lat="30.0142189488" lon="35.3787054587"><ele>1083.06</ele><time>2015-11-26T09:21:30Z</time></trkpt><trkpt lat="30.0142202899" lon="35.3788539860"><ele>1084.02</ele><time>2015-11-26T09:21:33Z</time></trkpt><trkpt lat="30.0140647218" lon="35.3794412222"><ele>1084.50</ele><time>2015-11-26T09:21:49Z</time></trkpt><trkpt lat="30.0138830021" lon="35.3799324017"><ele>1083.54</ele><time>2015-11-26T09:22:00Z</time></trkpt><trkpt lat="30.0138080679" lon="35.3803472221"><ele>1084.02</ele><time>2015-11-26T09:22:08Z</time></trkpt><trkpt lat="30.0139191281" lon="35.3810082190"><ele>1086.43</ele><time>2015-11-26T09:22:24Z</time></trkpt><trkpt lat="30.0138616282" lon="35.3814135678"><ele>1087.87</ele><time>2015-11-26T09:22:37Z</time></trkpt><trkpt lat="30.0138456188" lon="35.3818444815"><ele>1089.31</ele><time>2015-11-26T09:22:50Z</time></trkpt><trkpt lat="30.0139032025" lon="35.3822985291"><ele>1089.79</ele><time>2015-11-26T09:23:03Z</time></trkpt><trkpt lat="30.0139112491" lon="35.3827856015"><ele>1091.71</ele><time>2015-11-26T09:23:17Z</time></trkpt><trkpt lat="30.0139956549" lon="35.3830913734"><ele>1092.68</ele><time>2015-11-26T09:23:30Z</time></trkpt><trkpt lat="30.0139369816" lon="35.3833709937"><ele>1092.20</ele><time>2015-11-26T09:23:42Z</time></trkpt><trkpt lat="30.0137769710" lon="35.3834630270"><ele>1092.20</ele><time>2015-11-26T09:23:47Z</time></trkpt><trkpt lat="30.0134879630" lon="35.3835772723"><ele>1090.27</ele><time>2015-11-26T09:23:54Z</time></trkpt><trkpt lat="30.0133397710" lon="35.3836197685"><ele>1089.79</ele><time>2015-11-26T09:23:57Z</time></trkpt><trkpt lat="30.0131573807" lon="35.3835857380"><ele>1089.31</ele><time>2015-11-26T09:24:01Z</time></trkpt><trkpt lat="30.0128802750" lon="35.3834600095"><ele>1089.31</ele><time>2015-11-26T09:24:08Z</time></trkpt><trkpt lat="30.0126601662" lon="35.3833677247"><ele>1088.35</ele><time>2015-11-26T09:24:13Z</time></trkpt><trkpt lat="30.0118482951" lon="35.3831997514"><ele>1085.95</ele><time>2015-11-26T09:24:30Z</time></trkpt><trkpt lat="30.0116759632" lon="35.3831763659"><ele>1085.47</ele><time>2015-11-26T09:24:33Z</time></trkpt><trkpt lat="30.0112173054" lon="35.3832004219"><ele>1084.99</ele><time>2015-11-26T09:24:44Z</time></trkpt><trkpt lat="30.0110460632" lon="35.3832075465"><ele>1084.50</ele><time>2015-11-26T09:24:49Z</time></trkpt><trkpt lat="30.0107894093" lon="35.3832257353"><ele>1083.54</ele><time>2015-11-26T09:24:55Z</time></trkpt><trkpt lat="30.0102311745" lon="35.3831818979"><ele>1080.18</ele><time>2015-11-26T09:25:05Z</time></trkpt><trkpt lat="30.0097138435" lon="35.3830466140"><ele>1077.29</ele><time>2015-11-26T09:25:12Z</time></trkpt><trkpt lat="30.0089400262" lon="35.3824297898"><ele>1073.45</ele><time>2015-11-26T09:25:24Z</time></trkpt><trkpt lat="30.0087083504" lon="35.3821599763"><ele>1073.93</ele><time>2015-11-26T09:25:29Z</time></trkpt><trkpt lat="30.0086283870" lon="35.3820865508"><ele>1074.41</ele><time>2015-11-26T09:25:31Z</time></trkpt><trkpt lat="30.0082908478" lon="35.3819198348"><ele>1072.49</ele><time>2015-11-26T09:25:38Z</time></trkpt><trkpt lat="30.0074525736" lon="35.3814246319"><ele>1069.60</ele><time>2015-11-26T09:25:56Z</time></trkpt><trkpt lat="30.0072903000" lon="35.3813190199"><ele>1068.64</ele><time>2015-11-26T09:26:00Z</time></trkpt><trkpt lat="30.0070808362" lon="35.3811449278"><ele>1068.16</ele><time>2015-11-26T09:26:10Z</time></trkpt><trkpt lat="30.0070944987" lon="35.3811603505"><ele>1068.16</ele><time>2015-11-26T09:26:25Z</time></trkpt><trkpt lat="30.0071027130" lon="35.3811770305"><ele>1068.16</ele><time>2015-11-26T09:26:36Z</time></trkpt><trkpt lat="30.0071526691" lon="35.3812324349"><ele>1068.64</ele><time>2015-11-26T09:26:41Z</time></trkpt><trkpt lat="30.0073894579" lon="35.3814211115"><ele>1069.12</ele><time>2015-11-26T09:26:54Z</time></trkpt><trkpt lat="30.0076407474" lon="35.3815579880"><ele>1069.60</ele><time>2015-11-26T09:27:05Z</time></trkpt><trkpt lat="30.0079647917" lon="35.3817526996"><ele>1070.57</ele><time>2015-11-26T09:27:20Z</time></trkpt><trkpt lat="30.0080498680" lon="35.3818257898"><ele>1070.57</ele><time>2015-11-26T09:27:26Z</time></trkpt><trkpt lat="30.0079646241" lon="35.3819042444"><ele>1070.08</ele><time>2015-11-26T09:27:35Z</time></trkpt><trkpt lat="30.0079357065" lon="35.3819117881"><ele>1070.08</ele><time>2015-11-26T09:27:36Z</time></trkpt><trkpt lat="30.0077103171" lon="35.3821143787"><ele>1068.64</ele><time>2015-11-26T09:27:44Z</time></trkpt><trkpt lat="30.0076063816" lon="35.3821902350"><ele>1067.68</ele><time>2015-11-26T09:27:47Z</time></trkpt><trkpt lat="30.0074467063" lon="35.3822733834"><ele>1066.72</ele><time>2015-11-26T09:27:51Z</time></trkpt><trkpt lat="30.0073669106" lon="35.3823296260"><ele>1066.24</ele><time>2015-11-26T09:27:53Z</time></trkpt><trkpt lat="30.0072800741" lon="35.3823774029"><ele>1066.24</ele><time>2015-11-26T09:27:55Z</time></trkpt><trkpt lat="30.0070898049" lon="35.3824110143"><ele>1065.28</ele><time>2015-11-26T09:27:59Z</time></trkpt><trkpt lat="30.0068997871" lon="35.3823808394"><ele>1064.80</ele><time>2015-11-26T09:28:03Z</time></trkpt><trkpt lat="30.0064800214" lon="35.3823291231"><ele>1064.80</ele><time>2015-11-26T09:28:16Z</time></trkpt><trkpt lat="30.0064307358" lon="35.3823121917"><ele>1065.28</ele><time>2015-11-26T09:28:31Z</time></trkpt><trkpt lat="30.0064287242" lon="35.3823130298"><ele>1064.80</ele><time>2015-11-26T09:28:32Z</time></trkpt><trkpt lat="30.0063734036" lon="35.3823156282"><ele>1064.80</ele><time>2015-11-26T09:28:36Z</time></trkpt><trkpt lat="30.0059930328" lon="35.3822955955"><ele>1063.36</ele><time>2015-11-26T09:28:46Z</time></trkpt><trkpt lat="30.0054297689" lon="35.3823232558"><ele>1061.43</ele><time>2015-11-26T09:28:59Z</time></trkpt><trkpt lat="30.0052644778" lon="35.3824287839"><ele>1060.95</ele><time>2015-11-26T09:29:03Z</time></trkpt><trkpt lat="30.0051887892" lon="35.3825334739"><ele>1059.99</ele><time>2015-11-26T09:29:06Z</time></trkpt><trkpt lat="30.0050159544" lon="35.3826268483"><ele>1057.59</ele><time>2015-11-26T09:29:10Z</time></trkpt><trkpt lat="30.0047266949" lon="35.3826786485"><ele>1055.18</ele><time>2015-11-26T09:29:14Z</time></trkpt><trkpt lat="30.0044414587" lon="35.3828301094"><ele>1054.22</ele><time>2015-11-26T09:29:23Z</time></trkpt><trkpt lat="30.0044250302" lon="35.3828393295"><ele>1054.70</ele><time>2015-11-26T09:29:24Z</time></trkpt><trkpt lat="30.0043607410" lon="35.3829950653"><ele>1057.11</ele><time>2015-11-26T09:29:35Z</time></trkpt><trkpt lat="30.0042928476" lon="35.3832286689"><ele>1059.51</ele><time>2015-11-26T09:29:48Z</time></trkpt><trkpt lat="30.0042759161" lon="35.3833861649"><ele>1060.47</ele><time>2015-11-26T09:30:00Z</time></trkpt><trkpt lat="30.0041953661" lon="35.3836718202"><ele>1061.91</ele><time>2015-11-26T09:30:14Z</time></trkpt><trkpt lat="30.0041493494" lon="35.3841149714"><ele>1062.39</ele><time>2015-11-26T09:30:31Z</time></trkpt><trkpt lat="30.0041161571" lon="35.3842863813"><ele>1063.36</ele><time>2015-11-26T09:30:40Z</time></trkpt><trkpt lat="30.0040697213" lon="35.3844080865"><ele>1063.36</ele><time>2015-11-26T09:30:47Z</time></trkpt><trkpt lat="30.0040836353" lon="35.3844422009"><ele>1062.87</ele><time>2015-11-26T09:31:00Z</time></trkpt><trkpt lat="30.0040929392" lon="35.3844440449"><ele>1064.32</ele><time>2015-11-26T09:31:13Z</time></trkpt><trkpt lat="30.0040830486" lon="35.3844570369"><ele>1062.87</ele><time>2015-11-26T09:31:50Z</time></trkpt><trkpt lat="30.0041024946" lon="35.3844688553"><ele>1062.87</ele><time>2015-11-26T09:32:17Z</time></trkpt><trkpt lat="30.0041041709" lon="35.3844629880"><ele>1062.87</ele><time>2015-11-26T09:33:05Z</time></trkpt><trkpt lat="30.0041001476" lon="35.3844592161"><ele>1062.87</ele><time>2015-11-26T09:33:51Z</time></trkpt><trkpt lat="30.0040935259" lon="35.3844633233"><ele>1062.87</ele><time>2015-11-26T09:34:41Z</time></trkpt><trkpt lat="30.0041148998" lon="35.3844696097"><ele>1062.87</ele><time>2015-11-26T09:35:21Z</time></trkpt><trkpt lat="30.0041081104" lon="35.3844678495"><ele>1062.87</ele><time>2015-11-26T09:36:04Z</time></trkpt><trkpt lat="30.0041208509" lon="35.3844740521"><ele>1062.39</ele><time>2015-11-26T09:36:46Z</time></trkpt><trkpt lat="30.0041254610" lon="35.3844722081"><ele>1062.87</ele><time>2015-11-26T09:37:23Z</time></trkpt><trkpt lat="30.0041294005" lon="35.3844673466"><ele>1062.39</ele><time>2015-11-26T09:38:04Z</time></trkpt><trkpt lat="30.0041299034" lon="35.3844629880"><ele>1061.91</ele><time>2015-11-26T09:38:47Z</time></trkpt><trkpt lat="30.0041204318" lon="35.3844661731"><ele>1061.91</ele><time>2015-11-26T09:39:21Z</time></trkpt><trkpt lat="30.0041231979" lon="35.3844746388"><ele>1061.91</ele><time>2015-11-26T09:39:58Z</time></trkpt><trkpt lat="30.0041342620" lon="35.3844712861"><ele>1061.91</ele><time>2015-11-26T09:40:43Z</time></trkpt><trkpt lat="30.0041440688" lon="35.3844664246"><ele>1061.43</ele><time>2015-11-26T09:41:23Z</time></trkpt><trkpt lat="30.0041341782" lon="35.3844695259"><ele>1061.43</ele><time>2015-11-26T09:42:10Z</time></trkpt><trkpt lat="30.0041431468" lon="35.3844685201"><ele>1061.43</ele><time>2015-11-26T09:42:53Z</time></trkpt><trkpt lat="30.0041372795" lon="35.3844770696"><ele>1060.95</ele><time>2015-11-26T09:43:38Z</time></trkpt><trkpt lat="30.0041413028" lon="35.3844768181"><ele>1060.95</ele><time>2015-11-26T09:44:26Z</time></trkpt><trkpt lat="30.0041407160" lon="35.3844752256"><ele>1060.47</ele><time>2015-11-26T09:45:21Z</time></trkpt><trkpt lat="30.0041380338" lon="35.3844703641"><ele>1060.95</ele><time>2015-11-26T09:46:13Z</time></trkpt><trkpt lat="30.0041406322" lon="35.3844738007"><ele>1060.47</ele><time>2015-11-26T09:47:01Z</time></trkpt><trkpt lat="30.0041372795" lon="35.3844732139"><ele>1060.47</ele><time>2015-11-26T09:47:39Z</time></trkpt><trkpt lat="30.0041284785" lon="35.3844708670"><ele>1060.47</ele><time>2015-11-26T09:48:32Z</time></trkpt><trkpt lat="30.0041288976" lon="35.3844665922"><ele>1060.47</ele><time>2015-11-26T09:49:06Z</time></trkpt><trkpt lat="30.0041301548" lon="35.3844665084"><ele>1060.47</ele><time>2015-11-26T09:50:02Z</time></trkpt><trkpt lat="30.0041307416" lon="35.3844631556"><ele>1060.47</ele><time>2015-11-26T09:50:58Z</time></trkpt><trkpt lat="30.0041281432" lon="35.3844716214"><ele>1059.99</ele><time>2015-11-26T09:51:45Z</time></trkpt><trkpt lat="30.0041301548" lon="35.3844740521"><ele>1059.99</ele><time>2015-11-26T09:52:43Z</time></trkpt><trkpt lat="30.0041292328" lon="35.3844670951"><ele>1059.51</ele><time>2015-11-26T09:53:27Z</time></trkpt><trkpt lat="30.0041283946" lon="35.3844693583"><ele>1059.51</ele><time>2015-11-26T09:54:06Z</time></trkpt><trkpt lat="30.0041190069" lon="35.3844765667"><ele>1059.51</ele><time>2015-11-26T09:54:51Z</time></trkpt><trkpt lat="30.0041049253" lon="35.3844753932"><ele>1059.03</ele><time>2015-11-26T09:55:27Z</time></trkpt><trkpt lat="30.0040988903" lon="35.3844715375"><ele>1059.03</ele><time>2015-11-26T09:56:08Z</time></trkpt><trkpt lat="30.0040953699" lon="35.3844727948"><ele>1058.55</ele><time>2015-11-26T09:56:40Z</time></trkpt><trkpt lat="30.0040986389" lon="35.3844799194"><ele>1058.55</ele><time>2015-11-26T09:57:09Z</time></trkpt><trkpt lat="30.0041286461" lon="35.3844629880"><ele>1058.55</ele><time>2015-11-26T09:57:43Z</time></trkpt><trkpt lat="30.0041222759" lon="35.3844527621"><ele>1059.03</ele><time>2015-11-26T09:57:57Z</time></trkpt><trkpt lat="30.0041466672" lon="35.3844584618"><ele>1059.03</ele><time>2015-11-26T09:58:00Z</time></trkpt><trkpt lat="30.0041915942" lon="35.3844578750"><ele>1059.03</ele><time>2015-11-26T09:58:04Z</time></trkpt><trkpt lat="30.0042070169" lon="35.3844790813"><ele>1059.03</ele><time>2015-11-26T09:58:07Z</time></trkpt><trkpt lat="30.0041446555" lon="35.3845055681"><ele>1059.03</ele><time>2015-11-26T09:58:12Z</time></trkpt><trkpt lat="30.0040640216" lon="35.3846455459"><ele>1058.55</ele><time>2015-11-26T09:58:20Z</time></trkpt><trkpt lat="30.0039809570" lon="35.3850037884"><ele>1055.18</ele><time>2015-11-26T09:58:29Z</time></trkpt><trkpt lat="30.0039540511" lon="35.3853720054"><ele>1052.78</ele><time>2015-11-26T09:58:34Z</time></trkpt><trkpt lat="30.0040198490" lon="35.3856714070"><ele>1051.82</ele><time>2015-11-26T09:58:40Z</time></trkpt><trkpt lat="30.0040197652" lon="35.3858614247"><ele>1050.86</ele><time>2015-11-26T09:58:44Z</time></trkpt><trkpt lat="30.0040351041" lon="35.3862640075"><ele>1048.94</ele><time>2015-11-26T09:58:56Z</time></trkpt><trkpt lat="30.0040469225" lon="35.3863650095"><ele>1047.97</ele><time>2015-11-26T09:59:03Z</time></trkpt><trkpt lat="30.0040294044" lon="35.3866712842"><ele>1045.09</ele><time>2015-11-26T09:59:16Z</time></trkpt><trkpt lat="30.0040352717" lon="35.3867685143"><ele>1046.05</ele><time>2015-11-26T09:59:21Z</time></trkpt><trkpt lat="30.0040608365" lon="35.3867977671"><ele>1046.53</ele><time>2015-11-26T09:59:24Z</time></trkpt><trkpt lat="30.0040641055" lon="35.3868177161"><ele>1046.53</ele><time>2015-11-26T09:59:26Z</time></trkpt><trkpt lat="30.0041191746" lon="35.3870862722"><ele>1047.49</ele><time>2015-11-26T09:59:40Z</time></trkpt><trkpt lat="30.0040131435" lon="35.3874579258"><ele>1049.90</ele><time>2015-11-26T09:59:53Z</time></trkpt><trkpt lat="30.0038522109" lon="35.3876000829"><ele>1052.30</ele><time>2015-11-26T10:00:07Z</time></trkpt><trkpt lat="30.0037199445" lon="35.3878513724"><ele>1054.70</ele><time>2015-11-26T10:00:23Z</time></trkpt><trkpt lat="30.0035979878" lon="35.3880468383"><ele>1056.63</ele><time>2015-11-26T10:00:37Z</time></trkpt><trkpt lat="30.0034487899" lon="35.3883735649"><ele>1059.03</ele><time>2015-11-26T10:00:56Z</time></trkpt><trkpt lat="30.0034277514" lon="35.3884679452"><ele>1059.51</ele><time>2015-11-26T10:01:01Z</time></trkpt><trkpt lat="30.0032063853" lon="35.3887274489"><ele>1061.91</ele><time>2015-11-26T10:01:21Z</time></trkpt><trkpt lat="30.0030151941" lon="35.3888981882"><ele>1064.32</ele><time>2015-11-26T10:01:35Z</time></trkpt><trkpt lat="30.0028230809" lon="35.3890721127"><ele>1066.24</ele><time>2015-11-26T10:01:51Z</time></trkpt><trkpt lat="30.0027837697" lon="35.3891048860"><ele>1066.72</ele><time>2015-11-26T10:01:54Z</time></trkpt><trkpt lat="30.0024696160" lon="35.3894010186"><ele>1067.68</ele><time>2015-11-26T10:02:11Z</time></trkpt><trkpt lat="30.0022303965" lon="35.3895912040"><ele>1070.08</ele><time>2015-11-26T10:02:25Z</time></trkpt><trkpt lat="30.0020972081" lon="35.3897078801"><ele>1071.05</ele><time>2015-11-26T10:02:35Z</time></trkpt><trkpt lat="30.0018703099" lon="35.3899616841"><ele>1072.49</ele><time>2015-11-26T10:02:54Z</time></trkpt><trkpt lat="30.0017639436" lon="35.3902371135"><ele>1074.41</ele><time>2015-11-26T10:03:07Z</time></trkpt><trkpt lat="30.0017483532" lon="35.3903576452"><ele>1074.89</ele><time>2015-11-26T10:03:13Z</time></trkpt><trkpt lat="30.0016305037" lon="35.3906857129"><ele>1075.37</ele><time>2015-11-26T10:03:27Z</time></trkpt><trkpt lat="30.0014399830" lon="35.3909655008"><ele>1076.81</ele><time>2015-11-26T10:03:41Z</time></trkpt><trkpt lat="30.0012072176" lon="35.3913201392"><ele>1078.26</ele><time>2015-11-26T10:03:59Z</time></trkpt><trkpt lat="30.0009950716" lon="35.3916865122"><ele>1079.70</ele><time>2015-11-26T10:04:13Z</time></trkpt><trkpt lat="30.0009172037" lon="35.3920089640"><ele>1079.70</ele><time>2015-11-26T10:04:26Z</time></trkpt><trkpt lat="30.0008295290" lon="35.3922922723"><ele>1079.22</ele><time>2015-11-26T10:04:34Z</time></trkpt><trkpt lat="30.0006570294" lon="35.3923076112"><ele>1079.22</ele><time>2015-11-26T10:04:40Z</time></trkpt><trkpt lat="30.0003374275" lon="35.3923048452"><ele>1077.29</ele><time>2015-11-26T10:04:49Z</time></trkpt><trkpt lat="29.9999890756" lon="35.3925425559"><ele>1076.81</ele><time>2015-11-26T10:05:00Z</time></trkpt><trkpt lat="29.9997852277" lon="35.3927269578"><ele>1076.81</ele><time>2015-11-26T10:05:06Z</time></trkpt><trkpt lat="29.9995567370" lon="35.3928233497"><ele>1075.85</ele><time>2015-11-26T10:05:11Z</time></trkpt><trkpt lat="29.9991532322" lon="35.3927122895"><ele>1077.78</ele><time>2015-11-26T10:05:24Z</time></trkpt><trkpt lat="29.9987918884" lon="35.3926828690"><ele>1079.70</ele><time>2015-11-26T10:05:37Z</time></trkpt><trkpt lat="29.9984050635" lon="35.3927298915"><ele>1081.62</ele><time>2015-11-26T10:05:52Z</time></trkpt><trkpt lat="29.9980810191" lon="35.3929512575"><ele>1081.14</ele><time>2015-11-26T10:06:03Z</time></trkpt><trkpt lat="29.9978376925" lon="35.3931436222"><ele>1082.10</ele><time>2015-11-26T10:06:13Z</time></trkpt><trkpt lat="29.9974184297" lon="35.3933591209"><ele>1083.54</ele><time>2015-11-26T10:06:28Z</time></trkpt><trkpt lat="29.9970171880" lon="35.3935499769"><ele>1084.50</ele><time>2015-11-26T10:06:44Z</time></trkpt><trkpt lat="29.9967814051" lon="35.3936238214"><ele>1082.58</ele><time>2015-11-26T10:06:49Z</time></trkpt><trkpt lat="29.9963573646" lon="35.3934556805"><ele>1079.22</ele><time>2015-11-26T10:06:56Z</time></trkpt><trkpt lat="29.9961084221" lon="35.3934230749"><ele>1080.66</ele><time>2015-11-26T10:07:01Z</time></trkpt><trkpt lat="29.9955962878" lon="35.3933010343"><ele>1078.74</ele><time>2015-11-26T10:07:13Z</time></trkpt><trkpt lat="29.9955073558" lon="35.3932646569"><ele>1079.70</ele><time>2015-11-26T10:07:15Z</time></trkpt><trkpt lat="29.9952252209" lon="35.3931510821"><ele>1080.18</ele><time>2015-11-26T10:07:24Z</time></trkpt><trkpt lat="29.9949424155" lon="35.3930334002"><ele>1076.81</ele><time>2015-11-26T10:07:32Z</time></trkpt><trkpt lat="29.9949091394" lon="35.3930145409"><ele>1076.33</ele><time>2015-11-26T10:07:33Z</time></trkpt><trkpt lat="29.9947617855" lon="35.3927258682"><ele>1074.89</ele><time>2015-11-26T10:07:40Z</time></trkpt><trkpt lat="29.9946236517" lon="35.3923850600"><ele>1077.29</ele><time>2015-11-26T10:07:52Z</time></trkpt><trkpt lat="29.9945814908" lon="35.3918915335"><ele>1075.85</ele><time>2015-11-26T10:08:06Z</time></trkpt><trkpt lat="29.9945716001" lon="35.3916008491"><ele>1075.37</ele><time>2015-11-26T10:08:13Z</time></trkpt><trkpt lat="29.9945985898" lon="35.3913980909"><ele>1074.41</ele><time>2015-11-26T10:08:17Z</time></trkpt><trkpt lat="29.9945944827" lon="35.3912384994"><ele>1074.41</ele><time>2015-11-26T10:08:20Z</time></trkpt><trkpt lat="29.9945555907" lon="35.3909655008"><ele>1072.01</ele><time>2015-11-26T10:08:24Z</time></trkpt><trkpt lat="29.9945709296" lon="35.3904785961"><ele>1070.57</ele><time>2015-11-26T10:08:30Z</time></trkpt><trkpt lat="29.9943866953" lon="35.3895331174"><ele>1067.68</ele><time>2015-11-26T10:08:42Z</time></trkpt><trkpt lat="29.9942794070" lon="35.3893055487"><ele>1066.72</ele><time>2015-11-26T10:08:45Z</time></trkpt><trkpt lat="29.9942266848" lon="35.3890085779"><ele>1066.24</ele><time>2015-11-26T10:08:49Z</time></trkpt><trkpt lat="29.9940348230" lon="35.3879382927"><ele>1064.32</ele><time>2015-11-26T10:09:05Z</time></trkpt><trkpt lat="29.9939940032" lon="35.3878025059"><ele>1063.84</ele><time>2015-11-26T10:09:07Z</time></trkpt><trkpt lat="29.9936386943" lon="35.3869794868"><ele>1061.91</ele><time>2015-11-26T10:09:21Z</time></trkpt><trkpt lat="29.9935178272" lon="35.3866364993"><ele>1060.95</ele><time>2015-11-26T10:09:27Z</time></trkpt><trkpt lat="29.9934117123" lon="35.3858659510"><ele>1057.11</ele><time>2015-11-26T10:09:38Z</time></trkpt><trkpt lat="29.9931335170" lon="35.3849856835"><ele>1054.70</ele><time>2015-11-26T10:09:50Z</time></trkpt><trkpt lat="29.9927641265" lon="35.3841295559"><ele>1051.82</ele><time>2015-11-26T10:10:02Z</time></trkpt><trkpt lat="29.9927359633" lon="35.3840540349"><ele>1051.34</ele><time>2015-11-26T10:10:03Z</time></trkpt><trkpt lat="29.9921759684" lon="35.3830635455"><ele>1047.97</ele><time>2015-11-26T10:10:17Z</time></trkpt><trkpt lat="29.9917759839" lon="35.3823168855"><ele>1045.09</ele><time>2015-11-26T10:10:27Z</time></trkpt><trkpt lat="29.9913313240" lon="35.3815576527"><ele>1041.73</ele><time>2015-11-26T10:10:38Z</time></trkpt><trkpt lat="29.9911527894" lon="35.3811984882"><ele>1040.28</ele><time>2015-11-26T10:10:43Z</time></trkpt><trkpt lat="29.9908951297" lon="35.3809585143"><ele>1040.28</ele><time>2015-11-26T10:10:48Z</time></trkpt><trkpt lat="29.9907818902" lon="35.3809072170"><ele>1038.84</ele><time>2015-11-26T10:10:50Z</time></trkpt><trkpt lat="29.9904068839" lon="35.3806355596"><ele>1037.88</ele><time>2015-11-26T10:10:59Z</time></trkpt><trkpt lat="29.9903197959" lon="35.3804811649"><ele>1037.40</ele><time>2015-11-26T10:11:03Z</time></trkpt><trkpt lat="29.9902037904" lon="35.3803270217"><ele>1036.44</ele><time>2015-11-26T10:11:07Z</time></trkpt><trkpt lat="29.9899856094" lon="35.3799852077"><ele>1035.48</ele><time>2015-11-26T10:11:14Z</time></trkpt><trkpt lat="29.9895215034" lon="35.3793805372"><ele>1033.07</ele><time>2015-11-26T10:11:27Z</time></trkpt><trkpt lat="29.9890851416" lon="35.3788207099"><ele>1030.19</ele><time>2015-11-26T10:11:36Z</time></trkpt><trkpt lat="29.9889696389" lon="35.3786161914"><ele>1029.71</ele><time>2015-11-26T10:11:39Z</time></trkpt><trkpt lat="29.9888054375" lon="35.3783775587"><ele>1029.71</ele><time>2015-11-26T10:11:43Z</time></trkpt><trkpt lat="29.9883356318" lon="35.3776567988"><ele>1028.27</ele><time>2015-11-26T10:11:57Z</time></trkpt><trkpt lat="29.9879415147" lon="35.3767249826"><ele>1026.34</ele><time>2015-11-26T10:12:13Z</time></trkpt><trkpt lat="29.9877691828" lon="35.3763992619"><ele>1025.38</ele><time>2015-11-26T10:12:19Z</time></trkpt><trkpt lat="29.9873420410" lon="35.3758397698"><ele>1024.90</ele><time>2015-11-26T10:12:33Z</time></trkpt><trkpt lat="29.9871604051" lon="35.3756600618"><ele>1024.90</ele><time>2015-11-26T10:12:39Z</time></trkpt><trkpt lat="29.9866341054" lon="35.3752442356"><ele>1025.38</ele><time>2015-11-26T10:12:55Z</time></trkpt><trkpt lat="29.9861901160" lon="35.3750118893"><ele>1024.42</ele><time>2015-11-26T10:13:08Z</time></trkpt><trkpt lat="29.9858772196" lon="35.3748750128"><ele>1024.42</ele><time>2015-11-26T10:13:19Z</time></trkpt><trkpt lat="29.9858285207" lon="35.3748321813"><ele>1024.42</ele><time>2015-11-26T10:13:28Z</time></trkpt><trkpt lat="29.9858391657" lon="35.3748399764"><ele>1024.42</ele><time>2015-11-26T10:13:54Z</time></trkpt><trkpt lat="29.9857688416" lon="35.3748051915"><ele>1024.42</ele><time>2015-11-26T10:14:24Z</time></trkpt><trkpt lat="29.9854156282" lon="35.3745960630"><ele>1023.94</ele><time>2015-11-26T10:14:37Z</time></trkpt><trkpt lat="29.9850443099" lon="35.3743812349"><ele>1022.98</ele><time>2015-11-26T10:14:52Z</time></trkpt><trkpt lat="29.9846915156" lon="35.3742458671"><ele>1022.02</ele><time>2015-11-26T10:15:06Z</time></trkpt><trkpt lat="29.9842745997" lon="35.3740150295"><ele>1021.54</ele><time>2015-11-26T10:15:23Z</time></trkpt><trkpt lat="29.9842771143" lon="35.3740224056"><ele>1021.54</ele><time>2015-11-26T10:15:41Z</time></trkpt><trkpt lat="29.9842833169" lon="35.3740276862"><ele>1021.54</ele><time>2015-11-26T10:16:19Z</time></trkpt><trkpt lat="29.9842906930" lon="35.3740107547"><ele>1021.06</ele><time>2015-11-26T10:16:42Z</time></trkpt><trkpt lat="29.9843748473" lon="35.3740223218"><ele>1021.54</ele><time>2015-11-26T10:16:54Z</time></trkpt><trkpt lat="29.9843693152" lon="35.3739974275"><ele>1021.54</ele><time>2015-11-26T10:17:25Z</time></trkpt><trkpt lat="29.9843700696" lon="35.3739690967"><ele>1021.06</ele><time>2015-11-26T10:17:40Z</time></trkpt><trkpt lat="29.9843595084" lon="35.3739526682"><ele>1021.06</ele><time>2015-11-26T10:18:00Z</time></trkpt><trkpt lat="29.9843645375" lon="35.3739706054"><ele>1021.06</ele><time>2015-11-26T10:18:31Z</time></trkpt><trkpt lat="29.9843738414" lon="35.3739373293"><ele>1021.06</ele><time>2015-11-26T10:18:58Z</time></trkpt><trkpt lat="29.9843989033" lon="35.3738873731"><ele>1021.06</ele><time>2015-11-26T10:19:02Z</time></trkpt><trkpt lat="29.9845018331" lon="35.3737006243"><ele>1021.06</ele><time>2015-11-26T10:19:21Z</time></trkpt><trkpt lat="29.9845463410" lon="35.3736148775"><ele>1021.54</ele><time>2015-11-26T10:19:37Z</time></trkpt><trkpt lat="29.9845577404" lon="35.3736054059"><ele>1021.54</ele><time>2015-11-26T10:19:39Z</time></trkpt><trkpt lat="29.9846081156" lon="35.3735934198"><ele>1021.06</ele><time>2015-11-26T10:19:50Z</time></trkpt><trkpt lat="29.9846337643" lon="35.3735428769"><ele>1051.34</ele><time>2015-11-26T10:45:15Z</time></trkpt><trkpt lat="29.9846128933" lon="35.3735619038"><ele>1049.90</ele><time>2015-11-26T10:45:17Z</time></trkpt><trkpt lat="29.9846124742" lon="35.3735655919"><ele>1046.53</ele><time>2015-11-26T10:45:22Z</time></trkpt><trkpt lat="29.9846139830" lon="35.3735671844"><ele>1043.65</ele><time>2015-11-26T10:45:25Z</time></trkpt><trkpt lat="29.9846141506" lon="35.3735655919"><ele>1039.80</ele><time>2015-11-26T10:45:29Z</time></trkpt><trkpt lat="29.9846288189" lon="35.3735706210"><ele>1036.92</ele><time>2015-11-26T10:45:33Z</time></trkpt><trkpt lat="29.9846424814" lon="35.3735780809"><ele>1033.55</ele><time>2015-11-26T10:45:38Z</time></trkpt><trkpt lat="29.9846397154" lon="35.3735809308"><ele>1033.07</ele><time>2015-11-26T10:45:40Z</time></trkpt><trkpt lat="29.9845152441" lon="35.3736623190"><ele>1029.23</ele><time>2015-11-26T10:45:48Z</time></trkpt><trkpt lat="29.9841860868" lon="35.3738338966"><ele>1026.83</ele><time>2015-11-26T10:46:01Z</time></trkpt><trkpt lat="29.9841264915" lon="35.3738523368"><ele>1026.34</ele><time>2015-11-26T10:46:03Z</time></trkpt><trkpt lat="29.9837870244" lon="35.3736258578"><ele>1024.42</ele><time>2015-11-26T10:46:15Z</time></trkpt><trkpt lat="29.9834499881" lon="35.3733866382"><ele>1022.50</ele><time>2015-11-26T10:46:25Z</time></trkpt><trkpt lat="29.9828045815" lon="35.3730068542"><ele>1020.10</ele><time>2015-11-26T10:46:43Z</time></trkpt><trkpt lat="29.9820937961" lon="35.3725346178"><ele>1018.17</ele><time>2015-11-26T10:47:02Z</time></trkpt><trkpt lat="29.9815507326" lon="35.3722070530"><ele>1016.73</ele><time>2015-11-26T10:47:16Z</time></trkpt><trkpt lat="29.9814224895" lon="35.3720892034"><ele>1016.73</ele><time>2015-11-26T10:47:20Z</time></trkpt><trkpt lat="29.9812512472" lon="35.3719387483"><ele>1016.25</ele><time>2015-11-26T10:47:25Z</time></trkpt><trkpt lat="29.9810684379" lon="35.3718013689"><ele>1015.29</ele><time>2015-11-26T10:47:30Z</time></trkpt><trkpt lat="29.9806035776" lon="35.3714798391"><ele>1014.81</ele><time>2015-11-26T10:47:42Z</time></trkpt><trkpt lat="29.9799362104" lon="35.3711171541"><ele>1013.37</ele><time>2015-11-26T10:47:59Z</time></trkpt><trkpt lat="29.9795463681" lon="35.3708800301"><ele>1012.41</ele><time>2015-11-26T10:48:08Z</time></trkpt><trkpt lat="29.9789276998" lon="35.3707840573"><ele>1012.41</ele><time>2015-11-26T10:48:23Z</time></trkpt><trkpt lat="29.9782875739" lon="35.3704078775"><ele>1011.93</ele><time>2015-11-26T10:48:40Z</time></trkpt><trkpt lat="29.9777654652" lon="35.3699919675"><ele>1010.96</ele><time>2015-11-26T10:48:55Z</time></trkpt><trkpt lat="29.9776062090" lon="35.3698845115"><ele>1010.48</ele><time>2015-11-26T10:48:59Z</time></trkpt><trkpt lat="29.9772642273" lon="35.3696992714"><ele>1009.52</ele><time>2015-11-26T10:49:07Z</time></trkpt><trkpt lat="29.9771521613" lon="35.3696269356"><ele>1009.52</ele><time>2015-11-26T10:49:10Z</time></trkpt><trkpt lat="29.9768906459" lon="35.3693991154"><ele>1008.56</ele><time>2015-11-26T10:49:17Z</time></trkpt><trkpt lat="29.9763719738" lon="35.3687147330"><ele>1008.08</ele><time>2015-11-26T10:49:33Z</time></trkpt><trkpt lat="29.9762561359" lon="35.3684835602"><ele>1008.08</ele><time>2015-11-26T10:49:38Z</time></trkpt><trkpt lat="29.9760998134" lon="35.3681597672"><ele>1008.08</ele><time>2015-11-26T10:49:45Z</time></trkpt><trkpt lat="29.9760662857" lon="35.3680651356"><ele>1007.60</ele><time>2015-11-26T10:49:47Z</time></trkpt><trkpt lat="29.9760037567" lon="35.3678472061"><ele>1008.08</ele><time>2015-11-26T10:49:52Z</time></trkpt><trkpt lat="29.9759444967" lon="35.3677296918"><ele>1008.08</ele><time>2015-11-26T10:49:55Z</time></trkpt><trkpt lat="29.9757032655" lon="35.3674406838"><ele>1007.60</ele><time>2015-11-26T10:50:03Z</time></trkpt><trkpt lat="29.9751717690" lon="35.3668696247"><ele>1007.12</ele><time>2015-11-26T10:50:20Z</time></trkpt><trkpt lat="29.9746743869" lon="35.3664219473"><ele>1006.16</ele><time>2015-11-26T10:50:37Z</time></trkpt><trkpt lat="29.9746522587" lon="35.3664213605"><ele>1006.16</ele><time>2015-11-26T10:51:07Z</time></trkpt><trkpt lat="29.9746517558" lon="35.3664108831"><ele>1005.68</ele><time>2015-11-26T10:51:58Z</time></trkpt><trkpt lat="29.9746536836" lon="35.3664080333"><ele>1006.64</ele><time>2015-11-26T10:52:42Z</time></trkpt><trkpt lat="29.9745791685" lon="35.3663456719"><ele>1006.64</ele><time>2015-11-26T10:53:05Z</time></trkpt><trkpt lat="29.9742342532" lon="35.3660103958"><ele>1005.68</ele><time>2015-11-26T10:53:19Z</time></trkpt><trkpt lat="29.9741611630" lon="35.3659078851"><ele>1005.20</ele><time>2015-11-26T10:53:22Z</time></trkpt><trkpt lat="29.9741111230" lon="35.3658337053"><ele>1005.20</ele><time>2015-11-26T10:53:24Z</time></trkpt><trkpt lat="29.9736203626" lon="35.3651976027"><ele>1004.23</ele><time>2015-11-26T10:53:41Z</time></trkpt><trkpt lat="29.9728711043" lon="35.3646466602"><ele>1003.75</ele><time>2015-11-26T10:54:01Z</time></trkpt><trkpt lat="29.9724993668" lon="35.3643296566"><ele>1002.79</ele><time>2015-11-26T10:54:11Z</time></trkpt><trkpt lat="29.9724311382" lon="35.3642493580"><ele>1002.31</ele><time>2015-11-26T10:54:13Z</time></trkpt><trkpt lat="29.9723388534" lon="35.3641196899"><ele>1002.31</ele><time>2015-11-26T10:54:16Z</time></trkpt><trkpt lat="29.9721471593" lon="35.3638021834"><ele>1001.35</ele><time>2015-11-26T10:54:23Z</time></trkpt><trkpt lat="29.9719538726" lon="35.3631338943"><ele>999.43</ele><time>2015-11-26T10:54:35Z</time></trkpt><trkpt lat="29.9717980530" lon="35.3629309684"><ele>999.91</ele><time>2015-11-26T10:54:40Z</time></trkpt><trkpt lat="29.9710740242" lon="35.3624565527"><ele>998.47</ele><time>2015-11-26T10:54:57Z</time></trkpt><trkpt lat="29.9709417578" lon="35.3623548802"><ele>997.99</ele><time>2015-11-26T10:55:00Z</time></trkpt><trkpt lat="29.9702105206" lon="35.3617210407"><ele>995.58</ele><time>2015-11-26T10:55:18Z</time></trkpt><trkpt lat="29.9700433016" lon="35.3615995869"><ele>995.10</ele><time>2015-11-26T10:55:22Z</time></trkpt><trkpt lat="29.9696762580" lon="35.3614903707"><ele>994.62</ele><time>2015-11-26T10:55:30Z</time></trkpt><trkpt lat="29.9695892539" lon="35.3614487126"><ele>994.62</ele><time>2015-11-26T10:55:32Z</time></trkpt><trkpt lat="29.9691230524" lon="35.3610233311"><ele>994.62</ele><time>2015-11-26T10:55:45Z</time></trkpt><trkpt lat="29.9688518979" lon="35.3608255181"><ele>994.14</ele><time>2015-11-26T10:55:52Z</time></trkpt><trkpt lat="29.9685329664" lon="35.3606873006"><ele>993.66</ele><time>2015-11-26T10:55:59Z</time></trkpt><trkpt lat="29.9679862987" lon="35.3606118634"><ele>996.06</ele><time>2015-11-26T10:56:13Z</time></trkpt><trkpt lat="29.9677645974" lon="35.3605285473"><ele>998.47</ele><time>2015-11-26T10:56:25Z</time></trkpt><trkpt lat="29.9675226118" lon="35.3604007233"><ele>999.91</ele><time>2015-11-26T10:56:42Z</time></trkpt><trkpt lat="29.9672801234" lon="35.3602677863"><ele>999.91</ele><time>2015-11-26T10:56:55Z</time></trkpt><trkpt lat="29.9668561667" lon="35.3600307461"><ele>997.99</ele><time>2015-11-26T10:57:10Z</time></trkpt><trkpt lat="29.9664480519" lon="35.3596890159"><ele>994.62</ele><time>2015-11-26T10:57:20Z</time></trkpt><trkpt lat="29.9660655018" lon="35.3593964875"><ele>993.18</ele><time>2015-11-26T10:57:31Z</time></trkpt><trkpt lat="29.9657272082" lon="35.3594100662"><ele>991.26</ele><time>2015-11-26T10:57:43Z</time></trkpt><trkpt lat="29.9652014952" lon="35.3592125047"><ele>991.26</ele><time>2015-11-26T10:57:59Z</time></trkpt><trkpt lat="29.9644927215" lon="35.3589455411"><ele>990.30</ele><time>2015-11-26T10:58:17Z</time></trkpt><trkpt lat="29.9644208886" lon="35.3588954173"><ele>990.30</ele><time>2015-11-26T10:58:19Z</time></trkpt><trkpt lat="29.9640784040" lon="35.3584614862"><ele>989.81</ele><time>2015-11-26T10:58:33Z</time></trkpt><trkpt lat="29.9636660982" lon="35.3578958753"><ele>989.33</ele><time>2015-11-26T10:58:48Z</time></trkpt><trkpt lat="29.9631564785" lon="35.3572240658"><ele>987.89</ele><time>2015-11-26T10:59:05Z</time></trkpt><trkpt lat="29.9629777763" lon="35.3569932282"><ele>987.89</ele><time>2015-11-26T10:59:11Z</time></trkpt><trkpt lat="29.9628971424" lon="35.3568783961"><ele>986.93</ele><time>2015-11-26T10:59:14Z</time></trkpt><trkpt lat="29.9624127522" lon="35.3562080115"><ele>986.45</ele><time>2015-11-26T10:59:33Z</time></trkpt><trkpt lat="29.9620033801" lon="35.3556434903"><ele>985.97</ele><time>2015-11-26T10:59:49Z</time></trkpt><trkpt lat="29.9619494006" lon="35.3555709869"><ele>985.49</ele><time>2015-11-26T10:59:51Z</time></trkpt><trkpt lat="29.9618230015" lon="35.3553848248"><ele>985.01</ele><time>2015-11-26T10:59:56Z</time></trkpt><trkpt lat="29.9614494201" lon="35.3548555076"><ele>983.57</ele><time>2015-11-26T11:00:10Z</time></trkpt><trkpt lat="29.9609701429" lon="35.3542380128"><ele>982.12</ele><time>2015-11-26T11:00:26Z</time></trkpt><trkpt lat="29.9604015984" lon="35.3536744975"><ele>981.64</ele><time>2015-11-26T11:00:43Z</time></trkpt><trkpt lat="29.9597202335" lon="35.3530181944"><ele>980.68</ele><time>2015-11-26T11:01:03Z</time></trkpt><trkpt lat="29.9591189995" lon="35.3524602950"><ele>979.24</ele><time>2015-11-26T11:01:20Z</time></trkpt><trkpt lat="29.9586814642" lon="35.3520376794"><ele>978.28</ele><time>2015-11-26T11:01:32Z</time></trkpt><trkpt lat="29.9581026100" lon="35.3515102901"><ele>977.80</ele><time>2015-11-26T11:01:48Z</time></trkpt><trkpt lat="29.9576056469" lon="35.3510032687"><ele>978.28</ele><time>2015-11-26T11:02:04Z</time></trkpt><trkpt lat="29.9575120211" lon="35.3509140853"><ele>978.28</ele><time>2015-11-26T11:02:07Z</time></trkpt><trkpt lat="29.9572081771" lon="35.3504907154"><ele>978.28</ele><time>2015-11-26T11:02:19Z</time></trkpt><trkpt lat="29.9567096215" lon="35.3499098495"><ele>977.32</ele><time>2015-11-26T11:02:36Z</time></trkpt><trkpt lat="29.9561886862" lon="35.3494981304"><ele>975.88</ele><time>2015-11-26T11:02:50Z</time></trkpt><trkpt lat="29.9558165297" lon="35.3491188493"><ele>974.91</ele><time>2015-11-26T11:03:03Z</time></trkpt><trkpt lat="29.9554166291" lon="35.3486276697"><ele>973.95</ele><time>2015-11-26T11:03:16Z</time></trkpt><trkpt lat="29.9549878947" lon="35.3480931558"><ele>972.99</ele><time>2015-11-26T11:03:31Z</time></trkpt><trkpt lat="29.9543547258" lon="35.3474219330"><ele>971.55</ele><time>2015-11-26T11:03:49Z</time></trkpt><trkpt lat="29.9536839221" lon="35.3470045980"><ele>970.11</ele><time>2015-11-26T11:04:05Z</time></trkpt><trkpt lat="29.9532605521" lon="35.3468054440"><ele>969.63</ele><time>2015-11-26T11:04:15Z</time></trkpt><trkpt lat="29.9524566438" lon="35.3464558348"><ele>968.18</ele><time>2015-11-26T11:04:31Z</time></trkpt><trkpt lat="29.9524102081" lon="35.3464197088"><ele>967.70</ele><time>2015-11-26T11:04:32Z</time></trkpt><trkpt lat="29.9522877485" lon="35.3462965786"><ele>967.22</ele><time>2015-11-26T11:04:35Z</time></trkpt><trkpt lat="29.9520852417" lon="35.3461575229"><ele>966.74</ele><time>2015-11-26T11:04:40Z</time></trkpt><trkpt lat="29.9520066194" lon="35.3460968379"><ele>966.74</ele><time>2015-11-26T11:04:42Z</time></trkpt><trkpt lat="29.9518994987" lon="35.3459913097"><ele>966.26</ele><time>2015-11-26T11:04:45Z</time></trkpt><trkpt lat="29.9517487083" lon="35.3459152859"><ele>966.26</ele><time>2015-11-26T11:04:49Z</time></trkpt><trkpt lat="29.9515322037" lon="35.3458755556"><ele>965.78</ele><time>2015-11-26T11:04:55Z</time></trkpt><trkpt lat="29.9513792340" lon="35.3458178882"><ele>965.30</ele><time>2015-11-26T11:04:59Z</time></trkpt><trkpt lat="29.9513022043" lon="35.3457749728"><ele>965.30</ele><time>2015-11-26T11:05:01Z</time></trkpt><trkpt lat="29.9511287827" lon="35.3455632459"><ele>965.30</ele><time>2015-11-26T11:05:08Z</time></trkpt><trkpt lat="29.9511034694" lon="35.3455183189"><ele>965.30</ele><time>2015-11-26T11:05:10Z</time></trkpt><trkpt lat="29.9509945046" lon="35.3454723023"><ele>965.30</ele><time>2015-11-26T11:05:15Z</time></trkpt><trkpt lat="29.9505930953" lon="35.3454299737"><ele>965.30</ele><time>2015-11-26T11:05:28Z</time></trkpt><trkpt lat="29.9504479207" lon="35.3452449013"><ele>965.30</ele><time>2015-11-26T11:05:40Z</time></trkpt><trkpt lat="29.9504249543" lon="35.3452195879"><ele>965.30</ele><time>2015-11-26T11:05:43Z</time></trkpt><trkpt lat="29.9504376110" lon="35.3451040853"><ele>964.82</ele><time>2015-11-26T11:05:51Z</time></trkpt><trkpt lat="29.9504185002" lon="35.3450493515"><ele>964.34</ele><time>2015-11-26T11:06:01Z</time></trkpt><trkpt lat="29.9504096154" lon="35.3450455796"><ele>964.34</ele><time>2015-11-26T11:06:24Z</time></trkpt><trkpt lat="29.9503119662" lon="35.3449133132"><ele>963.86</ele><time>2015-11-26T11:06:37Z</time></trkpt><trkpt lat="29.9501218647" lon="35.3445174359"><ele>962.42</ele><time>2015-11-26T11:06:50Z</time></trkpt><trkpt lat="29.9498597626" lon="35.3440168686"><ele>961.46</ele><time>2015-11-26T11:07:05Z</time></trkpt><trkpt lat="29.9498512130" lon="35.3437687643"><ele>960.98</ele><time>2015-11-26T11:07:13Z</time></trkpt><trkpt lat="29.9499218725" lon="35.3436100110"><ele>960.49</ele><time>2015-11-26T11:07:17Z</time></trkpt><trkpt lat="29.9497293402" lon="35.3432521038"><ele>960.98</ele><time>2015-11-26T11:07:29Z</time></trkpt><trkpt lat="29.9493991770" lon="35.3430508543"><ele>960.98</ele><time>2015-11-26T11:07:40Z</time></trkpt><trkpt lat="29.9492429383" lon="35.3428432345"><ele>960.98</ele><time>2015-11-26T11:07:50Z</time></trkpt><trkpt lat="29.9493093230" lon="35.3424966428"><ele>960.98</ele><time>2015-11-26T11:08:01Z</time></trkpt><trkpt lat="29.9493901245" lon="35.3420181200"><ele>961.94</ele><time>2015-11-26T11:08:15Z</time></trkpt><trkpt lat="29.9494129233" lon="35.3414861206"><ele>962.90</ele><time>2015-11-26T11:08:29Z</time></trkpt><trkpt lat="29.9491918087" lon="35.3412070870"><ele>962.90</ele><time>2015-11-26T11:08:39Z</time></trkpt><trkpt lat="29.9489963427" lon="35.3411700390"><ele>962.90</ele><time>2015-11-26T11:08:45Z</time></trkpt><trkpt lat="29.9488766491" lon="35.3411267884"><ele>962.42</ele><time>2015-11-26T11:08:48Z</time></trkpt><trkpt lat="29.9486908223" lon="35.3411273751"><ele>961.94</ele><time>2015-11-26T11:08:52Z</time></trkpt><trkpt lat="29.9483817816" lon="35.3410654329"><ele>960.49</ele><time>2015-11-26T11:08:58Z</time></trkpt><trkpt lat="29.9477706570" lon="35.3406560607"><ele>960.01</ele><time>2015-11-26T11:09:12Z</time></trkpt><trkpt lat="29.9473671522" lon="35.3403161746"><ele>962.42</ele><time>2015-11-26T11:09:26Z</time></trkpt><trkpt lat="29.9471344706" lon="35.3402090538"><ele>964.34</ele><time>2015-11-26T11:09:39Z</time></trkpt><trkpt lat="29.9469332211" lon="35.3401499614"><ele>966.26</ele><time>2015-11-26T11:09:53Z</time></trkpt><trkpt lat="29.9468842708" lon="35.3401318565"><ele>966.26</ele><time>2015-11-26T11:09:57Z</time></trkpt><trkpt lat="29.9465768225" lon="35.3400245681"><ele>965.30</ele><time>2015-11-26T11:10:11Z</time></trkpt><trkpt lat="29.9465386849" lon="35.3400192037"><ele>964.82</ele><time>2015-11-26T11:10:12Z</time></trkpt><trkpt lat="29.9462454859" lon="35.3400329500"><ele>963.86</ele><time>2015-11-26T11:10:19Z</time></trkpt><trkpt lat="29.9460696336" lon="35.3400508873"><ele>962.90</ele><time>2015-11-26T11:10:23Z</time></trkpt><trkpt lat="29.9459045939" lon="35.3400612809"><ele>961.94</ele><time>2015-11-26T11:10:26Z</time></trkpt><trkpt lat="29.9455061182" lon="35.3401923738"><ele>960.98</ele><time>2015-11-26T11:10:36Z</time></trkpt><trkpt lat="29.9454191979" lon="35.3402570821"><ele>960.49</ele><time>2015-11-26T11:10:39Z</time></trkpt><trkpt lat="29.9452521466" lon="35.3403129056"><ele>959.53</ele><time>2015-11-26T11:10:43Z</time></trkpt><trkpt lat="29.9451474566" lon="35.3403351177"><ele>959.05</ele><time>2015-11-26T11:10:45Z</time></trkpt><trkpt lat="29.9448286090" lon="35.3403168451"><ele>955.69</ele><time>2015-11-26T11:10:50Z</time></trkpt><trkpt lat="29.9447062332" lon="35.3403178509"><ele>956.17</ele><time>2015-11-26T11:10:52Z</time></trkpt><trkpt lat="29.9444847833" lon="35.3403486963"><ele>956.65</ele><time>2015-11-26T11:10:56Z</time></trkpt><trkpt lat="29.9443656765" lon="35.3403928690"><ele>957.61</ele><time>2015-11-26T11:11:04Z</time></trkpt><trkpt lat="29.9443655927" lon="35.3404004127"><ele>957.13</ele><time>2015-11-26T11:11:43Z</time></trkpt><trkpt lat="29.9443303049" lon="35.3403978143"><ele>957.61</ele><time>2015-11-26T11:12:30Z</time></trkpt><trkpt lat="29.9441661872" lon="35.3404097166"><ele>958.09</ele><time>2015-11-26T11:12:44Z</time></trkpt><trkpt lat="29.9438353535" lon="35.3403398953"><ele>957.61</ele><time>2015-11-26T11:12:58Z</time></trkpt><trkpt lat="29.9434474390" lon="35.3402145021"><ele>957.13</ele><time>2015-11-26T11:13:09Z</time></trkpt><trkpt lat="29.9429777171" lon="35.3402738459"><ele>956.17</ele><time>2015-11-26T11:13:21Z</time></trkpt><trkpt lat="29.9429306109" lon="35.3403067868"><ele>956.17</ele><time>2015-11-26T11:13:31Z</time></trkpt><trkpt lat="29.9428108335" lon="35.3403351177"><ele>955.69</ele><time>2015-11-26T11:13:46Z</time></trkpt><trkpt lat="29.9425245915" lon="35.3404015861"><ele>956.17</ele><time>2015-11-26T11:13:57Z</time></trkpt><trkpt lat="29.9424376711" lon="35.3404195234"><ele>956.17</ele><time>2015-11-26T11:13:59Z</time></trkpt><trkpt lat="29.9420961924" lon="35.3404532187"><ele>955.69</ele><time>2015-11-26T11:14:08Z</time></trkpt><trkpt lat="29.9413987342" lon="35.3404548950"><ele>953.77</ele><time>2015-11-26T11:14:23Z</time></trkpt><trkpt lat="29.9410539027" lon="35.3406285681"><ele>952.32</ele><time>2015-11-26T11:14:33Z</time></trkpt><trkpt lat="29.9405592028" lon="35.3406640235"><ele>951.84</ele><time>2015-11-26T11:14:45Z</time></trkpt><trkpt lat="29.9402524251" lon="35.3406588268"><ele>951.36</ele><time>2015-11-26T11:14:52Z</time></trkpt><trkpt lat="29.9399754871" lon="35.3406666219"><ele>950.88</ele><time>2015-11-26T11:14:59Z</time></trkpt><trkpt lat="29.9398438074" lon="35.3407035023"><ele>950.40</ele><time>2015-11-26T11:15:02Z</time></trkpt><trkpt lat="29.9396804441" lon="35.3407512791"><ele>949.92</ele><time>2015-11-26T11:15:06Z</time></trkpt><trkpt lat="29.9394529592" lon="35.3407092020"><ele>948.96</ele><time>2015-11-26T11:15:11Z</time></trkpt><trkpt lat="29.9393128138" lon="35.3406883311"><ele>948.96</ele><time>2015-11-26T11:15:14Z</time></trkpt><trkpt lat="29.9391725007" lon="35.3406998143"><ele>948.48</ele><time>2015-11-26T11:15:17Z</time></trkpt><trkpt lat="29.9388980772" lon="35.3408205975"><ele>948.48</ele><time>2015-11-26T11:15:24Z</time></trkpt><trkpt lat="29.9386387412" lon="35.3408849705"><ele>947.52</ele><time>2015-11-26T11:15:30Z</time></trkpt><trkpt lat="29.9384709354" lon="35.3408797737"><ele>947.52</ele><time>2015-11-26T11:15:34Z</time></trkpt><trkpt lat="29.9378599785" lon="35.3409788478"><ele>947.04</ele><time>2015-11-26T11:15:48Z</time></trkpt><trkpt lat="29.9375756644" lon="35.3410707973"><ele>946.56</ele><time>2015-11-26T11:15:55Z</time></trkpt><trkpt lat="29.9373216927" lon="35.3411532752"><ele>946.56</ele><time>2015-11-26T11:16:01Z</time></trkpt><trkpt lat="29.9367770366" lon="35.3412233479"><ele>946.56</ele><time>2015-11-26T11:16:15Z</time></trkpt><trkpt lat="29.9367142562" lon="35.3412251081"><ele>946.07</ele><time>2015-11-26T11:16:23Z</time></trkpt><trkpt lat="29.9367078859" lon="35.3412213363"><ele>945.59</ele><time>2015-11-26T11:16:49Z</time></trkpt><trkpt lat="29.9366494641" lon="35.3412284609"><ele>945.59</ele><time>2015-11-26T11:16:53Z</time></trkpt><trkpt lat="29.9363032915" lon="35.3411074262"><ele>944.63</ele><time>2015-11-26T11:17:04Z</time></trkpt><trkpt lat="29.9357837811" lon="35.3407854773"><ele>943.67</ele><time>2015-11-26T11:17:19Z</time></trkpt><trkpt lat="29.9357048236" lon="35.3407466691"><ele>943.67</ele><time>2015-11-26T11:17:21Z</time></trkpt><trkpt lat="29.9353148136" lon="35.3404273186"><ele>943.19</ele><time>2015-11-26T11:17:35Z</time></trkpt><trkpt lat="29.9350400548" lon="35.3401522245"><ele>944.15</ele><time>2015-11-26T11:17:48Z</time></trkpt><trkpt lat="29.9345915392" lon="35.3396962490"><ele>943.19</ele><time>2015-11-26T11:18:04Z</time></trkpt><trkpt lat="29.9342849292" lon="35.3394181374"><ele>942.71</ele><time>2015-11-26T11:18:18Z</time></trkpt><trkpt lat="29.9340906367" lon="35.3388759121"><ele>943.19</ele><time>2015-11-26T11:18:33Z</time></trkpt><trkpt lat="29.9339866173" lon="35.3384127282"><ele>943.67</ele><time>2015-11-26T11:18:45Z</time></trkpt><trkpt lat="29.9338225834" lon="35.3379877657"><ele>943.67</ele><time>2015-11-26T11:18:58Z</time></trkpt><trkpt lat="29.9335966073" lon="35.3374906350"><ele>943.67</ele><time>2015-11-26T11:19:12Z</time></trkpt><trkpt lat="29.9335308932" lon="35.3373769764"><ele>943.67</ele><time>2015-11-26T11:19:15Z</time></trkpt><trkpt lat="29.9334920011" lon="35.3372899722"><ele>943.19</ele><time>2015-11-26T11:19:17Z</time></trkpt><trkpt lat="29.9334390275" lon="35.3369390219"><ele>943.19</ele><time>2015-11-26T11:19:24Z</time></trkpt><trkpt lat="29.9334564619" lon="35.3368325718"><ele>943.19</ele><time>2015-11-26T11:19:26Z</time></trkpt><trkpt lat="29.9335009698" lon="35.3366790153"><ele>942.71</ele><time>2015-11-26T11:19:29Z</time></trkpt><trkpt lat="29.9334806018" lon="35.3364884108"><ele>942.71</ele><time>2015-11-26T11:19:33Z</time></trkpt><trkpt lat="29.9333893228" lon="35.3363171685"><ele>942.71</ele><time>2015-11-26T11:19:37Z</time></trkpt><trkpt lat="29.9331657775" lon="35.3359454311"><ele>942.23</ele><time>2015-11-26T11:19:50Z</time></trkpt><trkpt lat="29.9328814633" lon="35.3355208039"><ele>940.31</ele><time>2015-11-26T11:20:04Z</time></trkpt><trkpt lat="29.9328185990" lon="35.3354483843"><ele>940.31</ele><time>2015-11-26T11:20:06Z</time></trkpt><trkpt lat="29.9322409183" lon="35.3350267746"><ele>937.90</ele><time>2015-11-26T11:20:20Z</time></trkpt><trkpt lat="29.9322037026" lon="35.3349995334"><ele>937.42</ele><time>2015-11-26T11:20:21Z</time></trkpt><trkpt lat="29.9318132736" lon="35.3347412869"><ele>936.94</ele><time>2015-11-26T11:20:32Z</time></trkpt><trkpt lat="29.9316885509" lon="35.3346439730"><ele>936.94</ele><time>2015-11-26T11:20:40Z</time></trkpt><trkpt lat="29.9316660874" lon="35.3346199170"><ele>937.42</ele><time>2015-11-26T11:20:58Z</time></trkpt><trkpt lat="29.9316059053" lon="35.3345605731"><ele>937.42</ele><time>2015-11-26T11:21:12Z</time></trkpt><trkpt lat="29.9315584637" lon="35.3344961163"><ele>938.38</ele><time>2015-11-26T11:21:29Z</time></trkpt><trkpt lat="29.9315075856" lon="35.3344705515"><ele>938.38</ele><time>2015-11-26T11:21:53Z</time></trkpt><trkpt lat="29.9312352575" lon="35.3342980519"><ele>938.86</ele><time>2015-11-26T11:22:05Z</time></trkpt><trkpt lat="29.9308031704" lon="35.3340740874"><ele>939.35</ele><time>2015-11-26T11:22:18Z</time></trkpt><trkpt lat="29.9306507874" lon="35.3340459242"><ele>939.35</ele><time>2015-11-26T11:22:22Z</time></trkpt><trkpt lat="29.9302222207" lon="35.3341908474"><ele>940.31</ele><time>2015-11-26T11:22:34Z</time></trkpt><trkpt lat="29.9301446881" lon="35.3342145681"><ele>939.83</ele><time>2015-11-26T11:22:36Z</time></trkpt><trkpt lat="29.9299690034" lon="35.3342216928"><ele>939.35</ele><time>2015-11-26T11:22:40Z</time></trkpt><trkpt lat="29.9294251855" lon="35.3341133147"><ele>940.79</ele><time>2015-11-26T11:22:55Z</time></trkpt><trkpt lat="29.9290929269" lon="35.3342539631"><ele>940.79</ele><time>2015-11-26T11:23:07Z</time></trkpt><trkpt lat="29.9286861531" lon="35.3345137183"><ele>939.83</ele><time>2015-11-26T11:23:22Z</time></trkpt><trkpt lat="29.9284985662" lon="35.3346197493"><ele>939.83</ele><time>2015-11-26T11:23:26Z</time></trkpt><trkpt lat="29.9282041099" lon="35.3347004671"><ele>940.31</ele><time>2015-11-26T11:23:33Z</time></trkpt><trkpt lat="29.9277731963" lon="35.3347752336"><ele>939.35</ele><time>2015-11-26T11:23:43Z</time></trkpt><trkpt lat="29.9276896287" lon="35.3348493297"><ele>939.35</ele><time>2015-11-26T11:23:45Z</time></trkpt><trkpt lat="29.9270390254" lon="35.3354180418"><ele>937.90</ele><time>2015-11-26T11:24:02Z</time></trkpt><trkpt lat="29.9269510992" lon="35.3354810737"><ele>937.90</ele><time>2015-11-26T11:24:04Z</time></trkpt><trkpt lat="29.9262186047" lon="35.3357733507"><ele>937.42</ele><time>2015-11-26T11:24:20Z</time></trkpt><trkpt lat="29.9251934979" lon="35.3361464292"><ele>936.46</ele><time>2015-11-26T11:24:38Z</time></trkpt><trkpt lat="29.9247242790" lon="35.3362551425"><ele>935.50</ele><time>2015-11-26T11:24:46Z</time></trkpt><trkpt lat="29.9244884960" lon="35.3362476826"><ele>935.02</ele><time>2015-11-26T11:24:50Z</time></trkpt><trkpt lat="29.9235612899" lon="35.3360113129"><ele>934.06</ele><time>2015-11-26T11:25:06Z</time></trkpt><trkpt lat="29.9233202264" lon="35.3359956387"><ele>933.58</ele><time>2015-11-26T11:25:10Z</time></trkpt><trkpt lat="29.9227816053" lon="35.3357790504"><ele>932.62</ele><time>2015-11-26T11:25:19Z</time></trkpt><trkpt lat="29.9224383663" lon="35.3357275017"><ele>932.14</ele><time>2015-11-26T11:25:25Z</time></trkpt><trkpt lat="29.9218892679" lon="35.3357021045"><ele>931.17</ele><time>2015-11-26T11:25:35Z</time></trkpt><trkpt lat="29.9211144447" lon="35.3354464564"><ele>929.25</ele><time>2015-11-26T11:25:51Z</time></trkpt><trkpt lat="29.9210264347" lon="35.3354241606"><ele>929.25</ele><time>2015-11-26T11:25:53Z</time></trkpt><trkpt lat="29.9205895700" lon="35.3351633996"><ele>928.77</ele><time>2015-11-26T11:26:06Z</time></trkpt><trkpt lat="29.9199911859" lon="35.3347699530"><ele>927.33</ele><time>2015-11-26T11:26:21Z</time></trkpt><trkpt lat="29.9194529839" lon="35.3345723078"><ele>926.85</ele><time>2015-11-26T11:26:32Z</time></trkpt><trkpt lat="29.9192440230" lon="35.3345260397"><ele>926.85</ele><time>2015-11-26T11:26:37Z</time></trkpt><trkpt lat="29.9190213159" lon="35.3344572242"><ele>926.85</ele><time>2015-11-26T11:26:42Z</time></trkpt><trkpt lat="29.9188281130" lon="35.3344454058"><ele>926.85</ele><time>2015-11-26T11:26:46Z</time></trkpt><trkpt lat="29.9185179826" lon="35.3343558032"><ele>925.89</ele><time>2015-11-26T11:26:53Z</time></trkpt><trkpt lat="29.9182526954" lon="35.3342527896"><ele>925.89</ele><time>2015-11-26T11:26:59Z</time></trkpt><trkpt lat="29.9181216024" lon="35.3341912664"><ele>925.41</ele><time>2015-11-26T11:27:02Z</time></trkpt><trkpt lat="29.9180096202" lon="35.3341110516"><ele>925.41</ele><time>2015-11-26T11:27:05Z</time></trkpt><trkpt lat="29.9175745994" lon="35.3338466026"><ele>924.93</ele><time>2015-11-26T11:27:16Z</time></trkpt><trkpt lat="29.9173978250" lon="35.3337621968"><ele>924.45</ele><time>2015-11-26T11:27:26Z</time></trkpt><trkpt lat="29.9173079710" lon="35.3336950578"><ele>923.96</ele><time>2015-11-26T11:27:46Z</time></trkpt><trkpt lat="29.9168952461" lon="35.3335070517"><ele>923.00</ele><time>2015-11-26T11:27:59Z</time></trkpt><trkpt lat="29.9166858662" lon="35.3334146831"><ele>923.00</ele><time>2015-11-26T11:28:04Z</time></trkpt><trkpt lat="29.9163526855" lon="35.3332395852"><ele>922.52</ele><time>2015-11-26T11:28:12Z</time></trkpt><trkpt lat="29.9158863164" lon="35.3329071589"><ele>921.08</ele><time>2015-11-26T11:28:24Z</time></trkpt><trkpt lat="29.9155637808" lon="35.3327344079"><ele>920.60</ele><time>2015-11-26T11:28:32Z</time></trkpt><trkpt lat="29.9150698353" lon="35.3323081043"><ele>920.12</ele><time>2015-11-26T11:28:46Z</time></trkpt><trkpt lat="29.9149108306" lon="35.3321995586"><ele>919.64</ele><time>2015-11-26T11:28:50Z</time></trkpt><trkpt lat="29.9148194678" lon="35.3321529552"><ele>919.64</ele><time>2015-11-26T11:28:52Z</time></trkpt><trkpt lat="29.9146195594" lon="35.3320732433"><ele>919.16</ele><time>2015-11-26T11:28:56Z</time></trkpt><trkpt lat="29.9139142223" lon="35.3317927849"><ele>916.75</ele><time>2015-11-26T11:29:09Z</time></trkpt><trkpt lat="29.9137496855" lon="35.3316616919"><ele>916.27</ele><time>2015-11-26T11:29:13Z</time></trkpt><trkpt lat="29.9136420619" lon="35.3313629609"><ele>916.27</ele><time>2015-11-26T11:29:20Z</time></trkpt><trkpt lat="29.9135857355" lon="35.3311037924"><ele>915.79</ele><time>2015-11-26T11:29:25Z</time></trkpt><trkpt lat="29.9135173392" lon="35.3306792490"><ele>915.31</ele><time>2015-11-26T11:29:33Z</time></trkpt><trkpt lat="29.9134812970" lon="35.3304232657"><ele>914.35</ele><time>2015-11-26T11:29:38Z</time></trkpt><trkpt lat="29.9134421535" lon="35.3302123770"><ele>914.35</ele><time>2015-11-26T11:29:42Z</time></trkpt><trkpt lat="29.9132143334" lon="35.3297537193"><ele>912.91</ele><time>2015-11-26T11:29:54Z</time></trkpt><trkpt lat="29.9132178538" lon="35.3297442477"><ele>912.91</ele><time>2015-11-26T11:30:15Z</time></trkpt><trkpt lat="29.9131907802" lon="35.3297242150"><ele>912.91</ele><time>2015-11-26T11:30:34Z</time></trkpt><trkpt lat="29.9131763633" lon="35.3297211975"><ele>912.91</ele><time>2015-11-26T11:30:58Z</time></trkpt><trkpt lat="29.9132160097" lon="35.3297867440"><ele>913.39</ele><time>2015-11-26T11:31:11Z</time></trkpt><trkpt lat="29.9132348690" lon="35.3298301622"><ele>913.39</ele><time>2015-11-26T11:31:27Z</time></trkpt><trkpt lat="29.9132388923" lon="35.3298212774"><ele>913.39</ele><time>2015-11-26T11:31:39Z</time></trkpt><trkpt lat="29.9131511338" lon="35.3300837986"><ele>913.87</ele><time>2015-11-26T11:31:50Z</time></trkpt><trkpt lat="29.9131212942" lon="35.3301051725"><ele>913.87</ele><time>2015-11-26T11:31:51Z</time></trkpt><trkpt lat="29.9129749462" lon="35.3301098663"><ele>913.87</ele><time>2015-11-26T11:31:55Z</time></trkpt><trkpt lat="29.9124970939" lon="35.3301252052"><ele>913.87</ele><time>2015-11-26T11:32:07Z</time></trkpt><trkpt lat="29.9121289607" lon="35.3301484231"><ele>913.39</ele><time>2015-11-26T11:32:15Z</time></trkpt><trkpt lat="29.9113504495" lon="35.3300506063"><ele>912.43</ele><time>2015-11-26T11:32:30Z</time></trkpt><trkpt lat="29.9100883864" lon="35.3299722355"><ele>910.03</ele><time>2015-11-26T11:32:50Z</time></trkpt><trkpt lat="29.9098563753" lon="35.3299385402"><ele>910.03</ele><time>2015-11-26T11:32:54Z</time></trkpt><trkpt lat="29.9095449876" lon="35.3297382966"><ele>909.54</ele><time>2015-11-26T11:33:02Z</time></trkpt><trkpt lat="29.9094786029" lon="35.3297002427"><ele>909.54</ele><time>2015-11-26T11:33:12Z</time></trkpt><trkpt lat="29.9093573168" lon="35.3296473529"><ele>909.54</ele><time>2015-11-26T11:33:27Z</time></trkpt><trkpt lat="29.9091902655" lon="35.3295727540"><ele>909.06</ele><time>2015-11-26T11:33:45Z</time></trkpt><trkpt lat="29.9091175105" lon="35.3295258991"><ele>909.54</ele><time>2015-11-26T11:33:53Z</time></trkpt><trkpt lat="29.9089206196" lon="35.3294030204"><ele>909.06</ele><time>2015-11-26T11:34:16Z</time></trkpt><trkpt lat="29.9087916221" lon="35.3292751126"><ele>908.58</ele><time>2015-11-26T11:34:35Z</time></trkpt><trkpt lat="29.9087532330" lon="35.3292579297"><ele>909.06</ele><time>2015-11-26T11:34:52Z</time></trkpt><trkpt lat="29.9087377265" lon="35.3292478714"><ele>909.06</ele><time>2015-11-26T11:35:11Z</time></trkpt><trkpt lat="29.9086701684" lon="35.3291384038"><ele>909.06</ele><time>2015-11-26T11:35:27Z</time></trkpt><trkpt lat="29.9086261634" lon="35.3290229850"><ele>908.58</ele><time>2015-11-26T11:35:42Z</time></trkpt><trkpt lat="29.9086079746" lon="35.3289967496"><ele>908.58</ele><time>2015-11-26T11:35:45Z</time></trkpt><trkpt lat="29.9084995128" lon="35.3288527485"><ele>908.58</ele><time>2015-11-26T11:36:02Z</time></trkpt><trkpt lat="29.9084748700" lon="35.3288186342"><ele>909.06</ele><time>2015-11-26T11:36:05Z</time></trkpt><trkpt lat="29.9082506541" lon="35.3286390100"><ele>909.06</ele><time>2015-11-26T11:36:18Z</time></trkpt><trkpt lat="29.9078107718" lon="35.3285512514"><ele>910.03</ele><time>2015-11-26T11:36:33Z</time></trkpt><trkpt lat="29.9076111987" lon="35.3284950089"><ele>911.95</ele><time>2015-11-26T11:36:44Z</time></trkpt><trkpt lat="29.9075376056" lon="35.3284760658"><ele>912.43</ele><time>2015-11-26T11:36:49Z</time></trkpt><trkpt lat="29.9071977194" lon="35.3283712082"><ele>912.43</ele><time>2015-11-26T11:37:03Z</time></trkpt><trkpt lat="29.9068226293" lon="35.3282381035"><ele>912.43</ele><time>2015-11-26T11:37:16Z</time></trkpt><trkpt lat="29.9067278299" lon="35.3281816933"><ele>912.43</ele><time>2015-11-26T11:37:20Z</time></trkpt><trkpt lat="29.9066613615" lon="35.3280641790"><ele>912.43</ele><time>2015-11-26T11:37:24Z</time></trkpt><trkpt lat="29.9062854331" lon="35.3278200142"><ele>912.91</ele><time>2015-11-26T11:37:38Z</time></trkpt><trkpt lat="29.9060566071" lon="35.3277419787"><ele>913.39</ele><time>2015-11-26T11:37:46Z</time></trkpt><trkpt lat="29.9060668331" lon="35.3276945371"><ele>913.39</ele><time>2015-11-26T11:37:54Z</time></trkpt><trkpt lat="29.9061714392" lon="35.3273984045"><ele>913.87</ele><time>2015-11-26T11:38:06Z</time></trkpt><trkpt lat="29.9061800726" lon="35.3269572649"><ele>914.83</ele><time>2015-11-26T11:38:18Z</time></trkpt><trkpt lat="29.9063716829" lon="35.3263825178"><ele>916.27</ele><time>2015-11-26T11:38:33Z</time></trkpt><trkpt lat="29.9064270034" lon="35.3263047338"><ele>916.27</ele><time>2015-11-26T11:38:35Z</time></trkpt><trkpt lat="29.9065183662" lon="35.3259832039"><ele>916.75</ele><time>2015-11-26T11:38:43Z</time></trkpt><trkpt lat="29.9064776301" lon="35.3259544540"><ele>917.24</ele><time>2015-11-26T11:38:47Z</time></trkpt><trkpt lat="29.9064175319" lon="35.3259167355"><ele>917.24</ele><time>2015-11-26T11:38:52Z</time></trkpt><trkpt lat="29.9063410889" lon="35.3258692101"><ele>917.24</ele><time>2015-11-26T11:38:56Z</time></trkpt><trkpt lat="29.9062497262" lon="35.3257897496"><ele>917.72</ele><time>2015-11-26T11:39:01Z</time></trkpt><trkpt lat="29.9058502447" lon="35.3255019151"><ele>918.68</ele><time>2015-11-26T11:39:17Z</time></trkpt><trkpt lat="29.9054655991" lon="35.3253012523"><ele>918.20</ele><time>2015-11-26T11:39:30Z</time></trkpt><trkpt lat="29.9050001521" lon="35.3249729332"><ele>917.72</ele><time>2015-11-26T11:39:43Z</time></trkpt><trkpt lat="29.9047949631" lon="35.3248059656"><ele>918.20</ele><time>2015-11-26T11:39:54Z</time></trkpt><trkpt lat="29.9046797957" lon="35.3247438557"><ele>917.72</ele><time>2015-11-26T11:40:07Z</time></trkpt><trkpt lat="29.9046781193" lon="35.3247510642"><ele>917.72</ele><time>2015-11-26T11:40:32Z</time></trkpt><trkpt lat="29.9047121499" lon="35.3247713484"><ele>917.72</ele><time>2015-11-26T11:40:43Z</time></trkpt><trkpt lat="29.9046675581" lon="35.3247511480"><ele>917.72</ele><time>2015-11-26T11:41:15Z</time></trkpt><trkpt lat="29.9043674860" lon="35.3245853540"><ele>917.72</ele><time>2015-11-26T11:41:29Z</time></trkpt><trkpt lat="29.9040432740" lon="35.3243466374"><ele>916.75</ele><time>2015-11-26T11:41:45Z</time></trkpt><trkpt lat="29.9036590476" lon="35.3239899036"><ele>916.27</ele><time>2015-11-26T11:41:58Z</time></trkpt><trkpt lat="29.9031652696" lon="35.3235040046"><ele>916.27</ele><time>2015-11-26T11:42:14Z</time></trkpt><trkpt lat="29.9027181789" lon="35.3231524676"><ele>916.75</ele><time>2015-11-26T11:42:27Z</time></trkpt><trkpt lat="29.9023655523" lon="35.3228593525"><ele>916.27</ele><time>2015-11-26T11:42:40Z</time></trkpt><trkpt lat="29.9023305997" lon="35.3228307702"><ele>916.27</ele><time>2015-11-26T11:42:47Z</time></trkpt><trkpt lat="29.9021156877" lon="35.3226498049"><ele>916.27</ele><time>2015-11-26T11:43:00Z</time></trkpt><trkpt lat="29.9020522367" lon="35.3226122539"><ele>916.27</ele><time>2015-11-26T11:43:10Z</time></trkpt><trkpt lat="29.9020373169" lon="35.3225931432"><ele>916.27</ele><time>2015-11-26T11:43:14Z</time></trkpt><trkpt lat="29.9020203855" lon="35.3225840908"><ele>916.27</ele><time>2015-11-26T11:43:16Z</time></trkpt><trkpt lat="29.9019033741" lon="35.3224861901"><ele>916.75</ele><time>2015-11-26T11:43:23Z</time></trkpt><trkpt lat="29.9018270150" lon="35.3222465515"><ele>917.24</ele><time>2015-11-26T11:43:29Z</time></trkpt><trkpt lat="29.9015973508" lon="35.3219172265"><ele>917.72</ele><time>2015-11-26T11:43:40Z</time></trkpt><trkpt lat="29.9012584705" lon="35.3216568008"><ele>918.20</ele><time>2015-11-26T11:43:51Z</time></trkpt><trkpt lat="29.9010124616" lon="35.3213507775"><ele>918.68</ele><time>2015-11-26T11:44:02Z</time></trkpt><trkpt lat="29.9006548058" lon="35.3209740948"><ele>917.72</ele><time>2015-11-26T11:44:16Z</time></trkpt><trkpt lat="29.9001082219" lon="35.3206218872"><ele>916.75</ele><time>2015-11-26T11:44:31Z</time></trkpt><trkpt lat="29.8999234848" lon="35.3204935603"><ele>917.24</ele><time>2015-11-26T11:44:37Z</time></trkpt><trkpt lat="29.8998111673" lon="35.3203239944"><ele>915.79</ele><time>2015-11-26T11:44:41Z</time></trkpt><trkpt lat="29.8997897934" lon="35.3202627227"><ele>914.83</ele><time>2015-11-26T11:44:42Z</time></trkpt><trkpt lat="29.8996488098" lon="35.3200644907"><ele>914.35</ele><time>2015-11-26T11:44:46Z</time></trkpt><trkpt lat="29.8995694332" lon="35.3200142831"><ele>913.87</ele><time>2015-11-26T11:44:48Z</time></trkpt><trkpt lat="29.8991431296" lon="35.3197125345"><ele>916.27</ele><time>2015-11-26T11:45:02Z</time></trkpt><trkpt lat="29.8987263814" lon="35.3195121232"><ele>915.79</ele><time>2015-11-26T11:45:17Z</time></trkpt><trkpt lat="29.8982605990" lon="35.3193744924"><ele>915.31</ele><time>2015-11-26T11:45:28Z</time></trkpt><trkpt lat="29.8981671408" lon="35.3193578124"><ele>915.79</ele><time>2015-11-26T11:45:30Z</time></trkpt><trkpt lat="29.8974523321" lon="35.3194728121"><ele>913.39</ele><time>2015-11-26T11:45:45Z</time></trkpt><trkpt lat="29.8972359113" lon="35.3194784280"><ele>912.91</ele><time>2015-11-26T11:45:49Z</time></trkpt><trkpt lat="29.8965848051" lon="35.3193563875"><ele>911.47</ele><time>2015-11-26T11:46:01Z</time></trkpt><trkpt lat="29.8962826375" lon="35.3191347700"><ele>910.51</ele><time>2015-11-26T11:46:08Z</time></trkpt><trkpt lat="29.8961046897" lon="35.3187567461"><ele>911.95</ele><time>2015-11-26T11:46:18Z</time></trkpt><trkpt lat="29.8961061984" lon="35.3186994977"><ele>911.95</ele><time>2015-11-26T11:46:20Z</time></trkpt><trkpt lat="29.8959972337" lon="35.3181213979"><ele>912.91</ele><time>2015-11-26T11:46:34Z</time></trkpt><trkpt lat="29.8959673941" lon="35.3180259280"><ele>912.43</ele><time>2015-11-26T11:46:36Z</time></trkpt><trkpt lat="29.8959125765" lon="35.3179014567"><ele>912.91</ele><time>2015-11-26T11:46:39Z</time></trkpt><trkpt lat="29.8957459442" lon="35.3176976088"><ele>912.91</ele><time>2015-11-26T11:46:45Z</time></trkpt><trkpt lat="29.8954233248" lon="35.3175189905"><ele>913.39</ele><time>2015-11-26T11:46:54Z</time></trkpt><trkpt lat="29.8950091749" lon="35.3171904199"><ele>913.39</ele><time>2015-11-26T11:47:07Z</time></trkpt><trkpt lat="29.8943133093" lon="35.3169540502"><ele>913.87</ele><time>2015-11-26T11:47:25Z</time></trkpt><trkpt lat="29.8941158317" lon="35.3169231210"><ele>914.35</ele><time>2015-11-26T11:47:30Z</time></trkpt><trkpt lat="29.8939789552" lon="35.3169004899"><ele>913.87</ele><time>2015-11-26T11:47:34Z</time></trkpt><trkpt lat="29.8936502170" lon="35.3168864921"><ele>914.35</ele><time>2015-11-26T11:47:47Z</time></trkpt><trkpt lat="29.8933881149" lon="35.3165502101"><ele>914.35</ele><time>2015-11-26T11:47:59Z</time></trkpt><trkpt lat="29.8932363186" lon="35.3163705859"><ele>914.35</ele><time>2015-11-26T11:48:04Z</time></trkpt><trkpt lat="29.8928629048" lon="35.3159374092"><ele>915.79</ele><time>2015-11-26T11:48:18Z</time></trkpt><trkpt lat="29.8924122099" lon="35.3155137040"><ele>915.31</ele><time>2015-11-26T11:48:32Z</time></trkpt><trkpt lat="29.8922577314" lon="35.3153031506"><ele>914.83</ele><time>2015-11-26T11:48:38Z</time></trkpt><trkpt lat="29.8919862416" lon="35.3150034137"><ele>914.83</ele><time>2015-11-26T11:48:48Z</time></trkpt><trkpt lat="29.8918637820" lon="35.3148781881"><ele>914.83</ele><time>2015-11-26T11:48:52Z</time></trkpt><trkpt lat="29.8915584292" lon="35.3145041037"><ele>915.31</ele><time>2015-11-26T11:49:03Z</time></trkpt><trkpt lat="29.8915048689" lon="35.3144352045"><ele>915.31</ele><time>2015-11-26T11:49:05Z</time></trkpt><trkpt lat="29.8913491331" lon="35.3142902814"><ele>914.83</ele><time>2015-11-26T11:49:10Z</time></trkpt><trkpt lat="29.8909457959" lon="35.3139803186"><ele>915.79</ele><time>2015-11-26T11:49:23Z</time></trkpt><trkpt lat="29.8905269522" lon="35.3135566134"><ele>916.27</ele><time>2015-11-26T11:49:36Z</time></trkpt><trkpt lat="29.8900703061" lon="35.3132919967"><ele>916.27</ele><time>2015-11-26T11:49:49Z</time></trkpt><trkpt lat="29.8896359559" lon="35.3130791802"><ele>916.75</ele><time>2015-11-26T11:50:01Z</time></trkpt><trkpt lat="29.8892550822" lon="35.3129218519"><ele>916.75</ele><time>2015-11-26T11:50:11Z</time></trkpt><trkpt lat="29.8890364822" lon="35.3128894977"><ele>917.24</ele><time>2015-11-26T11:50:17Z</time></trkpt><trkpt lat="29.8887605499" lon="35.3126888350"><ele>917.72</ele><time>2015-11-26T11:50:30Z</time></trkpt><trkpt lat="29.8884654231" lon="35.3121974040"><ele>918.68</ele><time>2015-11-26T11:50:45Z</time></trkpt><trkpt lat="29.8882406205" lon="35.3119507246"><ele>918.68</ele><time>2015-11-26T11:50:57Z</time></trkpt><trkpt lat="29.8880658578" lon="35.3119285963"><ele>918.68</ele><time>2015-11-26T11:51:07Z</time></trkpt><trkpt lat="29.8880231101" lon="35.3119241539"><ele>918.68</ele><time>2015-11-26T11:51:13Z</time></trkpt><trkpt lat="29.8879185040" lon="35.3118922189"><ele>919.16</ele><time>2015-11-26T11:51:21Z</time></trkpt><trkpt lat="29.8878272250" lon="35.3118455317"><ele>919.64</ele><time>2015-11-26T11:51:28Z</time></trkpt><trkpt lat="29.8875623569" lon="35.3116035461"><ele>920.12</ele><time>2015-11-26T11:51:41Z</time></trkpt><trkpt lat="29.8874740116" lon="35.3115463816"><ele>920.12</ele><time>2015-11-26T11:51:45Z</time></trkpt><trkpt lat="29.8873774521" lon="35.3115504887"><ele>920.12</ele><time>2015-11-26T11:51:49Z</time></trkpt><trkpt lat="29.8869772162" lon="35.3117535822"><ele>920.60</ele><time>2015-11-26T11:52:03Z</time></trkpt><trkpt lat="29.8866170458" lon="35.3118759580"><ele>920.12</ele><time>2015-11-26T11:52:18Z</time></trkpt><trkpt lat="29.8862923309" lon="35.3119254950"><ele>920.60</ele><time>2015-11-26T11:52:29Z</time></trkpt><trkpt lat="29.8858583160" lon="35.3120384831"><ele>921.08</ele><time>2015-11-26T11:52:42Z</time></trkpt><trkpt lat="29.8852412403" lon="35.3121679835"><ele>921.56</ele><time>2015-11-26T11:52:57Z</time></trkpt><trkpt lat="29.8848442733" lon="35.3122106474"><ele>921.56</ele><time>2015-11-26T11:53:06Z</time></trkpt><trkpt lat="29.8843469750" lon="35.3122580890"><ele>922.04</ele><time>2015-11-26T11:53:17Z</time></trkpt><trkpt lat="29.8841651715" lon="35.3122918680"><ele>921.56</ele><time>2015-11-26T11:53:21Z</time></trkpt><trkpt lat="29.8836434819" lon="35.3124689776"><ele>921.08</ele><time>2015-11-26T11:53:35Z</time></trkpt><trkpt lat="29.8835651111" lon="35.3124635294"><ele>921.08</ele><time>2015-11-26T11:53:37Z</time></trkpt><trkpt lat="29.8827935569" lon="35.3126315866"><ele>921.08</ele><time>2015-11-26T11:53:54Z</time></trkpt><trkpt lat="29.8824198917" lon="35.3127366956"><ele>921.08</ele><time>2015-11-26T11:54:02Z</time></trkpt><trkpt lat="29.8821709491" lon="35.3128682077"><ele>920.60</ele><time>2015-11-26T11:54:08Z</time></trkpt><trkpt lat="29.8817639239" lon="35.3132510930"><ele>919.64</ele><time>2015-11-26T11:54:22Z</time></trkpt><trkpt lat="29.8812100478" lon="35.3134764824"><ele>918.20</ele><time>2015-11-26T11:54:38Z</time></trkpt><trkpt lat="29.8810302559" lon="35.3134813439"><ele>918.20</ele><time>2015-11-26T11:54:47Z</time></trkpt><trkpt lat="29.8810588382" lon="35.3134359978"><ele>918.20</ele><time>2015-11-26T11:54:59Z</time></trkpt><trkpt lat="29.8811195232" lon="35.3133584652"><ele>918.20</ele><time>2015-11-26T11:55:04Z</time></trkpt><trkpt lat="29.8813392967" lon="35.3130564652"><ele>921.08</ele><time>2015-11-26T11:55:20Z</time></trkpt><trkpt lat="29.8813559767" lon="35.3130220156"><ele>922.04</ele><time>2015-11-26T11:55:29Z</time></trkpt><trkpt lat="29.8813830502" lon="35.3130043298"><ele>922.04</ele><time>2015-11-26T11:55:41Z</time></trkpt><trkpt lat="29.8813841399" lon="35.3129736520"><ele>922.04</ele><time>2015-11-26T11:55:58Z</time></trkpt><trkpt lat="29.8813713994" lon="35.3129713889"><ele>922.04</ele><time>2015-11-26T11:56:30Z</time></trkpt><trkpt lat="29.8813818768" lon="35.3129645158"><ele>922.04</ele><time>2015-11-26T11:57:10Z</time></trkpt><trkpt lat="29.8813796975" lon="35.3129754961"><ele>922.04</ele><time>2015-11-26T11:57:46Z</time></trkpt><trkpt lat="29.8813727405" lon="35.3129779268"><ele>922.04</ele><time>2015-11-26T11:58:28Z</time></trkpt><trkpt lat="29.8813731596" lon="35.3129682876"><ele>921.56</ele><time>2015-11-26T11:59:27Z</time></trkpt><trkpt lat="29.8813744169" lon="35.3129827883"><ele>922.04</ele><time>2015-11-26T12:00:15Z</time></trkpt><trkpt lat="29.8813730758" lon="35.3129563015"><ele>922.04</ele><time>2015-11-26T12:00:48Z</time></trkpt><trkpt lat="29.8813746683" lon="35.3129638452"><ele>922.04</ele><time>2015-11-26T12:01:30Z</time></trkpt><trkpt lat="29.8813658673" lon="35.3129621688"><ele>922.04</ele><time>2015-11-26T12:02:24Z</time></trkpt><trkpt lat="29.8813760094" lon="35.3129617497"><ele>922.04</ele><time>2015-11-26T12:03:01Z</time></trkpt><trkpt lat="29.8813736625" lon="35.3129602410"><ele>922.52</ele><time>2015-11-26T12:03:43Z</time></trkpt><trkpt lat="29.8813706450" lon="35.3129533678"><ele>922.52</ele><time>2015-11-26T12:04:25Z</time></trkpt><trkpt lat="29.8813762609" lon="35.3129500151"><ele>922.04</ele><time>2015-11-26T12:05:09Z</time></trkpt><trkpt lat="29.8813773505" lon="35.3129590675"><ele>922.52</ele><time>2015-11-26T12:05:55Z</time></trkpt><trkpt lat="29.8813771829" lon="35.3129535355"><ele>922.04</ele><time>2015-11-26T12:06:25Z</time></trkpt><trkpt lat="29.8813649453" lon="35.3129594028"><ele>922.04</ele><time>2015-11-26T12:07:05Z</time></trkpt><trkpt lat="29.8813631013" lon="35.3129580617"><ele>922.52</ele><time>2015-11-26T12:07:39Z</time></trkpt><trkpt lat="29.8813733272" lon="35.3129588999"><ele>922.52</ele><time>2015-11-26T12:08:06Z</time></trkpt><trkpt lat="29.8813724890" lon="35.3129623365"><ele>922.04</ele><time>2015-11-26T12:08:38Z</time></trkpt><trkpt lat="29.8813722376" lon="35.3129696287"><ele>922.04</ele><time>2015-11-26T12:09:13Z</time></trkpt><trkpt lat="29.8813679628" lon="35.3129782621"><ele>922.52</ele><time>2015-11-26T12:09:47Z</time></trkpt><trkpt lat="29.8813722376" lon="35.3129745740"><ele>922.52</ele><time>2015-11-26T12:10:16Z</time></trkpt><trkpt lat="29.8813763447" lon="35.3129734006"><ele>922.52</ele><time>2015-11-26T12:10:50Z</time></trkpt><trkpt lat="29.8813708127" lon="35.3129725624"><ele>922.52</ele><time>2015-11-26T12:11:17Z</time></trkpt><trkpt lat="29.8813687172" lon="35.3129684553"><ele>922.52</ele><time>2015-11-26T12:11:50Z</time></trkpt><trkpt lat="29.8813713994" lon="35.3129671142"><ele>922.52</ele><time>2015-11-26T12:12:20Z</time></trkpt><trkpt lat="29.8813713994" lon="35.3129645158"><ele>922.52</ele><time>2015-11-26T12:12:48Z</time></trkpt><trkpt lat="29.8813677952" lon="35.3129637614"><ele>922.52</ele><time>2015-11-26T12:13:21Z</time></trkpt><trkpt lat="29.8813720699" lon="35.3129683714"><ele>922.52</ele><time>2015-11-26T12:13:48Z</time></trkpt><trkpt lat="29.8813683819" lon="35.3129694611"><ele>923.00</ele><time>2015-11-26T12:14:15Z</time></trkpt><trkpt lat="29.8813699745" lon="35.3129704669"><ele>922.52</ele><time>2015-11-26T12:14:43Z</time></trkpt><trkpt lat="29.8813762609" lon="35.3129715566"><ele>923.00</ele><time>2015-11-26T12:15:09Z</time></trkpt><trkpt lat="29.8813833017" lon="35.3129703831"><ele>922.52</ele><time>2015-11-26T12:15:33Z</time></trkpt><trkpt lat="29.8813846428" lon="35.3129717242"><ele>923.00</ele><time>2015-11-26T12:15:58Z</time></trkpt><trkpt lat="29.8813799489" lon="35.3129766695"><ele>923.00</ele><time>2015-11-26T12:16:26Z</time></trkpt><trkpt lat="29.8813859839" lon="35.3129767533"><ele>923.00</ele><time>2015-11-26T12:16:54Z</time></trkpt><trkpt lat="29.8813821282" lon="35.3129773401"><ele>923.00</ele><time>2015-11-26T12:17:29Z</time></trkpt><trkpt lat="29.8813864868" lon="35.3129845485"><ele>923.00</ele><time>2015-11-26T12:18:01Z</time></trkpt><trkpt lat="29.8813787755" lon="35.3129718080"><ele>923.00</ele><time>2015-11-26T12:18:34Z</time></trkpt><trkpt lat="29.8813833855" lon="35.3129816987"><ele>922.52</ele><time>2015-11-26T12:19:08Z</time></trkpt><trkpt lat="29.8813842237" lon="35.3129839618"><ele>922.52</ele><time>2015-11-26T12:19:43Z</time></trkpt><trkpt lat="29.8813827988" lon="35.3129780944"><ele>922.52</ele><time>2015-11-26T12:20:18Z</time></trkpt><trkpt lat="29.8813882470" lon="35.3129809443"><ele>922.52</ele><time>2015-11-26T12:20:49Z</time></trkpt><trkpt lat="29.8813796137" lon="35.3129786812"><ele>922.52</ele><time>2015-11-26T12:21:24Z</time></trkpt><trkpt lat="29.8813818768" lon="35.3129811957"><ele>922.52</ele><time>2015-11-26T12:21:57Z</time></trkpt><trkpt lat="29.8813792784" lon="35.3129818663"><ele>923.00</ele><time>2015-11-26T12:22:27Z</time></trkpt><trkpt lat="29.8813792784" lon="35.3129856382"><ele>922.52</ele><time>2015-11-26T12:22:53Z</time></trkpt><trkpt lat="29.8813801166" lon="35.3129933495"><ele>922.52</ele><time>2015-11-26T12:23:24Z</time></trkpt><trkpt lat="29.8813820444" lon="35.3129914217"><ele>923.00</ele><time>2015-11-26T12:23:55Z</time></trkpt><trkpt lat="29.8813859001" lon="35.3129965346"><ele>923.00</ele><time>2015-11-26T12:24:33Z</time></trkpt><trkpt lat="29.8813821282" lon="35.3129865602"><ele>923.48</ele><time>2015-11-26T12:25:02Z</time></trkpt><trkpt lat="29.8813778535" lon="35.3129811957"><ele>923.48</ele><time>2015-11-26T12:25:40Z</time></trkpt><trkpt lat="29.8813828826" lon="35.3129751608"><ele>923.48</ele><time>2015-11-26T12:26:13Z</time></trkpt><trkpt lat="29.8813906778" lon="35.3129717242"><ele>923.96</ele><time>2015-11-26T12:26:40Z</time></trkpt><trkpt lat="29.8813860677" lon="35.3129754961"><ele>923.96</ele><time>2015-11-26T12:27:11Z</time></trkpt><trkpt lat="29.8813911807" lon="35.3129834589"><ele>923.96</ele><time>2015-11-26T12:27:41Z</time></trkpt><trkpt lat="29.8813985568" lon="35.3129879013"><ele>924.45</ele><time>2015-11-26T12:28:15Z</time></trkpt><trkpt lat="29.8814048432" lon="35.3129842132"><ele>924.45</ele><time>2015-11-26T12:28:49Z</time></trkpt><trkpt lat="29.8813905101" lon="35.3129925951"><ele>924.93</ele><time>2015-11-26T12:29:22Z</time></trkpt><trkpt lat="29.8813925218" lon="35.3129940201"><ele>925.41</ele><time>2015-11-26T12:29:48Z</time></trkpt><trkpt lat="29.8813889176" lon="35.3129941877"><ele>925.41</ele><time>2015-11-26T12:30:15Z</time></trkpt><trkpt lat="29.8813869059" lon="35.3129908349"><ele>925.89</ele><time>2015-11-26T12:30:48Z</time></trkpt><trkpt lat="29.8813855648" lon="35.3129954450"><ele>925.41</ele><time>2015-11-26T12:31:16Z</time></trkpt><trkpt lat="29.8813835531" lon="35.3130127117"><ele>925.89</ele><time>2015-11-26T12:31:33Z</time></trkpt><trkpt lat="29.8813884147" lon="35.3130013123"><ele>926.37</ele><time>2015-11-26T12:31:58Z</time></trkpt><trkpt lat="29.8813760933" lon="35.3130033240"><ele>925.89</ele><time>2015-11-26T12:32:20Z</time></trkpt><trkpt lat="29.8812879156" lon="35.3130629193"><ele>924.93</ele><time>2015-11-26T12:32:25Z</time></trkpt><trkpt lat="29.8812317569" lon="35.3131355904"><ele>924.45</ele><time>2015-11-26T12:32:27Z</time></trkpt><trkpt lat="29.8811196070" lon="35.3133273683"><ele>923.00</ele><time>2015-11-26T12:32:31Z</time></trkpt><trkpt lat="29.8808403220" lon="35.3135388438"><ele>922.04</ele><time>2015-11-26T12:32:38Z</time></trkpt><trkpt lat="29.8804528266" lon="35.3136181366"><ele>922.04</ele><time>2015-11-26T12:32:50Z</time></trkpt><trkpt lat="29.8800502438" lon="35.3138830885"><ele>922.04</ele><time>2015-11-26T12:33:03Z</time></trkpt><trkpt lat="29.8796635866" lon="35.3142424207"><ele>921.56</ele><time>2015-11-26T12:33:17Z</time></trkpt><trkpt lat="29.8795766663" lon="35.3142865095"><ele>921.56</ele><time>2015-11-26T12:33:27Z</time></trkpt><trkpt lat="29.8795489222" lon="35.3143062908"><ele>921.56</ele><time>2015-11-26T12:33:40Z</time></trkpt><trkpt lat="29.8794706352" lon="35.3143118229"><ele>920.60</ele><time>2015-11-26T12:33:57Z</time></trkpt><trkpt lat="29.8792585731" lon="35.3143566661"><ele>921.08</ele><time>2015-11-26T12:34:07Z</time></trkpt><trkpt lat="29.8789573275" lon="35.3143895231"><ele>921.08</ele><time>2015-11-26T12:34:18Z</time></trkpt><trkpt lat="29.8784866836" lon="35.3144223802"><ele>921.08</ele><time>2015-11-26T12:34:32Z</time></trkpt><trkpt lat="29.8780758865" lon="35.3144190274"><ele>921.56</ele><time>2015-11-26T12:34:43Z</time></trkpt><trkpt lat="29.8774090223" lon="35.3145076241"><ele>922.04</ele><time>2015-11-26T12:34:59Z</time></trkpt><trkpt lat="29.8769018333" lon="35.3145627771"><ele>922.04</ele><time>2015-11-26T12:35:11Z</time></trkpt><trkpt lat="29.8767677229" lon="35.3145714942"><ele>922.04</ele><time>2015-11-26T12:35:14Z</time></trkpt><trkpt lat="29.8763837479" lon="35.3145647049"><ele>922.52</ele><time>2015-11-26T12:35:23Z</time></trkpt><trkpt lat="29.8761644773" lon="35.3145054448"><ele>922.04</ele><time>2015-11-26T12:35:28Z</time></trkpt><trkpt lat="29.8757432029" lon="35.3144235536"><ele>922.52</ele><time>2015-11-26T12:35:38Z</time></trkpt><trkpt lat="29.8752910830" lon="35.3143824823"><ele>923.00</ele><time>2015-11-26T12:35:50Z</time></trkpt><trkpt lat="29.8748262227" lon="35.3145990707"><ele>923.48</ele><time>2015-11-26T12:36:05Z</time></trkpt><trkpt lat="29.8745113146" lon="35.3147834726"><ele>922.52</ele><time>2015-11-26T12:36:20Z</time></trkpt><trkpt lat="29.8743762821" lon="35.3148621786"><ele>922.04</ele><time>2015-11-26T12:36:24Z</time></trkpt><trkpt lat="29.8740936443" lon="35.3149943613"><ele>920.60</ele><time>2015-11-26T12:36:30Z</time></trkpt><trkpt lat="29.8738934845" lon="35.3151278850"><ele>920.60</ele><time>2015-11-26T12:36:35Z</time></trkpt><trkpt lat="29.8737543449" lon="35.3153584711"><ele>920.12</ele><time>2015-11-26T12:36:41Z</time></trkpt><trkpt lat="29.8736216594" lon="35.3154428769"><ele>919.64</ele><time>2015-11-26T12:36:45Z</time></trkpt><trkpt lat="29.8731794301" lon="35.3157069907"><ele>918.20</ele><time>2015-11-26T12:36:58Z</time></trkpt><trkpt lat="29.8730502650" lon="35.3157600481"><ele>917.72</ele><time>2015-11-26T12:37:01Z</time></trkpt><trkpt lat="29.8728030827" lon="35.3157496545"><ele>917.24</ele><time>2015-11-26T12:37:06Z</time></trkpt><trkpt lat="29.8725041840" lon="35.3157370817"><ele>918.20</ele><time>2015-11-26T12:37:17Z</time></trkpt><trkpt lat="29.8721412476" lon="35.3159337211"><ele>917.72</ele><time>2015-11-26T12:37:28Z</time></trkpt><trkpt lat="29.8714929912" lon="35.3162442707"><ele>915.79</ele><time>2015-11-26T12:37:42Z</time></trkpt><trkpt lat="29.8710421287" lon="35.3165108990"><ele>914.35</ele><time>2015-11-26T12:37:52Z</time></trkpt><trkpt lat="29.8709534481" lon="35.3165417444"><ele>913.87</ele><time>2015-11-26T12:37:54Z</time></trkpt><trkpt lat="29.8707728181" lon="35.3166766930"><ele>913.87</ele><time>2015-11-26T12:37:58Z</time></trkpt><trkpt lat="29.8703450058" lon="35.3168708179"><ele>912.91</ele><time>2015-11-26T12:38:06Z</time></trkpt><trkpt lat="29.8702172656" lon="35.3169844765"><ele>912.43</ele><time>2015-11-26T12:38:09Z</time></trkpt><trkpt lat="29.8699013516" lon="35.3172974568"><ele>911.47</ele><time>2015-11-26T12:38:17Z</time></trkpt><trkpt lat="29.8691578768" lon="35.3177583776"><ele>909.06</ele><time>2015-11-26T12:38:34Z</time></trkpt><trkpt lat="29.8691120278" lon="35.3177830204"><ele>909.06</ele><time>2015-11-26T12:38:35Z</time></trkpt><trkpt lat="29.8683551420" lon="35.3182110004"><ele>907.14</ele><time>2015-11-26T12:38:52Z</time></trkpt><trkpt lat="29.8681707401" lon="35.3183687478"><ele>906.18</ele><time>2015-11-26T12:38:57Z</time></trkpt><trkpt lat="29.8676029500" lon="35.3186627850"><ele>904.74</ele><time>2015-11-26T12:39:11Z</time></trkpt><trkpt lat="29.8669701163" lon="35.3191376198"><ele>902.82</ele><time>2015-11-26T12:39:25Z</time></trkpt><trkpt lat="29.8663869873" lon="35.3194721416"><ele>900.89</ele><time>2015-11-26T12:39:39Z</time></trkpt><trkpt lat="29.8662167508" lon="35.3195450641"><ele>900.41</ele><time>2015-11-26T12:39:43Z</time></trkpt><trkpt lat="29.8654822446" lon="35.3199450485"><ele>898.49</ele><time>2015-11-26T12:40:02Z</time></trkpt><trkpt lat="29.8653583601" lon="35.3200201504"><ele>898.01</ele><time>2015-11-26T12:40:05Z</time></trkpt><trkpt lat="29.8651587870" lon="35.3201307077"><ele>898.01</ele><time>2015-11-26T12:40:10Z</time></trkpt><trkpt lat="29.8646679427" lon="35.3206078894"><ele>896.09</ele><time>2015-11-26T12:40:23Z</time></trkpt><trkpt lat="29.8642959539" lon="35.3208270762"><ele>894.64</ele><time>2015-11-26T12:40:31Z</time></trkpt><trkpt lat="29.8636633717" lon="35.3212512005"><ele>893.20</ele><time>2015-11-26T12:40:47Z</time></trkpt><trkpt lat="29.8635843303" lon="35.3213048447"><ele>893.20</ele><time>2015-11-26T12:40:49Z</time></trkpt><trkpt lat="29.8631058075" lon="35.3217600659"><ele>891.76</ele><time>2015-11-26T12:41:02Z</time></trkpt><trkpt lat="29.8629950825" lon="35.3218656778"><ele>891.28</ele><time>2015-11-26T12:41:05Z</time></trkpt><trkpt lat="29.8623432219" lon="35.3223763872"><ele>889.36</ele><time>2015-11-26T12:41:22Z</time></trkpt><trkpt lat="29.8616926186" lon="35.3226593602"><ele>887.91</ele><time>2015-11-26T12:41:37Z</time></trkpt><trkpt lat="29.8616198637" lon="35.3227015212"><ele>887.43</ele><time>2015-11-26T12:41:39Z</time></trkpt><trkpt lat="29.8610965814" lon="35.3231890127"><ele>885.99</ele><time>2015-11-26T12:41:57Z</time></trkpt><trkpt lat="29.8606386781" lon="35.3236220218"><ele>884.07</ele><time>2015-11-26T12:42:11Z</time></trkpt><trkpt lat="29.8606087547" lon="35.3236521129"><ele>884.07</ele><time>2015-11-26T12:42:12Z</time></trkpt><trkpt lat="29.8605149612" lon="35.3237352613"><ele>884.07</ele><time>2015-11-26T12:42:15Z</time></trkpt><trkpt lat="29.8604473192" lon="35.3237885702"><ele>883.59</ele><time>2015-11-26T12:42:17Z</time></trkpt><trkpt lat="29.8603391927" lon="35.3238733113"><ele>883.59</ele><time>2015-11-26T12:42:20Z</time></trkpt><trkpt lat="29.8600723129" lon="35.3240818530"><ele>882.63</ele><time>2015-11-26T12:42:28Z</time></trkpt><trkpt lat="29.8595027626" lon="35.3243704420"><ele>881.19</ele><time>2015-11-26T12:42:42Z</time></trkpt><trkpt lat="29.8592238128" lon="35.3245141916"><ele>881.19</ele><time>2015-11-26T12:42:49Z</time></trkpt><trkpt lat="29.8588312883" lon="35.3246383276"><ele>880.22</ele><time>2015-11-26T12:42:57Z</time></trkpt><trkpt lat="29.8581746500" lon="35.3249615338"><ele>878.78</ele><time>2015-11-26T12:43:12Z</time></trkpt><trkpt lat="29.8581372667" lon="35.3249829076"><ele>878.78</ele><time>2015-11-26T12:43:13Z</time></trkpt><trkpt lat="29.8580013961" lon="35.3251001704"><ele>878.30</ele><time>2015-11-26T12:43:17Z</time></trkpt><trkpt lat="29.8578966223" lon="35.3252468538"><ele>877.82</ele><time>2015-11-26T12:43:21Z</time></trkpt><trkpt lat="29.8576209415" lon="35.3255950380"><ele>877.34</ele><time>2015-11-26T12:43:30Z</time></trkpt><trkpt lat="29.8570096493" lon="35.3260115348"><ele>875.90</ele><time>2015-11-26T12:43:45Z</time></trkpt><trkpt lat="29.8569351342" lon="35.3260592278"><ele>875.90</ele><time>2015-11-26T12:43:47Z</time></trkpt><trkpt lat="29.8565224931" lon="35.3263881337"><ele>874.94</ele><time>2015-11-26T12:43:58Z</time></trkpt><trkpt lat="29.8559595644" lon="35.3269463684"><ele>873.50</ele><time>2015-11-26T12:44:15Z</time></trkpt><trkpt lat="29.8555938620" lon="35.3271896113"><ele>873.01</ele><time>2015-11-26T12:44:24Z</time></trkpt><trkpt lat="29.8551150877" lon="35.3274745122"><ele>871.57</ele><time>2015-11-26T12:44:37Z</time></trkpt><trkpt lat="29.8545667436" lon="35.3277106304"><ele>870.13</ele><time>2015-11-26T12:44:52Z</time></trkpt><trkpt lat="29.8538878933" lon="35.3279293142"><ele>869.65</ele><time>2015-11-26T12:45:09Z</time></trkpt><trkpt lat="29.8536657728" lon="35.3280035779"><ele>869.17</ele><time>2015-11-26T12:45:14Z</time></trkpt><trkpt lat="29.8531673849" lon="35.3282117844"><ele>868.21</ele><time>2015-11-26T12:45:27Z</time></trkpt><trkpt lat="29.8524592817" lon="35.3285462223"><ele>867.25</ele><time>2015-11-26T12:45:43Z</time></trkpt><trkpt lat="29.8517435510" lon="35.3287899680"><ele>866.29</ele><time>2015-11-26T12:45:59Z</time></trkpt><trkpt lat="29.8511924408" lon="35.3289907984"><ele>865.32</ele><time>2015-11-26T12:46:12Z</time></trkpt><trkpt lat="29.8505532369" lon="35.3292448539"><ele>864.36</ele><time>2015-11-26T12:46:28Z</time></trkpt><trkpt lat="29.8503932264" lon="35.3293783776"><ele>863.88</ele><time>2015-11-26T12:46:33Z</time></trkpt><trkpt lat="29.8498557787" lon="35.3295516316"><ele>862.92</ele><time>2015-11-26T12:46:45Z</time></trkpt><trkpt lat="29.8492692132" lon="35.3298898414"><ele>861.96</ele><time>2015-11-26T12:47:00Z</time></trkpt><trkpt lat="29.8485611938" lon="35.3305168916"><ele>860.52</ele><time>2015-11-26T12:47:17Z</time></trkpt><trkpt lat="29.8482965771" lon="35.3306816798"><ele>860.04</ele><time>2015-11-26T12:47:23Z</time></trkpt><trkpt lat="29.8481351417" lon="35.3308054805"><ele>860.04</ele><time>2015-11-26T12:47:27Z</time></trkpt><trkpt lat="29.8479524162" lon="35.3309716098"><ele>858.59</ele><time>2015-11-26T12:47:34Z</time></trkpt><trkpt lat="29.8478598800" lon="35.3310741205"><ele>859.08</ele><time>2015-11-26T12:47:40Z</time></trkpt><trkpt lat="29.8474760726" lon="35.3313249070"><ele>858.11</ele><time>2015-11-26T12:47:53Z</time></trkpt><trkpt lat="29.8472421337" lon="35.3313674033"><ele>858.11</ele><time>2015-11-26T12:47:59Z</time></trkpt><trkpt lat="29.8468739167" lon="35.3313827422"><ele>857.15</ele><time>2015-11-26T12:48:07Z</time></trkpt><trkpt lat="29.8461005185" lon="35.3314798884"><ele>856.67</ele><time>2015-11-26T12:48:24Z</time></trkpt><trkpt lat="29.8452556226" lon="35.3315863386"><ele>855.71</ele><time>2015-11-26T12:48:42Z</time></trkpt><trkpt lat="29.8452079296" lon="35.3315867577"><ele>855.71</ele><time>2015-11-26T12:48:43Z</time></trkpt><trkpt lat="29.8446315899" lon="35.3317288309"><ele>855.23</ele><time>2015-11-26T12:48:58Z</time></trkpt><trkpt lat="29.8438391648" lon="35.3319193516"><ele>854.27</ele><time>2015-11-26T12:49:16Z</time></trkpt><trkpt lat="29.8434915673" lon="35.3320399672"><ele>853.79</ele><time>2015-11-26T12:49:26Z</time></trkpt><trkpt lat="29.8428669479" lon="35.3320593294"><ele>853.31</ele><time>2015-11-26T12:49:41Z</time></trkpt><trkpt lat="29.8426300753" lon="35.3319500294"><ele>852.83</ele><time>2015-11-26T12:49:47Z</time></trkpt><trkpt lat="29.8424925283" lon="35.3319182619"><ele>853.31</ele><time>2015-11-26T12:49:50Z</time></trkpt><trkpt lat="29.8418632988" lon="35.3317842353"><ele>852.35</ele><time>2015-11-26T12:50:05Z</time></trkpt><trkpt lat="29.8411866277" lon="35.3316994105"><ele>851.87</ele><time>2015-11-26T12:50:21Z</time></trkpt><trkpt lat="29.8408140521" lon="35.3316395637"><ele>851.38</ele><time>2015-11-26T12:50:32Z</time></trkpt><trkpt lat="29.8403203581" lon="35.3314898629"><ele>850.90</ele><time>2015-11-26T12:50:46Z</time></trkpt><trkpt lat="29.8395288549" lon="35.3312708437"><ele>850.42</ele><time>2015-11-26T12:51:03Z</time></trkpt><trkpt lat="29.8389962688" lon="35.3310883697"><ele>850.42</ele><time>2015-11-26T12:51:14Z</time></trkpt><trkpt lat="29.8388230149" lon="35.3310224880"><ele>850.42</ele><time>2015-11-26T12:51:18Z</time></trkpt><trkpt lat="29.8379705753" lon="35.3308473900"><ele>849.94</ele><time>2015-11-26T12:51:35Z</time></trkpt><trkpt lat="29.8376264982" lon="35.3307465557"><ele>849.46</ele><time>2015-11-26T12:51:42Z</time></trkpt><trkpt lat="29.8375901207" lon="35.3307191469"><ele>848.98</ele><time>2015-11-26T12:51:43Z</time></trkpt><trkpt lat="29.8374577705" lon="35.3305773251"><ele>848.98</ele><time>2015-11-26T12:51:51Z</time></trkpt><trkpt lat="29.8373177927" lon="35.3302955255"><ele>848.50</ele><time>2015-11-26T12:52:04Z</time></trkpt><trkpt lat="29.8370650783" lon="35.3298574034"><ele>848.02</ele><time>2015-11-26T12:52:18Z</time></trkpt><trkpt lat="29.8368021380" lon="35.3293392342"><ele>847.54</ele><time>2015-11-26T12:52:32Z</time></trkpt><trkpt lat="29.8365596496" lon="35.3288611304"><ele>848.02</ele><time>2015-11-26T12:52:46Z</time></trkpt><trkpt lat="29.8362673726" lon="35.3283976112"><ele>848.98</ele><time>2015-11-26T12:52:59Z</time></trkpt><trkpt lat="29.8361015785" lon="35.3281291388"><ele>848.98</ele><time>2015-11-26T12:53:06Z</time></trkpt><trkpt lat="29.8360807076" lon="35.3280895762"><ele>848.98</ele><time>2015-11-26T12:53:07Z</time></trkpt><trkpt lat="29.8356983252" lon="35.3273958061"><ele>849.94</ele><time>2015-11-26T12:53:24Z</time></trkpt><trkpt lat="29.8354321998" lon="35.3269247431"><ele>849.94</ele><time>2015-11-26T12:53:37Z</time></trkpt><trkpt lat="29.8351130169" lon="35.3263647482"><ele>850.90</ele><time>2015-11-26T12:53:52Z</time></trkpt><trkpt lat="29.8348423652" lon="35.3258278873"><ele>852.35</ele><time>2015-11-26T12:54:06Z</time></trkpt><trkpt lat="29.8345548660" lon="35.3253637813"><ele>854.27</ele><time>2015-11-26T12:54:19Z</time></trkpt><trkpt lat="29.8343219329" lon="35.3249060456"><ele>855.23</ele><time>2015-11-26T12:54:32Z</time></trkpt><trkpt lat="29.8340708949" lon="35.3245372418"><ele>856.67</ele><time>2015-11-26T12:54:44Z</time></trkpt><trkpt lat="29.8336725868" lon="35.3241994511"><ele>857.63</ele><time>2015-11-26T12:54:58Z</time></trkpt><trkpt lat="29.8332635500" lon="35.3240215871"><ele>857.63</ele><time>2015-11-26T12:55:10Z</time></trkpt><trkpt lat="29.8331060540" lon="35.3239576332"><ele>857.63</ele><time>2015-11-26T12:55:14Z</time></trkpt><trkpt lat="29.8329792358" lon="35.3238970321"><ele>858.11</ele><time>2015-11-26T12:55:17Z</time></trkpt><trkpt lat="29.8321655206" lon="35.3235578164"><ele>857.15</ele><time>2015-11-26T12:55:35Z</time></trkpt><trkpt lat="29.8312237300" lon="35.3231738415"><ele>856.67</ele><time>2015-11-26T12:55:55Z</time></trkpt><trkpt lat="29.8308877833" lon="35.3230219614"><ele>856.67</ele><time>2015-11-26T12:56:02Z</time></trkpt><trkpt lat="29.8305240087" lon="35.3228701651"><ele>855.71</ele><time>2015-11-26T12:56:09Z</time></trkpt><trkpt lat="29.8304231744" lon="35.3228207119"><ele>855.23</ele><time>2015-11-26T12:56:11Z</time></trkpt><trkpt lat="29.8303706199" lon="35.3228032775"><ele>855.23</ele><time>2015-11-26T12:56:12Z</time></trkpt><trkpt lat="29.8303170595" lon="35.3227853402"><ele>855.23</ele><time>2015-11-26T12:56:13Z</time></trkpt><trkpt lat="29.8296520393" lon="35.3225020319"><ele>853.79</ele><time>2015-11-26T12:56:25Z</time></trkpt><trkpt lat="29.8295975570" lon="35.3224778082"><ele>853.31</ele><time>2015-11-26T12:56:26Z</time></trkpt><trkpt lat="29.8288197163" lon="35.3221533448"><ele>853.31</ele><time>2015-11-26T12:56:40Z</time></trkpt><trkpt lat="29.8279715516" lon="35.3217917494"><ele>852.83</ele><time>2015-11-26T12:56:56Z</time></trkpt><trkpt lat="29.8271911126" lon="35.3214648552"><ele>851.87</ele><time>2015-11-26T12:57:10Z</time></trkpt><trkpt lat="29.8267519008" lon="35.3212717362"><ele>851.38</ele><time>2015-11-26T12:57:18Z</time></trkpt><trkpt lat="29.8259386886" lon="35.3209325206"><ele>849.46</ele><time>2015-11-26T12:57:32Z</time></trkpt><trkpt lat="29.8258193303" lon="35.3208819777"><ele>848.98</ele><time>2015-11-26T12:57:34Z</time></trkpt><trkpt lat="29.8257591482" lon="35.3208586760"><ele>848.98</ele><time>2015-11-26T12:57:35Z</time></trkpt><trkpt lat="29.8256997205" lon="35.3208333626"><ele>848.98</ele><time>2015-11-26T12:57:36Z</time></trkpt><trkpt lat="29.8256412987" lon="35.3208091389"><ele>848.50</ele><time>2015-11-26T12:57:37Z</time></trkpt><trkpt lat="29.8255837988" lon="35.3207839932"><ele>848.98</ele><time>2015-11-26T12:57:38Z</time></trkpt><trkpt lat="29.8255264666" lon="35.3207597695"><ele>848.50</ele><time>2015-11-26T12:57:39Z</time></trkpt><trkpt lat="29.8254705593" lon="35.3207342885"><ele>848.50</ele><time>2015-11-26T12:57:40Z</time></trkpt><trkpt lat="29.8244752083" lon="35.3203248326"><ele>846.58</ele><time>2015-11-26T12:57:56Z</time></trkpt><trkpt lat="29.8232709803" lon="35.3198230918"><ele>845.14</ele><time>2015-11-26T12:58:15Z</time></trkpt><trkpt lat="29.8223799840" lon="35.3194431402"><ele>843.69</ele><time>2015-11-26T12:58:31Z</time></trkpt><trkpt lat="29.8216720484" lon="35.3191390447"><ele>843.69</ele><time>2015-11-26T12:58:47Z</time></trkpt><trkpt lat="29.8210617620" lon="35.3188875876"><ele>843.69</ele><time>2015-11-26T12:59:04Z</time></trkpt><trkpt lat="29.8206454329" lon="35.3187150881"><ele>843.69</ele><time>2015-11-26T12:59:17Z</time></trkpt><trkpt lat="29.8200944066" lon="35.3184891958"><ele>843.69</ele><time>2015-11-26T12:59:32Z</time></trkpt><trkpt lat="29.8196836095" lon="35.3183238208"><ele>842.73</ele><time>2015-11-26T12:59:44Z</time></trkpt><trkpt lat="29.8191608302" lon="35.3181117587"><ele>842.73</ele><time>2015-11-26T13:00:00Z</time></trkpt><trkpt lat="29.8186798766" lon="35.3179078270"><ele>842.25</ele><time>2015-11-26T13:00:12Z</time></trkpt><trkpt lat="29.8185893521" lon="35.3178681806"><ele>841.77</ele><time>2015-11-26T13:00:14Z</time></trkpt><trkpt lat="29.8185433354" lon="35.3178499918"><ele>841.77</ele><time>2015-11-26T13:00:15Z</time></trkpt><trkpt lat="29.8179464601" lon="35.3175880574"><ele>841.29</ele><time>2015-11-26T13:00:29Z</time></trkpt><trkpt lat="29.8179047182" lon="35.3175715450"><ele>841.29</ele><time>2015-11-26T13:00:30Z</time></trkpt><trkpt lat="29.8178625572" lon="35.3175573796"><ele>840.81</ele><time>2015-11-26T13:00:31Z</time></trkpt><trkpt lat="29.8177330568" lon="35.3175170626"><ele>840.81</ele><time>2015-11-26T13:00:34Z</time></trkpt><trkpt lat="29.8176939134" lon="35.3174930066"><ele>840.81</ele><time>2015-11-26T13:00:35Z</time></trkpt><trkpt lat="29.8176247627" lon="35.3174395300"><ele>840.81</ele><time>2015-11-26T13:00:37Z</time></trkpt><trkpt lat="29.8175943363" lon="35.3174093552"><ele>840.81</ele><time>2015-11-26T13:00:38Z</time></trkpt><trkpt lat="29.8173532728" lon="35.3170311637"><ele>842.25</ele><time>2015-11-26T13:00:51Z</time></trkpt><trkpt lat="29.8172931746" lon="35.3169111349"><ele>842.25</ele><time>2015-11-26T13:00:58Z</time></trkpt><trkpt lat="29.8172910791" lon="35.3168960474"><ele>842.25</ele><time>2015-11-26T13:00:59Z</time></trkpt><trkpt lat="29.8172847088" lon="35.3168819658"><ele>842.25</ele><time>2015-11-26T13:01:00Z</time></trkpt><trkpt lat="29.8172736447" lon="35.3168716561"><ele>842.25</ele><time>2015-11-26T13:01:01Z</time></trkpt><trkpt lat="29.8172588926" lon="35.3168656211"><ele>842.73</ele><time>2015-11-26T13:01:02Z</time></trkpt><trkpt lat="29.8172441404" lon="35.3168633580"><ele>842.25</ele><time>2015-11-26T13:01:03Z</time></trkpt><trkpt lat="29.8172294721" lon="35.3168652859"><ele>842.73</ele><time>2015-11-26T13:01:04Z</time></trkpt><trkpt lat="29.8172140494" lon="35.3168693092"><ele>842.73</ele><time>2015-11-26T13:01:05Z</time></trkpt><trkpt lat="29.8171847127" lon="35.3169139009"><ele>842.73</ele><time>2015-11-26T13:01:11Z</time></trkpt><trkpt lat="29.8171624169" lon="35.3168850671"><ele>843.21</ele><time>2015-11-26T13:01:14Z</time></trkpt><trkpt lat="29.8171485867" lon="35.3168638609"><ele>842.25</ele><time>2015-11-26T13:01:15Z</time></trkpt><trkpt lat="29.8171330802" lon="35.3168377094"><ele>842.25</ele><time>2015-11-26T13:01:16Z</time></trkpt><trkpt lat="29.8167806212" lon="35.3163062129"><ele>843.69</ele><time>2015-11-26T13:01:31Z</time></trkpt><trkpt lat="29.8164606001" lon="35.3158266004"><ele>844.66</ele><time>2015-11-26T13:01:44Z</time></trkpt><trkpt lat="29.8164334428" lon="35.3157923184"><ele>844.66</ele><time>2015-11-26T13:01:45Z</time></trkpt><trkpt lat="29.8164059501" lon="35.3157587070"><ele>844.66</ele><time>2015-11-26T13:01:46Z</time></trkpt><trkpt lat="29.8163805529" lon="35.3157213237"><ele>844.66</ele><time>2015-11-26T13:01:47Z</time></trkpt><trkpt lat="29.8163554911" lon="35.3156834375"><ele>844.66</ele><time>2015-11-26T13:01:48Z</time></trkpt><trkpt lat="29.8162473645" lon="35.3155412804"><ele>845.14</ele><time>2015-11-26T13:01:52Z</time></trkpt><trkpt lat="29.8158960789" lon="35.3150606621"><ele>846.10</ele><time>2015-11-26T13:02:05Z</time></trkpt><trkpt lat="29.8151841201" lon="35.3141964041"><ele>847.06</ele><time>2015-11-26T13:02:28Z</time></trkpt><trkpt lat="29.8145413119" lon="35.3134818468"><ele>847.06</ele><time>2015-11-26T13:02:46Z</time></trkpt><trkpt lat="29.8143460974" lon="35.3132836986"><ele>847.06</ele><time>2015-11-26T13:02:51Z</time></trkpt><trkpt lat="29.8136975057" lon="35.3126559779"><ele>846.58</ele><time>2015-11-26T13:03:06Z</time></trkpt><trkpt lat="29.8128922563" lon="35.3119609505"><ele>846.58</ele><time>2015-11-26T13:03:22Z</time></trkpt><trkpt lat="29.8119783774" lon="35.3112456389"><ele>847.54</ele><time>2015-11-26T13:03:40Z</time></trkpt><trkpt lat="29.8109067511" lon="35.3105264716"><ele>848.98</ele><time>2015-11-26T13:04:02Z</time></trkpt><trkpt lat="29.8100195266" lon="35.3100014292"><ele>849.94</ele><time>2015-11-26T13:04:21Z</time></trkpt><trkpt lat="29.8091573641" lon="35.3095684201"><ele>850.90</ele><time>2015-11-26T13:04:39Z</time></trkpt><trkpt lat="29.8081916850" lon="35.3091533482"><ele>852.35</ele><time>2015-11-26T13:04:59Z</time></trkpt><trkpt lat="29.8072469607" lon="35.3088012245"><ele>852.35</ele><time>2015-11-26T13:05:18Z</time></trkpt><trkpt lat="29.8060032539" lon="35.3083799500"><ele>850.42</ele><time>2015-11-26T13:05:39Z</time></trkpt><trkpt lat="29.8048053961" lon="35.3079641238"><ele>848.02</ele><time>2015-11-26T13:05:57Z</time></trkpt><trkpt lat="29.8044764064" lon="35.3078415804"><ele>846.58</ele><time>2015-11-26T13:06:06Z</time></trkpt><trkpt lat="29.8044609837" lon="35.3078330308"><ele>846.58</ele><time>2015-11-26T13:06:17Z</time></trkpt><trkpt lat="29.8044459801" lon="35.3078420833"><ele>846.58</ele><time>2015-11-26T13:06:34Z</time></trkpt><trkpt lat="29.8044362571" lon="35.3078521416"><ele>846.58</ele><time>2015-11-26T13:06:35Z</time></trkpt><trkpt lat="29.8043671064" lon="35.3079171851"><ele>846.58</ele><time>2015-11-26T13:06:41Z</time></trkpt><trkpt lat="29.8043459002" lon="35.3079564963"><ele>846.58</ele><time>2015-11-26T13:06:49Z</time></trkpt><trkpt lat="29.8042425513" lon="35.3080727533"><ele>846.10</ele><time>2015-11-26T13:07:05Z</time></trkpt><trkpt lat="29.8042320739" lon="35.3080690652"><ele>845.62</ele><time>2015-11-26T13:07:07Z</time></trkpt><trkpt lat="29.8040761705" lon="35.3081661277"><ele>845.14</ele><time>2015-11-26T13:07:17Z</time></trkpt><trkpt lat="29.8039505258" lon="35.3086547926"><ele>843.69</ele><time>2015-11-26T13:07:29Z</time></trkpt><trkpt lat="29.8039264698" lon="35.3087121248"><ele>843.21</ele><time>2015-11-26T13:07:30Z</time></trkpt><trkpt lat="29.8037997354" lon="35.3090482391"><ele>841.29</ele><time>2015-11-26T13:07:35Z</time></trkpt><trkpt lat="29.8036161717" lon="35.3096382413"><ele>838.41</ele><time>2015-11-26T13:07:42Z</time></trkpt><trkpt lat="29.8035941273" lon="35.3097311128"><ele>837.93</ele><time>2015-11-26T13:07:43Z</time></trkpt><trkpt lat="29.8033190332" lon="35.3105095401"><ele>834.56</ele><time>2015-11-26T13:07:52Z</time></trkpt><trkpt lat="29.8031901196" lon="35.3108806908"><ele>833.12</ele><time>2015-11-26T13:07:57Z</time></trkpt><trkpt lat="29.8030801490" lon="35.3111856245"><ele>831.20</ele><time>2015-11-26T13:08:06Z</time></trkpt><trkpt lat="29.8030610383" lon="35.3112134524"><ele>830.72</ele><time>2015-11-26T13:08:08Z</time></trkpt><trkpt lat="29.8030556738" lon="35.3112394363"><ele>830.72</ele><time>2015-11-26T13:08:23Z</time></trkpt><trkpt lat="29.8030272592" lon="35.3112420347"><ele>830.72</ele><time>2015-11-26T13:08:45Z</time></trkpt><trkpt lat="29.8030152731" lon="35.3112399392"><ele>830.24</ele><time>2015-11-26T13:08:46Z</time></trkpt><trkpt lat="29.8027543444" lon="35.3111893125"><ele>829.76</ele><time>2015-11-26T13:08:59Z</time></trkpt><trkpt lat="29.8022988718" lon="35.3110321518"><ele>828.79</ele><time>2015-11-26T13:09:16Z</time></trkpt><trkpt lat="29.8019652721" lon="35.3108809423"><ele>828.79</ele><time>2015-11-26T13:09:31Z</time></trkpt><trkpt lat="29.8019502684" lon="35.3108635917"><ele>828.31</ele><time>2015-11-26T13:09:32Z</time></trkpt><trkpt lat="29.8019455746" lon="35.3108427208"><ele>828.31</ele><time>2015-11-26T13:09:33Z</time></trkpt><trkpt lat="29.8019581474" lon="35.3108008951"><ele>828.31</ele><time>2015-11-26T13:09:45Z</time></trkpt><trkpt lat="29.8019558843" lon="35.3107901663"><ele>828.31</ele><time>2015-11-26T13:09:58Z</time></trkpt><trkpt lat="29.8019534536" lon="35.3107771743"><ele>828.79</ele><time>2015-11-26T13:10:24Z</time></trkpt><trkpt lat="29.8019828741" lon="35.3107638471"><ele>828.79</ele><time>2015-11-26T13:11:02Z</time></trkpt><trkpt lat="29.8019917589" lon="35.3107915074"><ele>828.79</ele><time>2015-11-26T13:11:48Z</time></trkpt><trkpt lat="29.8019868974" lon="35.3107805271"><ele>828.79</ele><time>2015-11-26T13:12:27Z</time></trkpt><trkpt lat="29.8020103667" lon="35.3107663617"><ele>829.27</ele><time>2015-11-26T13:13:12Z</time></trkpt><trkpt lat="29.8019998055" lon="35.3107721452"><ele>829.27</ele><time>2015-11-26T13:13:47Z</time></trkpt><trkpt lat="29.8019759171" lon="35.3108035773"><ele>829.27</ele><time>2015-11-26T13:14:33Z</time></trkpt><trkpt lat="29.8019835446" lon="35.3107878193"><ele>829.27</ele><time>2015-11-26T13:15:08Z</time></trkpt><trkpt lat="29.8019609135" lon="35.3107940219"><ele>829.76</ele><time>2015-11-26T13:15:48Z</time></trkpt><trkpt lat="29.8019519448" lon="35.3107799403"><ele>829.76</ele><time>2015-11-26T13:16:30Z</time></trkpt><trkpt lat="29.8019717261" lon="35.3107915074"><ele>829.27</ele><time>2015-11-26T13:17:11Z</time></trkpt><trkpt lat="29.8019545432" lon="35.3108091932"><ele>829.27</ele><time>2015-11-26T13:17:55Z</time></trkpt><trkpt lat="29.8019535374" lon="35.3107881546"><ele>829.76</ele><time>2015-11-26T13:18:38Z</time></trkpt><trkpt lat="29.8019394558" lon="35.3107919265"><ele>829.76</ele><time>2015-11-26T13:19:20Z</time></trkpt><trkpt lat="29.8019538727" lon="35.3108060919"><ele>829.27</ele><time>2015-11-26T13:19:54Z</time></trkpt><trkpt lat="29.8019360192" lon="35.3107703850"><ele>829.76</ele><time>2015-11-26T13:20:28Z</time></trkpt><trkpt lat="29.8019459937" lon="35.3107760008"><ele>829.76</ele><time>2015-11-26T13:21:04Z</time></trkpt><trkpt lat="29.8019472510" lon="35.3107712232"><ele>829.76</ele><time>2015-11-26T13:21:43Z</time></trkpt><trkpt lat="29.8019053414" lon="35.3108021524"><ele>829.27</ele><time>2015-11-26T13:22:12Z</time></trkpt><trkpt lat="29.8018893320" lon="35.3108243644"><ele>830.72</ele><time>2015-11-26T13:22:15Z</time></trkpt><trkpt lat="29.8018884938" lon="35.3108319081"><ele>829.27</ele><time>2015-11-26T13:22:16Z</time></trkpt><trkpt lat="29.8019054253" lon="35.3109018132"><ele>829.27</ele><time>2015-11-26T13:22:28Z</time></trkpt><trkpt lat="29.8019174952" lon="35.3109129611"><ele>829.27</ele><time>2015-11-26T13:22:29Z</time></trkpt><trkpt lat="29.8021812737" lon="35.3110473230"><ele>829.76</ele><time>2015-11-26T13:22:42Z</time></trkpt><trkpt lat="29.8025833536" lon="35.3112331498"><ele>830.72</ele><time>2015-11-26T13:22:57Z</time></trkpt><trkpt lat="29.8028304521" lon="35.3113620635"><ele>830.72</ele><time>2015-11-26T13:23:07Z</time></trkpt><trkpt lat="29.8028308712" lon="35.3113893885"><ele>830.72</ele><time>2015-11-26T13:23:08Z</time></trkpt><trkpt lat="29.8028237466" lon="35.3114195634"><ele>830.24</ele><time>2015-11-26T13:23:09Z</time></trkpt><trkpt lat="29.8028105870" lon="35.3114501573"><ele>830.24</ele><time>2015-11-26T13:23:10Z</time></trkpt><trkpt lat="29.8027944099" lon="35.3114815056"><ele>830.24</ele><time>2015-11-26T13:23:11Z</time></trkpt><trkpt lat="29.8025005404" lon="35.3119564243"><ele>827.83</ele><time>2015-11-26T13:23:24Z</time></trkpt><trkpt lat="29.8024695273" lon="35.3119963221"><ele>827.83</ele><time>2015-11-26T13:23:25Z</time></trkpt><trkpt lat="29.8024023045" lon="35.3120806441"><ele>827.35</ele><time>2015-11-26T13:23:27Z</time></trkpt><trkpt lat="29.8021670245" lon="35.3124123998"><ele>826.39</ele><time>2015-11-26T13:23:34Z</time></trkpt><trkpt lat="29.8018313292" lon="35.3128915932"><ele>824.47</ele><time>2015-11-26T13:23:43Z</time></trkpt><trkpt lat="29.8016050179" lon="35.3132335749"><ele>823.03</ele><time>2015-11-26T13:23:49Z</time></trkpt><trkpt lat="29.8015623540" lon="35.3132824413"><ele>823.03</ele><time>2015-11-26T13:23:50Z</time></trkpt><trkpt lat="29.8015228752" lon="35.3133345768"><ele>822.55</ele><time>2015-11-26T13:23:51Z</time></trkpt><trkpt lat="29.8009114992" lon="35.3141835798"><ele>819.66</ele><time>2015-11-26T13:24:07Z</time></trkpt><trkpt lat="29.8007893749" lon="35.3143470269"><ele>819.18</ele><time>2015-11-26T13:24:10Z</time></trkpt><trkpt lat="29.8006920610" lon="35.3145213705"><ele>819.18</ele><time>2015-11-26T13:24:13Z</time></trkpt><trkpt lat="29.8006534204" lon="35.3145725839"><ele>819.18</ele><time>2015-11-26T13:24:14Z</time></trkpt><trkpt lat="29.8005345650" lon="35.3147242125"><ele>818.22</ele><time>2015-11-26T13:24:17Z</time></trkpt><trkpt lat="29.8001586366" lon="35.3152650967"><ele>817.26</ele><time>2015-11-26T13:24:28Z</time></trkpt><trkpt lat="29.8001282942" lon="35.3153129574"><ele>817.26</ele><time>2015-11-26T13:24:29Z</time></trkpt><trkpt lat="29.7998539545" lon="35.3157186415"><ele>816.30</ele><time>2015-11-26T13:24:38Z</time></trkpt><trkpt lat="29.7995947022" lon="35.3156898916"><ele>815.82</ele><time>2015-11-26T13:24:45Z</time></trkpt><trkpt lat="29.7994522937" lon="35.3155580442"><ele>815.34</ele><time>2015-11-26T13:24:52Z</time></trkpt><trkpt lat="29.7992450092" lon="35.3156776540"><ele>814.85</ele><time>2015-11-26T13:25:02Z</time></trkpt><trkpt lat="29.7988812346" lon="35.3156090062"><ele>815.34</ele><time>2015-11-26T13:25:16Z</time></trkpt><trkpt lat="29.7983772308" lon="35.3154939227"><ele>815.34</ele><time>2015-11-26T13:25:31Z</time></trkpt><trkpt lat="29.7980327345" lon="35.3155090101"><ele>815.82</ele><time>2015-11-26T13:25:43Z</time></trkpt><trkpt lat="29.7974861506" lon="35.3156933282"><ele>815.82</ele><time>2015-11-26T13:25:58Z</time></trkpt><trkpt lat="29.7972888406" lon="35.3157636523"><ele>815.34</ele><time>2015-11-26T13:26:03Z</time></trkpt><trkpt lat="29.7970107291" lon="35.3159253392"><ele>814.85</ele><time>2015-11-26T13:26:10Z</time></trkpt><trkpt lat="29.7965690028" lon="35.3164606914"><ele>814.85</ele><time>2015-11-26T13:26:24Z</time></trkpt><trkpt lat="29.7961414419" lon="35.3172263782"><ele>815.82</ele><time>2015-11-26T13:26:41Z</time></trkpt><trkpt lat="29.7959018871" lon="35.3178035561"><ele>816.78</ele><time>2015-11-26T13:26:55Z</time></trkpt><trkpt lat="29.7955349274" lon="35.3181838430"><ele>816.30</ele><time>2015-11-26T13:27:08Z</time></trkpt><trkpt lat="29.7953781020" lon="35.3183675744"><ele>816.30</ele><time>2015-11-26T13:27:13Z</time></trkpt><trkpt lat="29.7953447420" lon="35.3184043709"><ele>816.30</ele><time>2015-11-26T13:27:14Z</time></trkpt><trkpt lat="29.7947746888" lon="35.3190661222"><ele>814.37</ele><time>2015-11-26T13:27:29Z</time></trkpt><trkpt lat="29.7940118518" lon="35.3199603036"><ele>812.45</ele><time>2015-11-26T13:27:47Z</time></trkpt><trkpt lat="29.7934796847" lon="35.3206984978"><ele>812.45</ele><time>2015-11-26T13:28:02Z</time></trkpt><trkpt lat="29.7931964602" lon="35.3213722352"><ele>812.45</ele><time>2015-11-26T13:28:15Z</time></trkpt><trkpt lat="29.7931531258" lon="35.3214808647"><ele>812.45</ele><time>2015-11-26T13:28:17Z</time></trkpt><trkpt lat="29.7927243076" lon="35.3224118426"><ele>812.93</ele><time>2015-11-26T13:28:35Z</time></trkpt><trkpt lat="29.7923448589" lon="35.3232209478"><ele>812.93</ele><time>2015-11-26T13:28:52Z</time></trkpt><trkpt lat="29.7920364887" lon="35.3237989638"><ele>812.93</ele><time>2015-11-26T13:29:05Z</time></trkpt><trkpt lat="29.7919105086" lon="35.3240517620"><ele>812.93</ele><time>2015-11-26T13:29:11Z</time></trkpt><trkpt lat="29.7915909067" lon="35.3247545846"><ele>812.93</ele><time>2015-11-26T13:29:27Z</time></trkpt><trkpt lat="29.7914180718" lon="35.3251119889"><ele>812.93</ele><time>2015-11-26T13:29:35Z</time></trkpt><trkpt lat="29.7913184948" lon="35.3252843209"><ele>812.93</ele><time>2015-11-26T13:29:39Z</time></trkpt><trkpt lat="29.7912847996" lon="35.3253135737"><ele>812.93</ele><time>2015-11-26T13:29:40Z</time></trkpt><trkpt lat="29.7912469134" lon="35.3253274877"><ele>812.45</ele><time>2015-11-26T13:29:41Z</time></trkpt><trkpt lat="29.7912098654" lon="35.3253267333"><ele>812.93</ele><time>2015-11-26T13:29:42Z</time></trkpt><trkpt lat="29.7911739070" lon="35.3253145795"><ele>812.45</ele><time>2015-11-26T13:29:43Z</time></trkpt><trkpt lat="29.7911387030" lon="35.3252989054"><ele>812.45</ele><time>2015-11-26T13:29:44Z</time></trkpt><trkpt lat="29.7910239547" lon="35.3252543136"><ele>812.45</ele><time>2015-11-26T13:29:47Z</time></trkpt><trkpt lat="29.7903353814" lon="35.3249638807"><ele>811.97</ele><time>2015-11-26T13:30:02Z</time></trkpt><trkpt lat="29.7902908735" lon="35.3249414172"><ele>811.97</ele><time>2015-11-26T13:30:03Z</time></trkpt><trkpt lat="29.7902459465" lon="35.3249227256"><ele>811.97</ele><time>2015-11-26T13:30:04Z</time></trkpt><trkpt lat="29.7895556968" lon="35.3246281017"><ele>811.01</ele><time>2015-11-26T13:30:19Z</time></trkpt><trkpt lat="29.7894691955" lon="35.3245941550"><ele>811.49</ele><time>2015-11-26T13:30:21Z</time></trkpt><trkpt lat="29.7894259449" lon="35.3245849349"><ele>811.01</ele><time>2015-11-26T13:30:22Z</time></trkpt><trkpt lat="29.7893834487" lon="35.3245825879"><ele>811.01</ele><time>2015-11-26T13:30:23Z</time></trkpt><trkpt lat="29.7893421259" lon="35.3245874494"><ele>811.01</ele><time>2015-11-26T13:30:24Z</time></trkpt><trkpt lat="29.7893017251" lon="35.3246027045"><ele>811.01</ele><time>2015-11-26T13:30:25Z</time></trkpt><trkpt lat="29.7892660182" lon="35.3246273473"><ele>811.01</ele><time>2015-11-26T13:30:26Z</time></trkpt><trkpt lat="29.7892368492" lon="35.3246626351"><ele>811.49</ele><time>2015-11-26T13:30:27Z</time></trkpt><trkpt lat="29.7892153077" lon="35.3247065563"><ele>811.49</ele><time>2015-11-26T13:30:28Z</time></trkpt><trkpt lat="29.7891982924" lon="35.3247540817"><ele>811.49</ele><time>2015-11-26T13:30:29Z</time></trkpt><trkpt lat="29.7891811933" lon="35.3248042893"><ele>811.49</ele><time>2015-11-26T13:30:30Z</time></trkpt><trkpt lat="29.7890480887" lon="35.3252423275"><ele>811.01</ele><time>2015-11-26T13:30:39Z</time></trkpt><trkpt lat="29.7890325822" lon="35.3252868354"><ele>811.49</ele><time>2015-11-26T13:30:40Z</time></trkpt><trkpt lat="29.7890200932" lon="35.3253342770"><ele>811.01</ele><time>2015-11-26T13:30:41Z</time></trkpt><trkpt lat="29.7890068498" lon="35.3253833111"><ele>811.49</ele><time>2015-11-26T13:30:42Z</time></trkpt><trkpt lat="29.7889925167" lon="35.3254328482"><ele>811.01</ele><time>2015-11-26T13:30:43Z</time></trkpt><trkpt lat="29.7889624257" lon="35.3255352750"><ele>811.49</ele><time>2015-11-26T13:30:45Z</time></trkpt><trkpt lat="29.7889449913" lon="35.3255870752"><ele>811.01</ele><time>2015-11-26T13:30:46Z</time></trkpt><trkpt lat="29.7886238806" lon="35.3265561908"><ele>811.01</ele><time>2015-11-26T13:31:03Z</time></trkpt><trkpt lat="29.7882189509" lon="35.3277784400"><ele>810.53</ele><time>2015-11-26T13:31:24Z</time></trkpt><trkpt lat="29.7878756281" lon="35.3288518265"><ele>811.49</ele><time>2015-11-26T13:31:42Z</time></trkpt><trkpt lat="29.7875916492" lon="35.3298482671"><ele>811.01</ele><time>2015-11-26T13:31:59Z</time></trkpt><trkpt lat="29.7873635776" lon="35.3307121061"><ele>810.53</ele><time>2015-11-26T13:32:14Z</time></trkpt><trkpt lat="29.7872883081" lon="35.3310000245"><ele>811.01</ele><time>2015-11-26T13:32:19Z</time></trkpt><trkpt lat="29.7870125435" lon="35.3319902625"><ele>811.01</ele><time>2015-11-26T13:32:36Z</time></trkpt><trkpt lat="29.7867648583" lon="35.3329324722"><ele>810.53</ele><time>2015-11-26T13:32:54Z</time></trkpt><trkpt lat="29.7866786085" lon="35.3330644872"><ele>810.05</ele><time>2015-11-26T13:32:58Z</time></trkpt><trkpt lat="29.7866438236" lon="35.3330700193"><ele>810.05</ele><time>2015-11-26T13:32:59Z</time></trkpt><trkpt lat="29.7866098769" lon="35.3330631461"><ele>810.05</ele><time>2015-11-26T13:33:00Z</time></trkpt><trkpt lat="29.7865791153" lon="35.3330496512"><ele>810.05</ele><time>2015-11-26T13:33:01Z</time></trkpt><trkpt lat="29.7865476832" lon="35.3330329712"><ele>810.05</ele><time>2015-11-26T13:33:02Z</time></trkpt><trkpt lat="29.7863245569" lon="35.3328976035"><ele>810.05</ele><time>2015-11-26T13:33:08Z</time></trkpt><trkpt lat="29.7862814739" lon="35.3328719549"><ele>810.05</ele><time>2015-11-26T13:33:09Z</time></trkpt><trkpt lat="29.7853996977" lon="35.3323064279"><ele>809.09</ele><time>2015-11-26T13:33:29Z</time></trkpt><trkpt lat="29.7852122784" lon="35.3322247881"><ele>808.61</ele><time>2015-11-26T13:33:33Z</time></trkpt><trkpt lat="29.7851634957" lon="35.3322282247"><ele>808.61</ele><time>2015-11-26T13:33:34Z</time></trkpt><trkpt lat="29.7851186525" lon="35.3322480898"><ele>808.61</ele><time>2015-11-26T13:33:35Z</time></trkpt><trkpt lat="29.7850834485" lon="35.3322807793"><ele>808.61</ele><time>2015-11-26T13:33:36Z</time></trkpt><trkpt lat="29.7850598954" lon="35.3323205933"><ele>808.61</ele><time>2015-11-26T13:33:37Z</time></trkpt><trkpt lat="29.7850475740" lon="35.3323648497"><ele>808.61</ele><time>2015-11-26T13:33:38Z</time></trkpt><trkpt lat="29.7850442212" lon="35.3324128781"><ele>809.09</ele><time>2015-11-26T13:33:39Z</time></trkpt><trkpt lat="29.7850413714" lon="35.3324633371"><ele>808.61</ele><time>2015-11-26T13:33:40Z</time></trkpt><trkpt lat="29.7850398626" lon="35.3325159755"><ele>808.61</ele><time>2015-11-26T13:33:41Z</time></trkpt><trkpt lat="29.7850424610" lon="35.3325697035"><ele>808.61</ele><time>2015-11-26T13:33:42Z</time></trkpt><trkpt lat="29.7850427963" lon="35.3326240182"><ele>809.09</ele><time>2015-11-26T13:33:43Z</time></trkpt><trkpt lat="29.7850386892" lon="35.3326790873"><ele>808.61</ele><time>2015-11-26T13:33:44Z</time></trkpt><trkpt lat="29.7850259487" lon="35.3330659121"><ele>809.09</ele><time>2015-11-26T13:33:51Z</time></trkpt><trkpt lat="29.7850260325" lon="35.3331197239"><ele>809.09</ele><time>2015-11-26T13:33:52Z</time></trkpt><trkpt lat="29.7849852126" lon="35.3341288213"><ele>809.09</ele><time>2015-11-26T13:34:09Z</time></trkpt><trkpt lat="29.7849511821" lon="35.3350027185"><ele>809.09</ele><time>2015-11-26T13:34:23Z</time></trkpt><trkpt lat="29.7849452309" lon="35.3350545187"><ele>809.09</ele><time>2015-11-26T13:34:24Z</time></trkpt><trkpt lat="29.7849353403" lon="35.3351027984"><ele>808.61</ele><time>2015-11-26T13:34:25Z</time></trkpt><trkpt lat="29.7849215940" lon="35.3351432830"><ele>809.09</ele><time>2015-11-26T13:34:26Z</time></trkpt><trkpt lat="29.7849013936" lon="35.3351719491"><ele>808.61</ele><time>2015-11-26T13:34:27Z</time></trkpt><trkpt lat="29.7848756611" lon="35.3351928201"><ele>808.61</ele><time>2015-11-26T13:34:28Z</time></trkpt><trkpt lat="29.7847955301" lon="35.3352118470"><ele>808.13</ele><time>2015-11-26T13:34:32Z</time></trkpt><trkpt lat="29.7843590006" lon="35.3348266147"><ele>807.64</ele><time>2015-11-26T13:34:45Z</time></trkpt><trkpt lat="29.7838832438" lon="35.3344310727"><ele>807.64</ele><time>2015-11-26T13:34:58Z</time></trkpt><trkpt lat="29.7830826882" lon="35.3337516356"><ele>806.20</ele><time>2015-11-26T13:35:14Z</time></trkpt><trkpt lat="29.7821474355" lon="35.3329836857"><ele>805.72</ele><time>2015-11-26T13:35:33Z</time></trkpt><trkpt lat="29.7812417708" lon="35.3322518617"><ele>805.24</ele><time>2015-11-26T13:35:52Z</time></trkpt><trkpt lat="29.7804293968" lon="35.3315961454"><ele>804.76</ele><time>2015-11-26T13:36:09Z</time></trkpt><trkpt lat="29.7798436694" lon="35.3311100788"><ele>804.28</ele><time>2015-11-26T13:36:21Z</time></trkpt><trkpt lat="29.7796684876" lon="35.3309362382"><ele>804.28</ele><time>2015-11-26T13:36:25Z</time></trkpt><trkpt lat="29.7790302895" lon="35.3304171469"><ele>803.80</ele><time>2015-11-26T13:36:39Z</time></trkpt><trkpt lat="29.7783147264" lon="35.3298504464"><ele>803.32</ele><time>2015-11-26T13:36:54Z</time></trkpt><trkpt lat="29.7781419754" lon="35.3296895139"><ele>802.84</ele><time>2015-11-26T13:36:58Z</time></trkpt><trkpt lat="29.7773223091" lon="35.3290679958"><ele>801.88</ele><time>2015-11-26T13:37:15Z</time></trkpt><trkpt lat="29.7767135315" lon="35.3286049794"><ele>801.88</ele><time>2015-11-26T13:37:28Z</time></trkpt><trkpt lat="29.7763603181" lon="35.3283505049"><ele>801.88</ele><time>2015-11-26T13:37:36Z</time></trkpt><trkpt lat="29.7761809453" lon="35.3282074258"><ele>801.40</ele><time>2015-11-26T13:37:40Z</time></trkpt><trkpt lat="29.7758242115" lon="35.3279202618"><ele>800.44</ele><time>2015-11-26T13:37:48Z</time></trkpt><trkpt lat="29.7756160051" lon="35.3277851455"><ele>800.44</ele><time>2015-11-26T13:37:53Z</time></trkpt><trkpt lat="29.7755743470" lon="35.3277844749"><ele>800.44</ele><time>2015-11-26T13:37:54Z</time></trkpt><trkpt lat="29.7755358741" lon="35.3277988918"><ele>800.44</ele><time>2015-11-26T13:37:55Z</time></trkpt><trkpt lat="29.7755029332" lon="35.3278231993"><ele>800.44</ele><time>2015-11-26T13:37:56Z</time></trkpt><trkpt lat="29.7754769493" lon="35.3278526198"><ele>800.92</ele><time>2015-11-26T13:37:57Z</time></trkpt><trkpt lat="29.7754533961" lon="35.3278834652"><ele>800.44</ele><time>2015-11-26T13:37:58Z</time></trkpt><trkpt lat="29.7749513201" lon="35.3283960186"><ele>800.44</ele><time>2015-11-26T13:38:12Z</time></trkpt><trkpt lat="29.7742677759" lon="35.3290938959"><ele>800.92</ele><time>2015-11-26T13:38:29Z</time></trkpt><trkpt lat="29.7738193441" lon="35.3296465147"><ele>800.92</ele><time>2015-11-26T13:38:44Z</time></trkpt><trkpt lat="29.7738355212" lon="35.3296852391"><ele>800.92</ele><time>2015-11-26T13:38:45Z</time></trkpt><trkpt lat="29.7738601640" lon="35.3297195211"><ele>800.44</ele><time>2015-11-26T13:38:46Z</time></trkpt><trkpt lat="29.7744268645" lon="35.3301912546"><ele>799.95</ele><time>2015-11-26T13:39:00Z</time></trkpt><trkpt lat="29.7745100129" lon="35.3302645963"><ele>799.95</ele><time>2015-11-26T13:39:02Z</time></trkpt><trkpt lat="29.7745465580" lon="35.3303083498"><ele>799.95</ele><time>2015-11-26T13:39:03Z</time></trkpt><trkpt lat="29.7745774034" lon="35.3303557914"><ele>800.44</ele><time>2015-11-26T13:39:04Z</time></trkpt><trkpt lat="29.7746035550" lon="35.3304070886"><ele>799.95</ele><time>2015-11-26T13:39:05Z</time></trkpt><trkpt lat="29.7746255156" lon="35.3304625768"><ele>799.95</ele><time>2015-11-26T13:39:06Z</time></trkpt><trkpt lat="29.7746451292" lon="35.3305197414"><ele>799.95</ele><time>2015-11-26T13:39:07Z</time></trkpt><trkpt lat="29.7747778147" lon="35.3309499007"><ele>800.44</ele><time>2015-11-26T13:39:15Z</time></trkpt><trkpt lat="29.7749637254" lon="35.3315771185"><ele>800.92</ele><time>2015-11-26T13:39:27Z</time></trkpt><trkpt lat="29.7749783937" lon="35.3316323552"><ele>800.92</ele><time>2015-11-26T13:39:28Z</time></trkpt><trkpt lat="29.7752960678" lon="35.3326425422"><ele>800.92</ele><time>2015-11-26T13:39:46Z</time></trkpt><trkpt lat="29.7756772768" lon="35.3338883445"><ele>801.88</ele><time>2015-11-26T13:40:07Z</time></trkpt><trkpt lat="29.7757460084" lon="35.3340539709"><ele>801.88</ele><time>2015-11-26T13:40:10Z</time></trkpt><trkpt lat="29.7757797036" lon="35.3340984788"><ele>801.88</ele><time>2015-11-26T13:40:11Z</time></trkpt><trkpt lat="29.7758227028" lon="35.3341312520"><ele>801.88</ele><time>2015-11-26T13:40:12Z</time></trkpt><trkpt lat="29.7758714017" lon="35.3341513686"><ele>801.88</ele><time>2015-11-26T13:40:13Z</time></trkpt><trkpt lat="29.7759237047" lon="35.3341610078"><ele>801.88</ele><time>2015-11-26T13:40:14Z</time></trkpt><trkpt lat="29.7759765945" lon="35.3341635223"><ele>801.88</ele><time>2015-11-26T13:40:15Z</time></trkpt><trkpt lat="29.7760291491" lon="35.3341620136"><ele>801.88</ele><time>2015-11-26T13:40:16Z</time></trkpt><trkpt lat="29.7763497569" lon="35.3341621812"><ele>801.88</ele><time>2015-11-26T13:40:22Z</time></trkpt><trkpt lat="29.7764020599" lon="35.3341781069"><ele>801.88</ele><time>2015-11-26T13:40:23Z</time></trkpt><trkpt lat="29.7764491662" lon="35.3342066053"><ele>801.88</ele><time>2015-11-26T13:40:24Z</time></trkpt><trkpt lat="29.7764878068" lon="35.3342515323"><ele>801.88</ele><time>2015-11-26T13:40:25Z</time></trkpt><trkpt lat="29.7765149642" lon="35.3343060147"><ele>801.88</ele><time>2015-11-26T13:40:26Z</time></trkpt><trkpt lat="29.7765312251" lon="35.3343659453"><ele>801.88</ele><time>2015-11-26T13:40:27Z</time></trkpt><trkpt lat="29.7765393555" lon="35.3344273008"><ele>801.88</ele><time>2015-11-26T13:40:28Z</time></trkpt><trkpt lat="29.7765457258" lon="35.3344887402"><ele>801.88</ele><time>2015-11-26T13:40:29Z</time></trkpt><trkpt lat="29.7765350807" lon="35.3354861028"><ele>802.36</ele><time>2015-11-26T13:40:45Z</time></trkpt><trkpt lat="29.7764920816" lon="35.3366953600"><ele>801.88</ele><time>2015-11-26T13:41:04Z</time></trkpt><trkpt lat="29.7764803469" lon="35.3379504662"><ele>802.36</ele><time>2015-11-26T13:41:23Z</time></trkpt><trkpt lat="29.7764567938" lon="35.3392588813"><ele>803.32</ele><time>2015-11-26T13:41:42Z</time></trkpt><trkpt lat="29.7764463164" lon="35.3404318448"><ele>803.80</ele><time>2015-11-26T13:41:59Z</time></trkpt><trkpt lat="29.7764203325" lon="35.3417494800"><ele>803.80</ele><time>2015-11-26T13:42:19Z</time></trkpt><trkpt lat="29.7763968632" lon="35.3430282231"><ele>803.80</ele><time>2015-11-26T13:42:39Z</time></trkpt><trkpt lat="29.7763788421" lon="35.3436647449"><ele>804.28</ele><time>2015-11-26T13:42:49Z</time></trkpt><trkpt lat="29.7763686161" lon="35.3437217418"><ele>804.28</ele><time>2015-11-26T13:42:50Z</time></trkpt><trkpt lat="29.7763533611" lon="35.3437755536"><ele>804.28</ele><time>2015-11-26T13:42:51Z</time></trkpt><trkpt lat="29.7763308138" lon="35.3438254260"><ele>804.28</ele><time>2015-11-26T13:42:52Z</time></trkpt><trkpt lat="29.7763012256" lon="35.3438664973"><ele>804.28</ele><time>2015-11-26T13:42:53Z</time></trkpt><trkpt lat="29.7762654349" lon="35.3438993543"><ele>804.28</ele><time>2015-11-26T13:42:54Z</time></trkpt><trkpt lat="29.7762217652" lon="35.3439207282"><ele>804.76</ele><time>2015-11-26T13:42:55Z</time></trkpt><trkpt lat="29.7761722282" lon="35.3439291101"><ele>804.76</ele><time>2015-11-26T13:42:56Z</time></trkpt><trkpt lat="29.7761206795" lon="35.3439295292"><ele>804.28</ele><time>2015-11-26T13:42:57Z</time></trkpt><trkpt lat="29.7760662809" lon="35.3439271823"><ele>804.28</ele><time>2015-11-26T13:42:58Z</time></trkpt><trkpt lat="29.7750148550" lon="35.3439386655"><ele>803.80</ele><time>2015-11-26T13:43:16Z</time></trkpt><trkpt lat="29.7740213480" lon="35.3439783957"><ele>802.84</ele><time>2015-11-26T13:43:31Z</time></trkpt><trkpt lat="29.7726058122" lon="35.3440301958"><ele>801.88</ele><time>2015-11-26T13:43:51Z</time></trkpt><trkpt lat="29.7719915863" lon="35.3440576885"><ele>800.92</ele><time>2015-11-26T13:43:59Z</time></trkpt><trkpt lat="29.7719179094" lon="35.3440492228"><ele>800.92</ele><time>2015-11-26T13:44:00Z</time></trkpt><trkpt lat="29.7718459088" lon="35.3440339677"><ele>800.44</ele><time>2015-11-26T13:44:01Z</time></trkpt><trkpt lat="29.7708887793" lon="35.3436730430"><ele>799.95</ele><time>2015-11-26T13:44:16Z</time></trkpt><trkpt lat="29.7699611541" lon="35.3433059994"><ele>798.99</ele><time>2015-11-26T13:44:31Z</time></trkpt><trkpt lat="29.7689406574" lon="35.3428847250"><ele>798.99</ele><time>2015-11-26T13:44:48Z</time></trkpt><trkpt lat="29.7678045742" lon="35.3424210381"><ele>797.55</ele><time>2015-11-26T13:45:06Z</time></trkpt><trkpt lat="29.7665860131" lon="35.3419422638"><ele>796.11</ele><time>2015-11-26T13:45:26Z</time></trkpt><trkpt lat="29.7656203341" lon="35.3415405191"><ele>795.63</ele><time>2015-11-26T13:45:43Z</time></trkpt><trkpt lat="29.7654513549" lon="35.3414767329"><ele>795.63</ele><time>2015-11-26T13:45:46Z</time></trkpt><trkpt lat="29.7645980772" lon="35.3411236033"><ele>795.63</ele><time>2015-11-26T13:46:01Z</time></trkpt><trkpt lat="29.7639992740" lon="35.3409043327"><ele>796.59</ele><time>2015-11-26T13:46:15Z</time></trkpt><trkpt lat="29.7639611363" lon="35.3408845514"><ele>796.11</ele><time>2015-11-26T13:46:16Z</time></trkpt><trkpt lat="29.7638162132" lon="35.3408043366"><ele>796.11</ele><time>2015-11-26T13:46:20Z</time></trkpt><trkpt lat="29.7636242677" lon="35.3407291509"><ele>795.63</ele><time>2015-11-26T13:46:25Z</time></trkpt><trkpt lat="29.7628636099" lon="35.3404279053"><ele>794.67</ele><time>2015-11-26T13:46:42Z</time></trkpt><trkpt lat="29.7627279069" lon="35.3403683100"><ele>794.19</ele><time>2015-11-26T13:46:45Z</time></trkpt><trkpt lat="29.7622623760" lon="35.3402114008"><ele>793.71</ele><time>2015-11-26T13:46:58Z</time></trkpt><trkpt lat="29.7618578654" lon="35.3400430083"><ele>793.71</ele><time>2015-11-26T13:47:10Z</time></trkpt><trkpt lat="29.7614626586" lon="35.3399125021"><ele>793.22</ele><time>2015-11-26T13:47:19Z</time></trkpt><trkpt lat="29.7614224255" lon="35.3399126697"><ele>793.22</ele><time>2015-11-26T13:47:20Z</time></trkpt><trkpt lat="29.7608698905" lon="35.3399083950"><ele>792.74</ele><time>2015-11-26T13:47:32Z</time></trkpt><trkpt lat="29.7608161625" lon="35.3399145138"><ele>792.74</ele><time>2015-11-26T13:47:33Z</time></trkpt><trkpt lat="29.7600536607" lon="35.3398963250"><ele>791.78</ele><time>2015-11-26T13:47:46Z</time></trkpt><trkpt lat="29.7599914670" lon="35.3398862667"><ele>791.78</ele><time>2015-11-26T13:47:47Z</time></trkpt><trkpt lat="29.7599285189" lon="35.3398779687"><ele>791.30</ele><time>2015-11-26T13:47:48Z</time></trkpt><trkpt lat="29.7588573955" lon="35.3398648929"><ele>790.34</ele><time>2015-11-26T13:48:05Z</time></trkpt><trkpt lat="29.7578715999" lon="35.3398510627"><ele>789.86</ele><time>2015-11-26T13:48:21Z</time></trkpt><trkpt lat="29.7569611575" lon="35.3398458660"><ele>789.38</ele><time>2015-11-26T13:48:36Z</time></trkpt><trkpt lat="29.7567831259" lon="35.3398293536"><ele>788.90</ele><time>2015-11-26T13:48:39Z</time></trkpt><trkpt lat="29.7566633485" lon="35.3398136795"><ele>788.90</ele><time>2015-11-26T13:48:41Z</time></trkpt><trkpt lat="29.7564303316" lon="35.3398031183"><ele>789.38</ele><time>2015-11-26T13:48:45Z</time></trkpt><trkpt lat="29.7562794574" lon="35.3397993464"><ele>788.90</ele><time>2015-11-26T13:48:48Z</time></trkpt><trkpt lat="29.7556612920" lon="35.3397915512"><ele>788.90</ele><time>2015-11-26T13:49:00Z</time></trkpt><trkpt lat="29.7556085698" lon="35.3397953231"><ele>789.38</ele><time>2015-11-26T13:49:01Z</time></trkpt><trkpt lat="29.7545329202" lon="35.3397692554"><ele>789.38</ele><time>2015-11-26T13:49:21Z</time></trkpt><trkpt lat="29.7535622120" lon="35.3397378232"><ele>788.90</ele><time>2015-11-26T13:49:39Z</time></trkpt><trkpt lat="29.7523430642" lon="35.3397125937"><ele>788.42</ele><time>2015-11-26T13:50:01Z</time></trkpt><trkpt lat="29.7514660656" lon="35.3396894597"><ele>787.46</ele><time>2015-11-26T13:50:17Z</time></trkpt><trkpt lat="29.7514328733" lon="35.3396997694"><ele>787.94</ele><time>2015-11-26T13:50:24Z</time></trkpt><trkpt lat="29.7514364775" lon="35.3396950755"><ele>787.46</ele><time>2015-11-26T13:50:47Z</time></trkpt><trkpt lat="29.7514489666" lon="35.3397024516"><ele>787.46</ele><time>2015-11-26T13:51:05Z</time></trkpt><trkpt lat="29.7514472902" lon="35.3397172876"><ele>786.98</ele><time>2015-11-26T13:51:20Z</time></trkpt><trkpt lat="29.7514368128" lon="35.3397254180"><ele>786.50</ele><time>2015-11-26T13:52:13Z</time></trkpt><trkpt lat="29.7514311131" lon="35.3397202212"><ele>786.02</ele><time>2015-11-26T13:52:51Z</time></trkpt><trkpt lat="29.7514354717" lon="35.3397203051"><ele>786.02</ele><time>2015-11-26T13:53:47Z</time></trkpt><trkpt lat="29.7514351364" lon="35.3397209756"><ele>785.53</ele><time>2015-11-26T13:54:36Z</time></trkpt><trkpt lat="29.7514384054" lon="35.3397245798"><ele>785.05</ele><time>2015-11-26T13:55:23Z</time></trkpt><trkpt lat="29.7514340468" lon="35.3397291061"><ele>785.05</ele><time>2015-11-26T13:56:12Z</time></trkpt><trkpt lat="29.7514405008" lon="35.3397181258"><ele>785.05</ele><time>2015-11-26T13:57:10Z</time></trkpt><trkpt lat="29.7514409199" lon="35.3397167847"><ele>784.57</ele><time>2015-11-26T13:58:17Z</time></trkpt><trkpt lat="29.7514446918" lon="35.3397161979"><ele>784.57</ele><time>2015-11-26T13:59:22Z</time></trkpt><trkpt lat="29.7514437698" lon="35.3397204727"><ele>784.57</ele><time>2015-11-26T14:00:16Z</time></trkpt><trkpt lat="29.7514443565" lon="35.3397218976"><ele>784.09</ele><time>2015-11-26T14:01:09Z</time></trkpt><trkpt lat="29.7514412552" lon="35.3397220653"><ele>784.09</ele><time>2015-11-26T14:02:08Z</time></trkpt><trkpt lat="29.7514412552" lon="35.3397175390"><ele>784.57</ele><time>2015-11-26T14:03:04Z</time></trkpt><trkpt lat="29.7514373995" lon="35.3397100791"><ele>784.09</ele><time>2015-11-26T14:03:58Z</time></trkpt><trkpt lat="29.7514414228" lon="35.3396995179"><ele>784.57</ele><time>2015-11-26T14:04:19Z</time></trkpt><trkpt lat="29.7514083143" lon="35.3397037089"><ele>784.57</ele><time>2015-11-26T14:04:37Z</time></trkpt><trkpt lat="29.7511077393" lon="35.3396876156"><ele>784.57</ele><time>2015-11-26T14:04:49Z</time></trkpt><trkpt lat="29.7505558748" lon="35.3396646492"><ele>783.61</ele><time>2015-11-26T14:05:03Z</time></trkpt><trkpt lat="29.7503328323" lon="35.3396587819"><ele>784.09</ele><time>2015-11-26T14:05:08Z</time></trkpt><trkpt lat="29.7494956478" lon="35.3396508191"><ele>782.65</ele><time>2015-11-26T14:05:26Z</time></trkpt><trkpt lat="29.7488854453" lon="35.3396443650"><ele>781.21</ele><time>2015-11-26T14:05:42Z</time></trkpt><trkpt lat="29.7487851139" lon="35.3396751266"><ele>781.21</ele><time>2015-11-26T14:05:45Z</time></trkpt><trkpt lat="29.7485505044" lon="35.3399065509"><ele>780.25</ele><time>2015-11-26T14:05:52Z</time></trkpt><trkpt lat="29.7484744806" lon="35.3400759492"><ele>780.25</ele><time>2015-11-26T14:05:57Z</time></trkpt><trkpt lat="29.7484549507" lon="35.3402696550"><ele>779.77</ele><time>2015-11-26T14:06:13Z</time></trkpt><trkpt lat="29.7484066710" lon="35.3405497782"><ele>779.77</ele><time>2015-11-26T14:06:23Z</time></trkpt><trkpt lat="29.7483719699" lon="35.3406123910"><ele>779.77</ele><time>2015-11-26T14:06:28Z</time></trkpt><trkpt lat="29.7481908370" lon="35.3410183266"><ele>779.29</ele><time>2015-11-26T14:06:42Z</time></trkpt><trkpt lat="29.7479800321" lon="35.3414820135"><ele>778.81</ele><time>2015-11-26T14:06:56Z</time></trkpt><trkpt lat="29.7477911040" lon="35.3418901283"><ele>778.81</ele><time>2015-11-26T14:07:10Z</time></trkpt><trkpt lat="29.7475161776" lon="35.3423652984"><ele>778.81</ele><time>2015-11-26T14:07:25Z</time></trkpt><trkpt lat="29.7472897824" lon="35.3428498562"><ele>778.32</ele><time>2015-11-26T14:07:39Z</time></trkpt><trkpt lat="29.7469472978" lon="35.3435405251"><ele>778.32</ele><time>2015-11-26T14:07:56Z</time></trkpt><trkpt lat="29.7465078346" lon="35.3444399033"><ele>777.84</ele><time>2015-11-26T14:08:16Z</time></trkpt><trkpt lat="29.7463940084" lon="35.3446669690"><ele>777.84</ele><time>2015-11-26T14:08:21Z</time></trkpt><trkpt lat="29.7459224425" lon="35.3456256073"><ele>777.36</ele><time>2015-11-26T14:08:42Z</time></trkpt><trkpt lat="29.7455531359" lon="35.3463982511"><ele>777.36</ele><time>2015-11-26T14:08:59Z</time></trkpt><trkpt lat="29.7452000901" lon="35.3472479247"><ele>777.84</ele><time>2015-11-26T14:09:18Z</time></trkpt><trkpt lat="29.7450208012" lon="35.3476351686"><ele>777.84</ele><time>2015-11-26T14:09:31Z</time></trkpt><trkpt lat="29.7448058892" lon="35.3481281083"><ele>777.84</ele><time>2015-11-26T14:09:43Z</time></trkpt><trkpt lat="29.7445605509" lon="35.3485736903"><ele>777.84</ele><time>2015-11-26T14:09:54Z</time></trkpt><trkpt lat="29.7444195673" lon="35.3487949725"><ele>778.32</ele><time>2015-11-26T14:10:00Z</time></trkpt><trkpt lat="29.7440874763" lon="35.3495340887"><ele>778.32</ele><time>2015-11-26T14:10:19Z</time></trkpt><trkpt lat="29.7440702934" lon="35.3495942708"><ele>778.32</ele><time>2015-11-26T14:10:29Z</time></trkpt><trkpt lat="29.7440733109" lon="35.3495796025"><ele>778.32</ele><time>2015-11-26T14:10:34Z</time></trkpt><trkpt lat="29.7440402023" lon="35.3494562209"><ele>778.32</ele><time>2015-11-26T14:10:40Z</time></trkpt><trkpt lat="29.7437879071" lon="35.3491394687"><ele>777.36</ele><time>2015-11-26T14:10:50Z</time></trkpt><trkpt lat="29.7437197622" lon="35.3489636164"><ele>776.88</ele><time>2015-11-26T14:10:54Z</time></trkpt><trkpt lat="29.7436848097" lon="35.3488216270"><ele>777.36</ele><time>2015-11-26T14:10:57Z</time></trkpt><trkpt lat="29.7433711588" lon="35.3481631447"><ele>776.40</ele><time>2015-11-26T14:11:12Z</time></trkpt><trkpt lat="29.7432553209" lon="35.3479181416"><ele>776.40</ele><time>2015-11-26T14:11:18Z</time></trkpt><trkpt lat="29.7431771178" lon="35.3478076681"><ele>776.40</ele><time>2015-11-26T14:11:21Z</time></trkpt><trkpt lat="29.7427488025" lon="35.3472785186"><ele>776.40</ele><time>2015-11-26T14:11:37Z</time></trkpt><trkpt lat="29.7425928991" lon="35.3469926957"><ele>776.40</ele><time>2015-11-26T14:11:49Z</time></trkpt><trkpt lat="29.7425013687" lon="35.3469500318"><ele>775.92</ele><time>2015-11-26T14:11:55Z</time></trkpt><trkpt lat="29.7424250934" lon="35.3469072003"><ele>775.92</ele><time>2015-11-26T14:12:08Z</time></trkpt><trkpt lat="29.7384030372" lon="35.3497648425"><ele>791.78</ele><time>2015-11-26T14:17:40Z</time></trkpt><trkpt lat="29.7383944876" lon="35.3497730568"><ele>785.05</ele><time>2015-11-26T14:17:41Z</time></trkpt><trkpt lat="29.7383552603" lon="35.3497661836"><ele>785.05</ele><time>2015-11-26T14:17:42Z</time></trkpt><trkpt lat="29.7380606364" lon="35.3498294670"><ele>786.02</ele><time>2015-11-26T14:17:55Z</time></trkpt><trkpt lat="29.7376505937" lon="35.3500043973"><ele>786.50</ele><time>2015-11-26T14:18:09Z</time></trkpt><trkpt lat="29.7373020742" lon="35.3501257673"><ele>785.53</ele><time>2015-11-26T14:18:20Z</time></trkpt><trkpt lat="29.7369021736" lon="35.3502739593"><ele>786.02</ele><time>2015-11-26T14:18:35Z</time></trkpt><trkpt lat="29.7366814781" lon="35.3504594509"><ele>786.02</ele><time>2015-11-26T14:18:46Z</time></trkpt><trkpt lat="29.7366202064" lon="35.3505021147"><ele>786.02</ele><time>2015-11-26T14:18:50Z</time></trkpt><trkpt lat="29.7365634609" lon="35.3505426832"><ele>786.02</ele><time>2015-11-26T14:19:00Z</time></trkpt><trkpt lat="29.7365275025" lon="35.3505576029"><ele>786.50</ele><time>2015-11-26T14:19:05Z</time></trkpt><trkpt lat="29.7363623790" lon="35.3506370634"><ele>786.50</ele><time>2015-11-26T14:19:23Z</time></trkpt><trkpt lat="29.7361615486" lon="35.3505804017"><ele>786.50</ele><time>2015-11-26T14:19:42Z</time></trkpt><trkpt lat="29.7359545156" lon="35.3505184595"><ele>786.50</ele><time>2015-11-26T14:20:00Z</time></trkpt><trkpt lat="29.7357410286" lon="35.3504997678"><ele>786.50</ele><time>2015-11-26T14:20:19Z</time></trkpt><trkpt lat="29.7355711274" lon="35.3504580259"><ele>787.46</ele><time>2015-11-26T14:20:36Z</time></trkpt><trkpt lat="29.7354887333" lon="35.3502444550"><ele>786.02</ele><time>2015-11-26T14:20:49Z</time></trkpt><trkpt lat="29.7354778368" lon="35.3501254320"><ele>785.53</ele><time>2015-11-26T14:20:52Z</time></trkpt><trkpt lat="29.7354237735" lon="35.3498604801"><ele>786.02</ele><time>2015-11-26T14:20:58Z</time></trkpt><trkpt lat="29.7353974544" lon="35.3498475719"><ele>786.50</ele><time>2015-11-26T14:21:01Z</time></trkpt><trkpt lat="29.7353599872" lon="35.3499125317"><ele>786.02</ele><time>2015-11-26T14:21:07Z</time></trkpt><trkpt lat="29.7353414632" lon="35.3499272838"><ele>786.02</ele><time>2015-11-26T14:21:09Z</time></trkpt><trkpt lat="29.7353115398" lon="35.3499929979"><ele>785.53</ele><time>2015-11-26T14:21:14Z</time></trkpt><trkpt lat="29.7350538801" lon="35.3501513321"><ele>784.57</ele><time>2015-11-26T14:21:28Z</time></trkpt><trkpt lat="29.7345366329" lon="35.3501272760"><ele>784.09</ele><time>2015-11-26T14:21:42Z</time></trkpt><trkpt lat="29.7340691742" lon="35.3500760626"><ele>784.09</ele><time>2015-11-26T14:21:55Z</time></trkpt><trkpt lat="29.7335670143" lon="35.3500224184"><ele>783.13</ele><time>2015-11-26T14:22:09Z</time></trkpt><trkpt lat="29.7332612425" lon="35.3502106760"><ele>783.13</ele><time>2015-11-26T14:22:19Z</time></trkpt><trkpt lat="29.7329709772" lon="35.3508979920"><ele>784.57</ele><time>2015-11-26T14:22:36Z</time></trkpt><trkpt lat="29.7327913530" lon="35.3513335995"><ele>785.05</ele><time>2015-11-26T14:22:51Z</time></trkpt><trkpt lat="29.7327500302" lon="35.3514504433"><ele>784.09</ele><time>2015-11-26T14:23:02Z</time></trkpt><trkpt lat="29.7327565681" lon="35.3514620941"><ele>784.09</ele><time>2015-11-26T14:23:23Z</time></trkpt><trkpt lat="29.7327435762" lon="35.3514797799"><ele>784.09</ele><time>2015-11-26T14:23:32Z</time></trkpt><trkpt lat="29.7325341962" lon="35.3516704682"><ele>782.17</ele><time>2015-11-26T14:23:46Z</time></trkpt><trkpt lat="29.7321814857" lon="35.3518886492"><ele>782.17</ele><time>2015-11-26T14:24:00Z</time></trkpt><trkpt lat="29.7317862790" lon="35.3521325625"><ele>782.65</ele><time>2015-11-26T14:24:13Z</time></trkpt><trkpt lat="29.7313595563" lon="35.3524804953"><ele>782.65</ele><time>2015-11-26T14:24:29Z</time></trkpt><trkpt lat="29.7310001403" lon="35.3528648056"><ele>783.61</ele><time>2015-11-26T14:24:43Z</time></trkpt><trkpt lat="29.7306459211" lon="35.3531486169"><ele>783.13</ele><time>2015-11-26T14:24:59Z</time></trkpt><trkpt lat="29.7303820588" lon="35.3533265647"><ele>783.13</ele><time>2015-11-26T14:25:12Z</time></trkpt><trkpt lat="29.7300246544" lon="35.3535538819"><ele>782.65</ele><time>2015-11-26T14:25:28Z</time></trkpt><trkpt lat="29.7296782304" lon="35.3536078613"><ele>782.17</ele><time>2015-11-26T14:25:41Z</time></trkpt><trkpt lat="29.7294580378" lon="35.3536392096"><ele>781.69</ele><time>2015-11-26T14:25:50Z</time></trkpt><trkpt lat="29.7294390947" lon="35.3536563925"><ele>782.17</ele><time>2015-11-26T14:25:52Z</time></trkpt><trkpt lat="29.7293854505" lon="35.3536617570"><ele>782.17</ele><time>2015-11-26T14:26:02Z</time></trkpt><trkpt lat="29.7292777430" lon="35.3537232801"><ele>781.69</ele><time>2015-11-26T14:26:17Z</time></trkpt><trkpt lat="29.7292106878" lon="35.3537293151"><ele>781.21</ele><time>2015-11-26T14:26:25Z</time></trkpt><trkpt lat="29.7291207500" lon="35.3537165746"><ele>780.73</ele><time>2015-11-26T14:26:35Z</time></trkpt><trkpt lat="29.7289892379" lon="35.3537136409"><ele>780.73</ele><time>2015-11-26T14:26:48Z</time></trkpt><trkpt lat="29.7288550436" lon="35.3537549637"><ele>780.73</ele><time>2015-11-26T14:27:03Z</time></trkpt><trkpt lat="29.7288269643" lon="35.3537660278"><ele>780.73</ele><time>2015-11-26T14:27:17Z</time></trkpt><trkpt lat="29.7288249526" lon="35.3537708893"><ele>780.73</ele><time>2015-11-26T14:27:18Z</time></trkpt><trkpt lat="29.7288165707" lon="35.3538723942"><ele>780.73</ele><time>2015-11-26T14:27:23Z</time></trkpt><trkpt lat="29.7287912574" lon="35.3544540145"><ele>780.73</ele><time>2015-11-26T14:27:39Z</time></trkpt><trkpt lat="29.7288029082" lon="35.3548106644"><ele>780.25</ele><time>2015-11-26T14:27:49Z</time></trkpt><trkpt lat="29.7286698874" lon="35.3548789769"><ele>780.25</ele><time>2015-11-26T14:27:55Z</time></trkpt><trkpt lat="29.7282013390" lon="35.3548088204"><ele>779.29</ele><time>2015-11-26T14:28:10Z</time></trkpt><trkpt lat="29.7280839086" lon="35.3546733689"><ele>779.29</ele><time>2015-11-26T14:28:20Z</time></trkpt><trkpt lat="29.7280870099" lon="35.3546701837"><ele>779.29</ele><time>2015-11-26T14:28:21Z</time></trkpt><trkpt lat="29.7280304320" lon="35.3546471335"><ele>779.29</ele><time>2015-11-26T14:28:27Z</time></trkpt><trkpt lat="29.7280052025" lon="35.3546250053"><ele>778.81</ele><time>2015-11-26T14:28:30Z</time></trkpt><trkpt lat="29.7279726807" lon="35.3545304574"><ele>778.81</ele><time>2015-11-26T14:28:40Z</time></trkpt><trkpt lat="29.7279726807" lon="35.3544396814"><ele>779.29</ele><time>2015-11-26T14:28:50Z</time></trkpt><trkpt lat="29.7278628778" lon="35.3541359212"><ele>779.29</ele><time>2015-11-26T14:29:05Z</time></trkpt><trkpt lat="29.7276982572" lon="35.3537386190"><ele>778.81</ele><time>2015-11-26T14:29:18Z</time></trkpt><trkpt lat="29.7275695112" lon="35.3533173446"><ele>778.81</ele><time>2015-11-26T14:29:32Z</time></trkpt><trkpt lat="29.7275642306" lon="35.3532770276"><ele>779.29</ele><time>2015-11-26T14:29:34Z</time></trkpt><trkpt lat="29.7275409289" lon="35.3532389738"><ele>779.29</ele><time>2015-11-26T14:29:49Z</time></trkpt><trkpt lat="29.7274163738" lon="35.3532152530"><ele>778.32</ele><time>2015-11-26T14:30:08Z</time></trkpt><trkpt lat="29.7273950838" lon="35.3532238025"><ele>777.84</ele><time>2015-11-26T14:30:24Z</time></trkpt><trkpt lat="29.7273565270" lon="35.3532324359"><ele>778.32</ele><time>2015-11-26T14:30:36Z</time></trkpt><trkpt lat="29.7272902261" lon="35.3532870021"><ele>778.32</ele><time>2015-11-26T14:30:50Z</time></trkpt><trkpt lat="29.7272601351" lon="35.3532925341"><ele>777.84</ele><time>2015-11-26T14:31:09Z</time></trkpt><trkpt lat="29.7271768190" lon="35.3532173485"><ele>777.84</ele><time>2015-11-26T14:31:21Z</time></trkpt><trkpt lat="29.7269931715" lon="35.3529924620"><ele>776.88</ele><time>2015-11-26T14:31:35Z</time></trkpt><trkpt lat="29.7266617510" lon="35.3528088983"><ele>776.40</ele><time>2015-11-26T14:31:48Z</time></trkpt><trkpt lat="29.7264248785" lon="35.3525293618"><ele>776.40</ele><time>2015-11-26T14:32:01Z</time></trkpt><trkpt lat="29.7262554802" lon="35.3523364943"><ele>775.92</ele><time>2015-11-26T14:32:11Z</time></trkpt><trkpt lat="29.7262327652" lon="35.3523156233"><ele>775.44</ele><time>2015-11-26T14:32:27Z</time></trkpt><trkpt lat="29.7262243833" lon="35.3523219936"><ele>774.96</ele><time>2015-11-26T14:32:49Z</time></trkpt><trkpt lat="29.7262274008" lon="35.3523203172"><ele>774.48</ele><time>2015-11-26T14:33:44Z</time></trkpt><trkpt lat="29.7262228746" lon="35.3523128573"><ele>774.96</ele><time>2015-11-26T14:34:13Z</time></trkpt><trkpt lat="29.7261721641" lon="35.3522611409"><ele>774.48</ele><time>2015-11-26T14:34:17Z</time></trkpt><trkpt lat="29.7258394025" lon="35.3519088496"><ele>773.52</ele><time>2015-11-26T14:34:30Z</time></trkpt><trkpt lat="29.7257374786" lon="35.3515120503"><ele>774.00</ele><time>2015-11-26T14:34:41Z</time></trkpt><trkpt lat="29.7256501392" lon="35.3511075396"><ele>773.04</ele><time>2015-11-26T14:34:52Z</time></trkpt><trkpt lat="29.7255612072" lon="35.3505295236"><ele>772.56</ele><time>2015-11-26T14:35:05Z</time></trkpt><trkpt lat="29.7253767215" lon="35.3499531839"><ele>772.56</ele><time>2015-11-26T14:35:17Z</time></trkpt><trkpt lat="29.7251140326" lon="35.3495713044"><ele>772.56</ele><time>2015-11-26T14:35:26Z</time></trkpt><trkpt lat="29.7247176524" lon="35.3492491040"><ele>772.08</ele><time>2015-11-26T14:35:39Z</time></trkpt><trkpt lat="29.7245383635" lon="35.3493428975"><ele>772.56</ele><time>2015-11-26T14:35:44Z</time></trkpt><trkpt lat="29.7244329192" lon="35.3494703863"><ele>772.56</ele><time>2015-11-26T14:35:48Z</time></trkpt><trkpt lat="29.7243283968" lon="35.3496660199"><ele>772.56</ele><time>2015-11-26T14:35:53Z</time></trkpt><trkpt lat="29.7239207849" lon="35.3500718717"><ele>772.56</ele><time>2015-11-26T14:36:08Z</time></trkpt><trkpt lat="29.7237854172" lon="35.3503688425"><ele>772.56</ele><time>2015-11-26T14:36:19Z</time></trkpt><trkpt lat="29.7236896958" lon="35.3508958966"><ele>772.56</ele><time>2015-11-26T14:36:34Z</time></trkpt><trkpt lat="29.7235784680" lon="35.3514093719"><ele>772.56</ele><time>2015-11-26T14:36:47Z</time></trkpt><trkpt lat="29.7234130930" lon="35.3522568662"><ele>773.04</ele><time>2015-11-26T14:37:05Z</time></trkpt><trkpt lat="29.7233777214" lon="35.3523993585"><ele>773.04</ele><time>2015-11-26T14:37:08Z</time></trkpt><trkpt lat="29.7233146057" lon="35.3527717665"><ele>773.04</ele><time>2015-11-26T14:37:16Z</time></trkpt><trkpt lat="29.7232837602" lon="35.3529556654"><ele>773.04</ele><time>2015-11-26T14:37:20Z</time></trkpt><trkpt lat="29.7231755499" lon="35.3535312507"><ele>773.04</ele><time>2015-11-26T14:37:34Z</time></trkpt><trkpt lat="29.7230558563" lon="35.3540777508"><ele>773.52</ele><time>2015-11-26T14:37:47Z</time></trkpt><trkpt lat="29.7228909843" lon="35.3548483830"><ele>773.52</ele><time>2015-11-26T14:38:04Z</time></trkpt><trkpt lat="29.7227484081" lon="35.3556176741"><ele>773.52</ele><time>2015-11-26T14:38:21Z</time></trkpt><trkpt lat="29.7226267029" lon="35.3562722169"><ele>773.52</ele><time>2015-11-26T14:38:34Z</time></trkpt><trkpt lat="29.7225730587" lon="35.3564080875"><ele>774.00</ele><time>2015-11-26T14:38:37Z</time></trkpt><trkpt lat="29.7222231142" lon="35.3570327070"><ele>776.88</ele><time>2015-11-26T14:38:55Z</time></trkpt><trkpt lat="29.7220238764" lon="35.3570489679"><ele>777.36</ele><time>2015-11-26T14:39:05Z</time></trkpt><trkpt lat="29.7215849161" lon="35.3570462856"><ele>777.36</ele><time>2015-11-26T14:39:19Z</time></trkpt><trkpt lat="29.7211018670" lon="35.3570205532"><ele>776.40</ele><time>2015-11-26T14:39:32Z</time></trkpt><trkpt lat="29.7208081651" lon="35.3569583595"><ele>776.40</ele><time>2015-11-26T14:39:44Z</time></trkpt><trkpt lat="29.7206152976" lon="35.3567533381"><ele>774.48</ele><time>2015-11-26T14:39:56Z</time></trkpt><trkpt lat="29.7205217555" lon="35.3566427808"><ele>773.52</ele><time>2015-11-26T14:39:59Z</time></trkpt><trkpt lat="29.7203475796" lon="35.3564963490"><ele>773.52</ele><time>2015-11-26T14:40:05Z</time></trkpt><trkpt lat="29.7199305799" lon="35.3563060798"><ele>773.52</ele><time>2015-11-26T14:40:19Z</time></trkpt><trkpt lat="29.7194945533" lon="35.3562147170"><ele>773.52</ele><time>2015-11-26T14:40:34Z</time></trkpt><trkpt lat="29.7192596924" lon="35.3562956862"><ele>773.52</ele><time>2015-11-26T14:40:46Z</time></trkpt><trkpt lat="29.7190708481" lon="35.3563881386"><ele>773.52</ele><time>2015-11-26T14:40:59Z</time></trkpt><trkpt lat="29.7189141065" lon="35.3564557806"><ele>774.00</ele><time>2015-11-26T14:41:07Z</time></trkpt><trkpt lat="29.7188715264" lon="35.3564493265"><ele>773.52</ele><time>2015-11-26T14:41:10Z</time></trkpt><trkpt lat="29.7187326383" lon="35.3564704489"><ele>773.52</ele><time>2015-11-26T14:41:18Z</time></trkpt><trkpt lat="29.7182880621" lon="35.3564827703"><ele>773.52</ele><time>2015-11-26T14:41:32Z</time></trkpt><trkpt lat="29.7177594155" lon="35.3564615641"><ele>773.04</ele><time>2015-11-26T14:41:46Z</time></trkpt><trkpt lat="29.7175635304" lon="35.3564556129"><ele>773.52</ele><time>2015-11-26T14:41:51Z</time></trkpt><trkpt lat="29.7172101494" lon="35.3564061597"><ele>773.52</ele><time>2015-11-26T14:42:02Z</time></trkpt><trkpt lat="29.7167572752" lon="35.3564240132"><ele>773.04</ele><time>2015-11-26T14:42:16Z</time></trkpt><trkpt lat="29.7161586396" lon="35.3563998733"><ele>773.04</ele><time>2015-11-26T14:42:32Z</time></trkpt><trkpt lat="29.7158275545" lon="35.3564225882"><ele>773.04</ele><time>2015-11-26T14:42:45Z</time></trkpt><trkpt lat="29.7158017382" lon="35.3565323073"><ele>773.04</ele><time>2015-11-26T14:42:52Z</time></trkpt><trkpt lat="29.7158434801" lon="35.3569590300"><ele>773.52</ele><time>2015-11-26T14:43:05Z</time></trkpt><trkpt lat="29.7157819569" lon="35.3574800491"><ele>773.52</ele><time>2015-11-26T14:43:17Z</time></trkpt><trkpt lat="29.7157459985" lon="35.3578568157"><ele>774.00</ele><time>2015-11-26T14:43:25Z</time></trkpt><trkpt lat="29.7157427296" lon="35.3586720396"><ele>773.52</ele><time>2015-11-26T14:43:44Z</time></trkpt><trkpt lat="29.7158322483" lon="35.3589814156"><ele>773.52</ele><time>2015-11-26T14:43:57Z</time></trkpt><trkpt lat="29.7159768362" lon="35.3594004270"><ele>773.52</ele><time>2015-11-26T14:44:10Z</time></trkpt><trkpt lat="29.7161377687" lon="35.3601167444"><ele>774.48</ele><time>2015-11-26T14:44:27Z</time></trkpt><trkpt lat="29.7162489127" lon="35.3607976902"><ele>775.44</ele><time>2015-11-26T14:44:44Z</time></trkpt><trkpt lat="29.7165123560" lon="35.3610140271"><ele>776.40</ele><time>2015-11-26T14:44:54Z</time></trkpt><trkpt lat="29.7168126795" lon="35.3612902109"><ele>776.40</ele><time>2015-11-26T14:45:06Z</time></trkpt><trkpt lat="29.7169482987" lon="35.3617947176"><ele>777.36</ele><time>2015-11-26T14:45:22Z</time></trkpt><trkpt lat="29.7171461117" lon="35.3624050040"><ele>775.44</ele><time>2015-11-26T14:45:36Z</time></trkpt><trkpt lat="29.7173597664" lon="35.3631039709"><ele>774.96</ele><time>2015-11-26T14:45:50Z</time></trkpt><trkpt lat="29.7176460084" lon="35.3640444204"><ele>774.96</ele><time>2015-11-26T14:46:08Z</time></trkpt><trkpt lat="29.7178685479" lon="35.3650836926"><ele>775.44</ele><time>2015-11-26T14:46:26Z</time></trkpt><trkpt lat="29.7180263791" lon="35.3661297541"><ele>775.44</ele><time>2015-11-26T14:46:44Z</time></trkpt><trkpt lat="29.7181136347" lon="35.3665787727"><ele>775.44</ele><time>2015-11-26T14:46:52Z</time></trkpt><trkpt lat="29.7181347571" lon="35.3668930940"><ele>775.44</ele><time>2015-11-26T14:46:59Z</time></trkpt><trkpt lat="29.7180629242" lon="35.3672775719"><ele>775.44</ele><time>2015-11-26T14:47:07Z</time></trkpt><trkpt lat="29.7180530336" lon="35.3675396740"><ele>775.44</ele><time>2015-11-26T14:47:12Z</time></trkpt><trkpt lat="29.7179132234" lon="35.3681471944"><ele>775.44</ele><time>2015-11-26T14:47:26Z</time></trkpt><trkpt lat="29.7178237047" lon="35.3686066903"><ele>775.92</ele><time>2015-11-26T14:47:37Z</time></trkpt><trkpt lat="29.7178552207" lon="35.3689362668"><ele>775.44</ele><time>2015-11-26T14:47:46Z</time></trkpt><trkpt lat="29.7178481799" lon="35.3690389451"><ele>775.44</ele><time>2015-11-26T14:47:50Z</time></trkpt><trkpt lat="29.7178109642" lon="35.3695212398"><ele>775.44</ele><time>2015-11-26T14:48:03Z</time></trkpt><trkpt lat="29.7177858185" lon="35.3698601201"><ele>775.92</ele><time>2015-11-26T14:48:14Z</time></trkpt><trkpt lat="29.7177612595" lon="35.3701148462"><ele>775.92</ele><time>2015-11-26T14:48:22Z</time></trkpt><trkpt lat="29.7177521233" lon="35.3701565880"><ele>775.44</ele><time>2015-11-26T14:48:32Z</time></trkpt><trkpt lat="29.7177499440" lon="35.3701676521"><ele>775.44</ele><time>2015-11-26T14:48:37Z</time></trkpt><trkpt lat="29.7177231219" lon="35.3702105675"><ele>775.44</ele><time>2015-11-26T14:48:41Z</time></trkpt><trkpt lat="29.7177102137" lon="35.3702353779"><ele>775.44</ele><time>2015-11-26T14:48:43Z</time></trkpt><trkpt lat="29.7175765224" lon="35.3704818059"><ele>775.44</ele><time>2015-11-26T14:48:56Z</time></trkpt><trkpt lat="29.7173996642" lon="35.3707007412"><ele>775.44</ele><time>2015-11-26T14:49:07Z</time></trkpt><trkpt lat="29.7171793040" lon="35.3708345164"><ele>775.44</ele><time>2015-11-26T14:49:20Z</time></trkpt><trkpt lat="29.7169152740" lon="35.3711209260"><ele>775.44</ele><time>2015-11-26T14:49:33Z</time></trkpt><trkpt lat="29.7165556066" lon="35.3714786656"><ele>775.44</ele><time>2015-11-26T14:49:47Z</time></trkpt><trkpt lat="29.7165138647" lon="35.3715399373"><ele>775.44</ele><time>2015-11-26T14:49:57Z</time></trkpt><trkpt lat="29.7165204026" lon="35.3715286218"><ele>775.44</ele><time>2015-11-26T14:50:23Z</time></trkpt><trkpt lat="29.7165178880" lon="35.3715333156"><ele>775.44</ele><time>2015-11-26T14:50:41Z</time></trkpt><trkpt lat="29.7164774034" lon="35.3715478163"><ele>775.44</ele><time>2015-11-26T14:50:45Z</time></trkpt><trkpt lat="29.7162423749" lon="35.3717813361"><ele>775.44</ele><time>2015-11-26T14:50:57Z</time></trkpt><trkpt lat="29.7157066874" lon="35.3723066300"><ele>775.44</ele><time>2015-11-26T14:51:16Z</time></trkpt><trkpt lat="29.7153811343" lon="35.3728116397"><ele>775.44</ele><time>2015-11-26T14:51:32Z</time></trkpt><trkpt lat="29.7153891809" lon="35.3728116397"><ele>774.96</ele><time>2015-11-26T14:51:53Z</time></trkpt><trkpt lat="29.7154054418" lon="35.3728253022"><ele>774.48</ele><time>2015-11-26T14:52:33Z</time></trkpt><trkpt lat="29.7154056095" lon="35.3728312533"><ele>774.48</ele><time>2015-11-26T14:53:05Z</time></trkpt><trkpt lat="29.7154044360" lon="35.3728263080"><ele>774.00</ele><time>2015-11-26T14:53:52Z</time></trkpt><trkpt lat="29.7154015023" lon="35.3728229553"><ele>774.00</ele><time>2015-11-26T14:54:29Z</time></trkpt><trkpt lat="29.7154008318" lon="35.3728245478"><ele>773.52</ele><time>2015-11-26T14:55:15Z</time></trkpt><trkpt lat="29.7153971437" lon="35.3728263080"><ele>773.52</ele><time>2015-11-26T14:55:53Z</time></trkpt><trkpt lat="29.7153920308" lon="35.3728275653"><ele>773.04</ele><time>2015-11-26T14:56:23Z</time></trkpt><trkpt lat="29.7153830621" lon="35.3728249669"><ele>774.00</ele><time>2015-11-26T14:56:40Z</time></trkpt><trkpt lat="29.7151673958" lon="35.3730646055"><ele>773.52</ele><time>2015-11-26T14:56:52Z</time></trkpt><trkpt lat="29.7149307746" lon="35.3735327348"><ele>774.00</ele><time>2015-11-26T14:57:05Z</time></trkpt><trkpt lat="29.7147470433" lon="35.3739326354"><ele>774.00</ele><time>2015-11-26T14:57:16Z</time></trkpt><trkpt lat="29.7143906448" lon="35.3747165948"><ele>774.00</ele><time>2015-11-26T14:57:34Z</time></trkpt><trkpt lat="29.7141732182" lon="35.3751552198"><ele>774.00</ele><time>2015-11-26T14:57:45Z</time></trkpt><trkpt lat="29.7140902374" lon="35.3753192537"><ele>774.00</ele><time>2015-11-26T14:57:49Z</time></trkpt><trkpt lat="29.7140205838" lon="35.3754458204"><ele>774.00</ele><time>2015-11-26T14:57:52Z</time></trkpt><trkpt lat="29.7136398777" lon="35.3760639858"><ele>774.00</ele><time>2015-11-26T14:58:08Z</time></trkpt><trkpt lat="29.7133481875" lon="35.3765093163"><ele>774.00</ele><time>2015-11-26T14:58:19Z</time></trkpt><trkpt lat="29.7133077029" lon="35.3766057082"><ele>774.00</ele><time>2015-11-26T14:58:21Z</time></trkpt><trkpt lat="29.7128821537" lon="35.3773266356"><ele>774.00</ele><time>2015-11-26T14:58:37Z</time></trkpt><trkpt lat="29.7127606161" lon="35.3774980456"><ele>774.00</ele><time>2015-11-26T14:58:41Z</time></trkpt><trkpt lat="29.7123050597" lon="35.3782074898"><ele>774.00</ele><time>2015-11-26T14:58:58Z</time></trkpt><trkpt lat="29.7120377608" lon="35.3789721709"><ele>774.00</ele><time>2015-11-26T14:59:14Z</time></trkpt><trkpt lat="29.7118104436" lon="35.3798539471"><ele>774.00</ele><time>2015-11-26T14:59:31Z</time></trkpt><trkpt lat="29.7117772512" lon="35.3799624089"><ele>774.00</ele><time>2015-11-26T14:59:33Z</time></trkpt><trkpt lat="29.7117205895" lon="35.3801848646"><ele>774.00</ele><time>2015-11-26T14:59:37Z</time></trkpt><trkpt lat="29.7114522010" lon="35.3813649528"><ele>774.00</ele><time>2015-11-26T14:59:58Z</time></trkpt><trkpt lat="29.7112494428" lon="35.3822952602"><ele>774.00</ele><time>2015-11-26T15:00:14Z</time></trkpt><trkpt lat="29.7110472713" lon="35.3834368754"><ele>774.48</ele><time>2015-11-26T15:00:33Z</time></trkpt><trkpt lat="29.7108597681" lon="35.3843091801"><ele>774.00</ele><time>2015-11-26T15:00:49Z</time></trkpt><trkpt lat="29.7107713390" lon="35.3845680133"><ele>774.00</ele><time>2015-11-26T15:00:55Z</time></trkpt><trkpt lat="29.7106860951" lon="35.3847733699"><ele>773.52</ele><time>2015-11-26T15:01:00Z</time></trkpt><trkpt lat="29.7103516571" lon="35.3857327625"><ele>774.00</ele><time>2015-11-26T15:01:20Z</time></trkpt><trkpt lat="29.7101761401" lon="35.3861315735"><ele>774.00</ele><time>2015-11-26T15:01:28Z</time></trkpt><trkpt lat="29.7100451309" lon="35.3864020575"><ele>773.52</ele><time>2015-11-26T15:01:34Z</time></trkpt><trkpt lat="29.7098433785" lon="35.3868898004"><ele>773.52</ele><time>2015-11-26T15:01:48Z</time></trkpt><trkpt lat="29.7095006425" lon="35.3874580935"><ele>774.00</ele><time>2015-11-26T15:02:05Z</time></trkpt><trkpt lat="29.7092558909" lon="35.3878146596"><ele>774.00</ele><time>2015-11-26T15:02:15Z</time></trkpt><trkpt lat="29.7092097066" lon="35.3878943715"><ele>774.00</ele><time>2015-11-26T15:02:17Z</time></trkpt><trkpt lat="29.7089831438" lon="35.3882269654"><ele>774.00</ele><time>2015-11-26T15:02:26Z</time></trkpt><trkpt lat="29.7088212054" lon="35.3886825219"><ele>774.00</ele><time>2015-11-26T15:02:38Z</time></trkpt><trkpt lat="29.7087373864" lon="35.3890482243"><ele>773.52</ele><time>2015-11-26T15:02:49Z</time></trkpt><trkpt lat="29.7086199559" lon="35.3893161099"><ele>774.00</ele><time>2015-11-26T15:02:58Z</time></trkpt><trkpt lat="29.7084478755" lon="35.3897678945"><ele>774.00</ele><time>2015-11-26T15:03:10Z</time></trkpt><trkpt lat="29.7082576063" lon="35.3903323319"><ele>774.00</ele><time>2015-11-26T15:03:25Z</time></trkpt><trkpt lat="29.7080334742" lon="35.3907541931"><ele>774.00</ele><time>2015-11-26T15:03:36Z</time></trkpt><trkpt lat="29.7075656801" lon="35.3915814031"><ele>774.00</ele><time>2015-11-26T15:03:56Z</time></trkpt><trkpt lat="29.7072082758" lon="35.3922206070"><ele>774.00</ele><time>2015-11-26T15:04:11Z</time></trkpt><trkpt lat="29.7069271468" lon="35.3928681929"><ele>774.00</ele><time>2015-11-26T15:04:29Z</time></trkpt><trkpt lat="29.7066356242" lon="35.3933947440"><ele>774.00</ele><time>2015-11-26T15:04:44Z</time></trkpt><trkpt lat="29.7062347177" lon="35.3939316049"><ele>774.00</ele><time>2015-11-26T15:05:01Z</time></trkpt><trkpt lat="29.7062223963" lon="35.3939419985"><ele>774.00</ele><time>2015-11-26T15:05:02Z</time></trkpt><trkpt lat="29.7061828338" lon="35.3940082993"><ele>774.00</ele><time>2015-11-26T15:05:06Z</time></trkpt><trkpt lat="29.7058596276" lon="35.3945154045"><ele>774.00</ele><time>2015-11-26T15:05:22Z</time></trkpt><trkpt lat="29.7054907400" lon="35.3950892296"><ele>774.48</ele><time>2015-11-26T15:05:38Z</time></trkpt><trkpt lat="29.7049539629" lon="35.3959132545"><ele>774.00</ele><time>2015-11-26T15:05:59Z</time></trkpt><trkpt lat="29.7044434212" lon="35.3968348447"><ele>774.00</ele><time>2015-11-26T15:06:21Z</time></trkpt><trkpt lat="29.7040911298" lon="35.3973716218"><ele>774.00</ele><time>2015-11-26T15:06:36Z</time></trkpt><trkpt lat="29.7038864437" lon="35.3977213148"><ele>774.00</ele><time>2015-11-26T15:06:50Z</time></trkpt><trkpt lat="29.7038970888" lon="35.3977211472"><ele>774.00</ele><time>2015-11-26T15:07:13Z</time></trkpt><trkpt lat="29.7038918920" lon="35.3977198899"><ele>774.00</ele><time>2015-11-26T15:07:29Z</time></trkpt><trkpt lat="29.7037178837" lon="35.3978089895"><ele>774.00</ele><time>2015-11-26T15:07:41Z</time></trkpt><trkpt lat="29.7035725415" lon="35.3980852570"><ele>774.00</ele><time>2015-11-26T15:07:51Z</time></trkpt><trkpt lat="29.7033963539" lon="35.3984083794"><ele>774.00</ele><time>2015-11-26T15:08:03Z</time></trkpt><trkpt lat="29.7031675279" lon="35.3987449128"><ele>774.00</ele><time>2015-11-26T15:08:13Z</time></trkpt><trkpt lat="29.7028558888" lon="35.3995120246"><ele>774.00</ele><time>2015-11-26T15:08:30Z</time></trkpt><trkpt lat="29.7026102152" lon="35.3999644797"><ele>774.00</ele><time>2015-11-26T15:08:43Z</time></trkpt><trkpt lat="29.7024421580" lon="35.4001852591"><ele>774.00</ele><time>2015-11-26T15:08:54Z</time></trkpt><trkpt lat="29.7022899427" lon="35.4007096309"><ele>774.48</ele><time>2015-11-26T15:09:07Z</time></trkpt><trkpt lat="29.7021366376" lon="35.4010997247"><ele>774.48</ele><time>2015-11-26T15:09:19Z</time></trkpt><trkpt lat="29.7019890323" lon="35.4014592245"><ele>774.48</ele><time>2015-11-26T15:09:32Z</time></trkpt><trkpt lat="29.7018440254" lon="35.4018782359"><ele>774.48</ele><time>2015-11-26T15:09:45Z</time></trkpt><trkpt lat="29.7016656585" lon="35.4022562597"><ele>774.48</ele><time>2015-11-26T15:09:58Z</time></trkpt><trkpt lat="29.7014746349" lon="35.4026823957"><ele>774.48</ele><time>2015-11-26T15:10:12Z</time></trkpt><trkpt lat="29.7014369164" lon="35.4027683102"><ele>774.48</ele><time>2015-11-26T15:10:16Z</time></trkpt><trkpt lat="29.7014396824" lon="35.4027942941"><ele>774.48</ele><time>2015-11-26T15:10:28Z</time></trkpt><trkpt lat="29.7014297917" lon="35.4028000776"><ele>774.48</ele><time>2015-11-26T15:10:46Z</time></trkpt><trkpt lat="29.7013893910" lon="35.4027992394"><ele>774.48</ele><time>2015-11-26T15:10:49Z</time></trkpt><trkpt lat="29.7013008781" lon="35.4028046876"><ele>774.48</ele><time>2015-11-26T15:10:53Z</time></trkpt><trkpt lat="29.7008454055" lon="35.4027631972"><ele>774.48</ele><time>2015-11-26T15:11:08Z</time></trkpt><trkpt lat="29.7003341094" lon="35.4026398994"><ele>774.48</ele><time>2015-11-26T15:11:23Z</time></trkpt><trkpt lat="29.6998537425" lon="35.4025197029"><ele>774.48</ele><time>2015-11-26T15:11:38Z</time></trkpt><trkpt lat="29.6995192207" lon="35.4024163540"><ele>774.96</ele><time>2015-11-26T15:11:52Z</time></trkpt><trkpt lat="29.6990809310" lon="35.4022671562"><ele>774.48</ele><time>2015-11-26T15:12:08Z</time></trkpt><trkpt lat="29.6986556333" lon="35.4021490552"><ele>774.96</ele><time>2015-11-26T15:12:23Z</time></trkpt><trkpt lat="29.6981330216" lon="35.4019926488"><ele>775.44</ele><time>2015-11-26T15:12:41Z</time></trkpt><trkpt lat="29.6977290139" lon="35.4019518290"><ele>775.92</ele><time>2015-11-26T15:12:56Z</time></trkpt><trkpt lat="29.6975323744" lon="35.4019247554"><ele>775.92</ele><time>2015-11-26T15:13:06Z</time></trkpt><trkpt lat="29.6975369845" lon="35.4019315448"><ele>776.40</ele><time>2015-11-26T15:13:18Z</time></trkpt><trkpt lat="29.6975001041" lon="35.4018892162"><ele>777.84</ele><time>2015-11-26T15:13:31Z</time></trkpt><trkpt lat="29.6974829212" lon="35.4018652439"><ele>779.29</ele><time>2015-11-26T15:13:43Z</time></trkpt><trkpt lat="29.6974768024" lon="35.4018678423"><ele>779.29</ele><time>2015-11-26T15:13:57Z</time></trkpt><trkpt lat="29.6974885371" lon="35.4018878751"><ele>778.32</ele><time>2015-11-26T15:14:15Z</time></trkpt><trkpt lat="29.6974747907" lon="35.4018734582"><ele>779.29</ele><time>2015-11-26T15:14:30Z</time></trkpt><trkpt lat="29.6974692587" lon="35.4018665012"><ele>779.29</ele><time>2015-11-26T15:14:46Z</time></trkpt><trkpt lat="29.6974488907" lon="35.4018595442"><ele>777.84</ele><time>2015-11-26T15:15:03Z</time></trkpt><trkpt lat="29.6973766387" lon="35.4018353205"><ele>776.40</ele><time>2015-11-26T15:15:10Z</time></trkpt><trkpt lat="29.6973082423" lon="35.4018461332"><ele>776.40</ele><time>2015-11-26T15:15:16Z</time></trkpt><trkpt lat="29.6971050650" lon="35.4018572811"><ele>776.88</ele><time>2015-11-26T15:15:35Z</time></trkpt><trkpt lat="29.6969984472" lon="35.4018505756"><ele>777.84</ele><time>2015-11-26T15:15:51Z</time></trkpt><trkpt lat="29.6968571283" lon="35.4018261004"><ele>778.81</ele><time>2015-11-26T15:16:04Z</time></trkpt><trkpt lat="29.6968515124" lon="35.4018288665"><ele>778.81</ele><time>2015-11-26T15:16:22Z</time></trkpt><trkpt lat="29.6968442202" lon="35.4018235859"><ele>778.81</ele><time>2015-11-26T15:16:54Z</time></trkpt><trkpt lat="29.6968360059" lon="35.4018390924"><ele>778.81</ele><time>2015-11-26T15:17:16Z</time></trkpt><trkpt lat="29.6968285460" lon="35.4018479772"><ele>778.32</ele><time>2015-11-26T15:17:41Z</time></trkpt><trkpt lat="29.6968438011" lon="35.4018279444"><ele>778.32</ele><time>2015-11-26T15:18:15Z</time></trkpt><trkpt lat="29.6968277916" lon="35.4018377513"><ele>778.32</ele><time>2015-11-26T15:18:56Z</time></trkpt><trkpt lat="29.6968132909" lon="35.4018479772"><ele>777.84</ele><time>2015-11-26T15:19:18Z</time></trkpt><trkpt lat="29.6968231816" lon="35.4018515814"><ele>777.84</ele><time>2015-11-26T15:19:50Z</time></trkpt><trkpt lat="29.6968370955" lon="35.4018529225"><ele>777.84</ele><time>2015-11-26T15:20:26Z</time></trkpt><trkpt lat="29.6968353353" lon="35.4018602986"><ele>777.36</ele><time>2015-11-26T15:20:54Z</time></trkpt><trkpt lat="29.6968499199" lon="35.4018591251"><ele>777.36</ele><time>2015-11-26T15:21:22Z</time></trkpt><trkpt lat="29.6968479920" lon="35.4018551018"><ele>777.36</ele><time>2015-11-26T15:21:56Z</time></trkpt><trkpt lat="29.6968323179" lon="35.4018475581"><ele>777.36</ele><time>2015-11-26T15:22:40Z</time></trkpt><trkpt lat="29.6968355868" lon="35.4018502403"><ele>777.36</ele><time>2015-11-26T15:23:21Z</time></trkpt><trkpt lat="29.6968441363" lon="35.4018529225"><ele>777.36</ele><time>2015-11-26T15:24:03Z</time></trkpt><trkpt lat="29.6968305577" lon="35.4018449597"><ele>777.36</ele><time>2015-11-26T15:24:42Z</time></trkpt><trkpt lat="29.6968430467" lon="35.4018428642"><ele>778.32</ele><time>2015-11-26T15:24:58Z</time></trkpt><trkpt lat="29.6968496684" lon="35.4018501565"><ele>778.32</ele><time>2015-11-26T15:25:21Z</time></trkpt><trkpt lat="29.6968287136" lon="35.4018729553"><ele>777.84</ele><time>2015-11-26T15:25:43Z</time></trkpt><trkpt lat="29.6967899892" lon="35.4021892045"><ele>777.84</ele><time>2015-11-26T15:25:57Z</time></trkpt><trkpt lat="29.6966299787" lon="35.4026910290"><ele>779.29</ele><time>2015-11-26T15:26:11Z</time></trkpt><trkpt lat="29.6965283900" lon="35.4030143190"><ele>779.77</ele><time>2015-11-26T15:26:19Z</time></trkpt><trkpt lat="29.6962848958" lon="35.4037329834"><ele>780.73</ele><time>2015-11-26T15:26:36Z</time></trkpt><trkpt lat="29.6960071195" lon="35.4043041263"><ele>780.25</ele><time>2015-11-26T15:26:50Z</time></trkpt><trkpt lat="29.6955660637" lon="35.4051500279"><ele>778.32</ele><time>2015-11-26T15:27:04Z</time></trkpt><trkpt lat="29.6950727887" lon="35.4061144497"><ele>778.32</ele><time>2015-11-26T15:27:20Z</time></trkpt><trkpt lat="29.6946019772" lon="35.4070782848"><ele>779.77</ele><time>2015-11-26T15:27:40Z</time></trkpt><trkpt lat="29.6942302398" lon="35.4078359250"><ele>781.21</ele><time>2015-11-26T15:27:57Z</time></trkpt><trkpt lat="29.6937891841" lon="35.4087229818"><ele>782.65</ele><time>2015-11-26T15:28:17Z</time></trkpt><trkpt lat="29.6933240723" lon="35.4096348491"><ele>781.69</ele><time>2015-11-26T15:28:35Z</time></trkpt><trkpt lat="29.6927976888" lon="35.4106657393"><ele>782.17</ele><time>2015-11-26T15:28:53Z</time></trkpt><trkpt lat="29.6922268812" lon="35.4117760062"><ele>781.69</ele><time>2015-11-26T15:29:12Z</time></trkpt><trkpt lat="29.6917218715" lon="35.4127591196"><ele>783.61</ele><time>2015-11-26T15:29:30Z</time></trkpt><trkpt lat="29.6913314424" lon="35.4135421570"><ele>785.53</ele><time>2015-11-26T15:29:47Z</time></trkpt><trkpt lat="29.6908985171" lon="35.4143945966"><ele>786.02</ele><time>2015-11-26T15:30:06Z</time></trkpt><trkpt lat="29.6904691122" lon="35.4152586870"><ele>786.50</ele><time>2015-11-26T15:30:24Z</time></trkpt><trkpt lat="29.6899642702" lon="35.4162412137"><ele>786.98</ele><time>2015-11-26T15:30:43Z</time></trkpt><trkpt lat="29.6895696502" lon="35.4170585331"><ele>788.90</ele><time>2015-11-26T15:31:01Z</time></trkpt><trkpt lat="29.6890869364" lon="35.4180180933"><ele>788.90</ele><time>2015-11-26T15:31:21Z</time></trkpt><trkpt lat="29.6885913145" lon="35.4190025479"><ele>788.90</ele><time>2015-11-26T15:31:39Z</time></trkpt><trkpt lat="29.6881106123" lon="35.4199325200"><ele>791.30</ele><time>2015-11-26T15:31:59Z</time></trkpt><trkpt lat="29.6876674611" lon="35.4206556268"><ele>791.78</ele><time>2015-11-26T15:32:15Z</time></trkpt><trkpt lat="29.6871701628" lon="35.4211672582"><ele>793.71</ele><time>2015-11-26T15:32:31Z</time></trkpt><trkpt lat="29.6867016982" lon="35.4216100741"><ele>795.63</ele><time>2015-11-26T15:32:48Z</time></trkpt><trkpt lat="29.6861501690" lon="35.4221385531"><ele>797.55</ele><time>2015-11-26T15:33:07Z</time></trkpt><trkpt lat="29.6858594008" lon="35.4224088695"><ele>798.51</ele><time>2015-11-26T15:33:16Z</time></trkpt><trkpt lat="29.6853565704" lon="35.4228775017"><ele>798.99</ele><time>2015-11-26T15:33:32Z</time></trkpt><trkpt lat="29.6846681647" lon="35.4235888738"><ele>798.51</ele><time>2015-11-26T15:33:51Z</time></trkpt><trkpt lat="29.6840359177" lon="35.4242343642"><ele>797.55</ele><time>2015-11-26T15:34:06Z</time></trkpt><trkpt lat="29.6830584202" lon="35.4252074193"><ele>796.59</ele><time>2015-11-26T15:34:27Z</time></trkpt><trkpt lat="29.6822988521" lon="35.4259967431"><ele>796.11</ele><time>2015-11-26T15:34:44Z</time></trkpt><trkpt lat="29.6814893279" lon="35.4268153198"><ele>797.55</ele><time>2015-11-26T15:35:04Z</time></trkpt><trkpt lat="29.6807872597" lon="35.4275096767"><ele>798.99</ele><time>2015-11-26T15:35:23Z</time></trkpt><trkpt lat="29.6800999437" lon="35.4281942267"><ele>800.44</ele><time>2015-11-26T15:35:43Z</time></trkpt><trkpt lat="29.6795688663" lon="35.4287302494"><ele>801.40</ele><time>2015-11-26T15:36:02Z</time></trkpt><trkpt lat="29.6793044172" lon="35.4289958719"><ele>801.88</ele><time>2015-11-26T15:36:16Z</time></trkpt><trkpt lat="29.6792661957" lon="35.4290300701"><ele>801.88</ele><time>2015-11-26T15:36:20Z</time></trkpt><trkpt lat="29.6792554669" lon="35.4290399607"><ele>801.88</ele><time>2015-11-26T15:36:35Z</time></trkpt><trkpt lat="29.6792599093" lon="35.4290260468"><ele>801.88</ele><time>2015-11-26T15:36:52Z</time></trkpt><trkpt lat="29.6792553831" lon="35.4290322494"><ele>801.40</ele><time>2015-11-26T15:37:12Z</time></trkpt></trkseg></trk></gpx>